| time (UTC) | temp F | wind direction | speed knots | gust knots | rain 1hr in | rain 24hr in | rain mn in | humidity % | barometer mb |
| 20260507164328 | 58 | 316 | 3.5 | 7.8 | 0.00 | 0.01 | 0.01 | 66 | 1011.8 |
| 20260507164228 | 58 | 343 | 3.5 | 8.7 | 0.00 | 0.01 | 0.01 | 66 | 1011.8 |
| 20260507164108 | 58 | 306 | 3.5 | 9.6 | 0.00 | 0.01 | 0.01 | 66 | 1011.8 |
| 20260507164028 | 58 | 299 | 3.5 | 9.6 | 0.00 | 0.01 | 0.01 | 66 | 1011.8 |
| 20260507163928 | 58 | 28 | 3.5 | 9.6 | 0.00 | 0.01 | 0.01 | 66 | 1011.8 |
| 20260507163828 | 58 | 9 | 4.3 | 9.6 | 0.00 | 0.01 | 0.01 | 66 | 1011.8 |
| 20260507163728 | 58 | 5 | 4.3 | 9.6 | 0.00 | 0.01 | 0.01 | 66 | 1011.8 |
| 20260507163629 | 58 | 346 | 4.3 | 9.6 | 0.00 | 0.01 | 0.01 | 66 | 1011.8 |
| 20260507163608 | 58 | 355 | 4.3 | 9.6 | 0.00 | 0.01 | 0.01 | 66 | 1011.8 |
| 20260507163529 | 58 | 22 | 4.3 | 9.6 | 0.00 | 0.01 | 0.01 | 66 | 1011.8 |
| 20260507163429 | 58 | 342 | 4.3 | 9.6 | 0.00 | 0.01 | 0.01 | 66 | 1011.8 |
| 20260507163329 | 58 | 302 | 4.3 | 9.6 | 0.00 | 0.01 | 0.01 | 66 | 1011.8 |
| 20260507163229 | 58 | 338 | 4.3 | 9.6 | 0.00 | 0.01 | 0.01 | 66 | 1011.8 |
| 20260507163128 | 58 | 9 | 4.3 | 9.6 | 0.00 | 0.01 | 0.01 | 66 | 1011.7 |
| 20260507163109 | 58 | 34 | 4.3 | 9.6 | 0.00 | 0.01 | 0.01 | 66 | 1011.7 |
| 20260507163029 | 58 | 60 | 4.3 | 9.6 | 0.00 | 0.01 | 0.01 | 66 | 1011.8 |
| 20260507162929 | 58 | 9 | 4.3 | 9.6 | 0.00 | 0.01 | 0.01 | 66 | 1011.7 |
| 20260507162837 | 58 | 340 | 3.5 | 7.8 | 0.00 | 0.01 | 0.01 | 66 | 1011.8 |
| 20260507162833 | 58 | 20 | 3.5 | 9.6 | 0.00 | 0.01 | 0.01 | 66 | 1011.8 |
| 20260507162829 | 58 | 341 | 3.5 | 7.8 | 0.00 | 0.01 | 0.01 | 67 | 1011.8 |
| 20260507162821 | 58 | 62 | 3.5 | 7.8 | 0.00 | 0.01 | 0.01 | 66 | 1011.8 |
| 20260507162529 | 58 | 345 | 3.5 | 7.8 | 0.00 | 0.01 | 0.01 | 66 | 1011.7 |
| 20260507162429 | 58 | 355 | 4.3 | 8.7 | 0.00 | 0.01 | 0.01 | 66 | 1011.7 |
| 20260507162329 | 58 | 36 | 3.5 | 8.7 | 0.00 | 0.01 | 0.01 | 67 | 1011.8 |
| 20260507162229 | 58 | 311 | 3.5 | 8.7 | 0.00 | 0.01 | 0.01 | 67 | 1011.8 |
| 20260507162128 | 58 | 0 | 3.5 | 8.7 | 0.00 | 0.01 | 0.01 | 67 | 1011.8 |
| 20260507162108 | 58 | 5 | 3.5 | 8.7 | 0.00 | 0.01 | 0.01 | 67 | 1011.8 |
| 20260507162028 | 58 | 348 | 3.5 | 8.7 | 0.00 | 0.01 | 0.01 | 66 | 1011.8 |
| 20260507161928 | 58 | 341 | 3.5 | 8.7 | 0.00 | 0.01 | 0.01 | 67 | 1011.9 |
| 20260507161828 | 58 | 5 | 3.5 | 8.7 | 0.00 | 0.01 | 0.01 | 66 | 1011.8 |
| 20260507161729 | 58 | 338 | 3.5 | 8.7 | 0.00 | 0.01 | 0.01 | 67 | 1011.8 |
| 20260507161628 | 58 | 346 | 3.5 | 8.7 | 0.00 | 0.01 | 0.01 | 67 | 1011.8 |
| 20260507161602 | 58 | 355 | 3.5 | 8.7 | 0.00 | 0.01 | 0.01 | 67 | 1011.8 |
| 20260507161529 | 58 | 325 | 3.5 | 8.7 | 0.00 | 0.01 | 0.01 | 67 | 1011.8 |
| 20260507161429 | 58 | 337 | 3.5 | 7.8 | 0.00 | 0.01 | 0.01 | 67 | 1011.8 |
| 20260507161329 | 58 | 321 | 3.5 | 7.0 | 0.00 | 0.01 | 0.01 | 66 | 1011.8 |
| 20260507161229 | 58 | 321 | 3.5 | 7.8 | 0.00 | 0.01 | 0.01 | 66 | 1011.8 |
| 20260507161129 | 58 | 334 | 3.5 | 7.8 | 0.00 | 0.01 | 0.01 | 66 | 1011.8 |
| 20260507161102 | 58 | 322 | 3.5 | 7.8 | 0.00 | 0.01 | 0.01 | 66 | 1011.8 |
| 20260507161029 | 58 | 334 | 3.5 | 7.8 | 0.00 | 0.01 | 0.01 | 66 | 1011.8 |
| 20260507160929 | 58 | 340 | 3.5 | 7.8 | 0.00 | 0.01 | 0.01 | 67 | 1011.8 |
| 20260507160834 | 58 | 309 | 3.5 | 7.8 | 0.00 | 0.01 | 0.01 | 65 | 1011.8 |
| 20260507160828 | 58 | 339 | 3.5 | 7.8 | 0.00 | 0.01 | 0.01 | 66 | 1011.8 |
| 20260507160820 | 58 | 328 | 3.5 | 7.8 | 0.00 | 0.01 | 0.01 | 66 | 1011.8 |
| 20260507160812 | 58 | 329 | 3.5 | 7.8 | 0.00 | 0.01 | 0.01 | 66 | 1011.8 |
| 20260507160528 | 58 | 5 | 3.5 | 7.8 | 0.00 | 0.01 | 0.01 | 65 | 1011.8 |
| 20260507160428 | 58 | 22 | 3.5 | 7.8 | 0.00 | 0.01 | 0.01 | 66 | 1011.8 |
| 20260507160328 | 58 | 348 | 3.5 | 7.8 | 0.00 | 0.01 | 0.01 | 66 | 1011.8 |
| 20260507160228 | 58 | 23 | 3.5 | 7.8 | 0.00 | 0.01 | 0.01 | 66 | 1011.8 |
| 20260507160129 | 58 | 355 | 3.5 | 7.8 | 0.00 | 0.01 | 0.01 | 65 | 1011.8 |
| 20260507160100 | 58 | 14 | 3.5 | 7.8 | 0.00 | 0.01 | 0.01 | 66 | 1011.8 |
| 20260507160029 | 58 | 5 | 4.3 | 8.7 | 0.00 | 0.01 | 0.01 | 66 | 1011.8 |
| 20260507155929 | 58 | 346 | 4.3 | 8.7 | 0.00 | 0.01 | 0.01 | 65 | 1011.8 |
| 20260507155829 | 59 | 355 | 4.3 | 8.7 | 0.00 | 0.01 | 0.01 | 65 | 1011.9 |
| 20260507155728 | 59 | 333 | 4.3 | 9.6 | 0.00 | 0.01 | 0.01 | 65 | 1011.8 |
| 20260507155629 | 59 | 323 | 4.3 | 9.6 | 0.00 | 0.01 | 0.01 | 65 | 1011.8 |
| 20260507155600 | 59 | 337 | 4.3 | 9.6 | 0.00 | 0.01 | 0.01 | 65 | 1011.8 |
| 20260507155529 | 59 | 22 | 5.2 | 9.6 | 0.00 | 0.01 | 0.01 | 66 | 1011.8 |
| 20260507155429 | 59 | 312 | 5.2 | 9.6 | 0.00 | 0.01 | 0.01 | 65 | 1011.7 |
| 20260507155329 | 59 | 304 | 5.2 | 9.6 | 0.00 | 0.01 | 0.01 | 65 | 1011.7 |
| 20260507155228 | 59 | 338 | 6.1 | 10.4 | 0.00 | 0.01 | 0.01 | 64 | 1011.7 |
| 20260507155129 | 59 | 0 | 6.1 | 10.4 | 0.00 | 0.01 | 0.01 | 64 | 1011.7 |
| 20260507155101 | 59 | 328 | 6.1 | 10.4 | 0.00 | 0.01 | 0.01 | 64 | 1011.7 |
| 20260507155028 | 59 | 329 | 6.1 | 10.4 | 0.00 | 0.01 | 0.01 | 64 | 1011.7 |
| 20260507154928 | 59 | 320 | 6.1 | 10.4 | 0.00 | 0.01 | 0.01 | 64 | 1011.7 |
| 20260507154828 | 59 | 325 | 6.1 | 10.4 | 0.00 | 0.01 | 0.01 | 64 | 1011.8 |
| 20260507154728 | 59 | 309 | 6.1 | 10.4 | 0.00 | 0.01 | 0.01 | 63 | 1011.7 |
| 20260507154629 | 59 | 355 | 5.2 | 10.4 | 0.00 | 0.01 | 0.01 | 64 | 1011.7 |
| 20260507154600 | 59 | 355 | 5.2 | 10.4 | 0.00 | 0.01 | 0.01 | 63 | 1011.7 |
| 20260507154528 | 59 | 343 | 5.2 | 10.4 | 0.00 | 0.01 | 0.01 | 64 | 1011.7 |
| 20260507154429 | 60 | 342 | 5.2 | 10.4 | 0.00 | 0.01 | 0.01 | 63 | 1011.7 |
| 20260507154328 | 59 | 0 | 5.2 | 10.4 | 0.00 | 0.01 | 0.01 | 64 | 1011.8 |
| 20260507154230 | 59 | 355 | 5.2 | 11.3 | 0.00 | 0.01 | 0.01 | 65 | 1011.7 |
| 20260507154128 | 59 | 346 | 5.2 | 11.3 | 0.00 | 0.01 | 0.01 | 64 | 1011.7 |
| 20260507154102 | 59 | 346 | 5.2 | 11.3 | 0.00 | 0.01 | 0.01 | 63 | 1011.7 |
| 20260507154028 | 59 | 0 | 5.2 | 11.3 | 0.00 | 0.01 | 0.01 | 63 | 1011.7 |
| 20260507153928 | 59 | 340 | 5.2 | 11.3 | 0.00 | 0.01 | 0.01 | 62 | 1011.7 |
| 20260507153828 | 59 | 309 | 5.2 | 11.3 | 0.00 | 0.02 | 0.01 | 61 | 1011.7 |
| 20260507153728 | 59 | 319 | 5.2 | 11.3 | 0.00 | 0.02 | 0.01 | 63 | 1011.7 |
| 20260507153628 | 59 | 296 | 5.2 | 11.3 | 0.00 | 0.02 | 0.01 | 63 | 1011.8 |
| 20260507153601 | 59 | 294 | 5.2 | 11.3 | 0.00 | 0.02 | 0.01 | 62 | 1011.8 |
| 20260507153529 | 59 | 305 | 5.2 | 11.3 | 0.00 | 0.02 | 0.01 | 62 | 1011.8 |
| 20260507153429 | 59 | 290 | 5.2 | 11.3 | 0.00 | 0.02 | 0.01 | 63 | 1011.8 |
| 20260507153329 | 59 | 338 | 5.2 | 11.3 | 0.00 | 0.02 | 0.01 | 62 | 1011.7 |
| 20260507153324 | 59 | 291 | 5.2 | 8.7 | 0.00 | 0.02 | 0.01 | 63 | 1011.7 |
| 20260507153319 | 59 | 305 | 5.2 | 9.6 | 0.00 | 0.02 | 0.01 | 63 | 1011.7 |
| 20260507153315 | 59 | 305 | 5.2 | 8.7 | 0.00 | 0.02 | 0.01 | 64 | 1011.7 |
| 20260507153028 | 59 | 299 | 5.2 | 8.7 | 0.00 | 0.02 | 0.01 | 63 | 1011.7 |
| 20260507152928 | 59 | 311 | 5.2 | 8.7 | 0.00 | 0.02 | 0.01 | 63 | 1011.6 |
| 20260507152848 | 59 | 311 | 5.2 | 11.3 | 0.00 | 0.02 | 0.01 | 63 | 1011.6 |
| 20260507152829 | 59 | 283 | 4.3 | 8.7 | 0.00 | 0.02 | 0.01 | 64 | 1011.7 |
| 20260507152729 | 59 | 296 | 5.2 | 8.7 | 0.00 | 0.02 | 0.01 | 64 | 1011.7 |
| 20260507152634 | 59 | 313 | 5.2 | 8.7 | 0.00 | 0.02 | 0.01 | 63 | 1011.7 |
| 20260507152600 | 59 | 310 | 5.2 | 8.7 | 0.00 | 0.02 | 0.01 | 63 | 1011.7 |
| 20260507152529 | 59 | 302 | 5.2 | 11.3 | 0.00 | 0.02 | 0.01 | 63 | 1011.6 |
| 20260507152428 | 59 | 302 | 5.2 | 11.3 | 0.00 | 0.02 | 0.01 | 63 | 1011.7 |
| 20260507152328 | 59 | 311 | 5.2 | 11.3 | 0.00 | 0.02 | 0.01 | 63 | 1011.6 |
| 20260507152323 | 59 | 343 | 5.2 | 11.3 | 0.00 | 0.02 | 0.01 | 64 | 1011.6 |
| 20260507152319 | 59 | 304 | 5.2 | 11.3 | 0.00 | 0.02 | 0.01 | 65 | 1011.6 |
| 20260507152315 | 59 | 0 | 5.2 | 11.3 | 0.00 | 0.02 | 0.01 | 64 | 1011.6 |
| 20260507152028 | 59 | 321 | 5.2 | 11.3 | 0.00 | 0.02 | 0.01 | 64 | 1011.6 |
| 20260507151924 | 59 | 304 | 5.2 | 11.3 | 0.00 | 0.02 | 0.01 | 64 | 1011.6 |
| 20260507151824 | 59 | 333 | 4.3 | 11.3 | 0.00 | 0.02 | 0.01 | 64 | 1011.6 |
| 20260507151724 | 59 | 336 | 4.3 | 11.3 | 0.00 | 0.02 | 0.01 | 63 | 1011.6 |
| 20260507151626 | 59 | 304 | 4.3 | 11.3 | 0.00 | 0.02 | 0.01 | 65 | 1011.6 |
| 20260507151602 | 58 | 312 | 4.3 | 11.3 | 0.00 | 0.02 | 0.01 | 65 | 1011.6 |
| 20260507151524 | 58 | 326 | 3.5 | 10.4 | 0.00 | 0.02 | 0.01 | 64 | 1011.6 |
| 20260507151424 | 58 | 291 | 3.5 | 8.7 | 0.00 | 0.02 | 0.01 | 65 | 1011.7 |
| 20260507151324 | 58 | 306 | 3.5 | 8.7 | 0.00 | 0.02 | 0.01 | 65 | 1011.6 |
| 20260507151224 | 58 | 340 | 3.5 | 8.7 | 0.00 | 0.02 | 0.01 | 66 | 1011.7 |
| 20260507151124 | 58 | 269 | 3.5 | 7.8 | 0.00 | 0.02 | 0.01 | 66 | 1011.6 |
| 20260507151102 | 58 | 310 | 3.5 | 7.8 | 0.00 | 0.02 | 0.01 | 65 | 1011.6 |
| 20260507151025 | 58 | 280 | 3.5 | 7.8 | 0.00 | 0.02 | 0.01 | 65 | 1011.6 |
| 20260507150924 | 58 | 298 | 4.3 | 9.6 | 0.00 | 0.02 | 0.01 | 65 | 1011.7 |
| 20260507150833 | 59 | 294 | 5.2 | 9.6 | 0.00 | 0.02 | 0.01 | 64 | 1011.7 |
| 20260507150825 | 59 | 302 | 4.3 | 9.6 | 0.00 | 0.02 | 0.01 | 65 | 1011.7 |
| 20260507150821 | 59 | 309 | 4.3 | 9.6 | 0.00 | 0.02 | 0.01 | 64 | 1011.7 |
| 20260507150817 | 59 | 307 | 5.2 | 9.6 | 0.00 | 0.02 | 0.01 | 64 | 1011.7 |
| 20260507150525 | 59 | 310 | 5.2 | 10.4 | 0.00 | 0.02 | 0.01 | 64 | 1011.7 |
| 20260507150425 | 59 | 318 | 6.1 | 10.4 | 0.00 | 0.02 | 0.01 | 63 | 1011.7 |
| 20260507150324 | 59 | 321 | 6.1 | 11.3 | 0.00 | 0.02 | 0.01 | 63 | 1011.7 |
| 20260507150224 | 59 | 313 | 6.1 | 11.3 | 0.00 | 0.02 | 0.01 | 63 | 1011.7 |
| 20260507150124 | 59 | 302 | 6.1 | 11.3 | 0.00 | 0.02 | 0.01 | 62 | 1011.8 |
| 20260507150101 | 59 | 327 | 6.1 | 11.3 | 0.00 | 0.02 | 0.01 | 63 | 1011.8 |
| 20260507150018 | 59 | 299 | 6.1 | 11.3 | 0.00 | 0.02 | 0.01 | 63 | 1011.8 |
| 20260507145918 | 60 | 342 | 6.1 | 11.3 | 0.00 | 0.02 | 0.01 | 62 | 1011.7 |
| 20260507145831 | 60 | 335 | 5.2 | 11.3 | 0.00 | 0.02 | 0.01 | 62 | 1011.7 |
| 20260507145824 | 60 | 281 | 6.1 | 11.3 | 0.00 | 0.02 | 0.01 | 62 | 1011.8 |
| 20260507145820 | 60 | 321 | 5.2 | 11.3 | 0.00 | 0.02 | 0.01 | 62 | 1011.7 |
| 20260507145816 | 60 | 290 | 5.2 | 11.3 | 0.00 | 0.02 | 0.01 | 62 | 1011.7 |
| 20260507145514 | 60 | 315 | 5.2 | 11.3 | 0.00 | 0.02 | 0.01 | 62 | 1011.6 |
| 20260507145329 | 60 | 288 | 5.2 | 10.4 | 0.00 | 0.02 | 0.01 | 63 | 1011.8 |
| 20260507145324 | 60 | 281 | 5.2 | 10.4 | 0.00 | 0.02 | 0.01 | 63 | 1011.7 |
| 20260507145319 | 60 | 289 | 4.3 | 10.4 | 0.00 | 0.02 | 0.01 | 63 | 1011.7 |
| 20260507145315 | 60 | 341 | 5.2 | 10.4 | 0.00 | 0.02 | 0.01 | 63 | 1011.8 |
| 20260507145013 | 60 | 313 | 4.3 | 9.6 | 0.00 | 0.02 | 0.01 | 63 | 1011.6 |
| 20260507144912 | 60 | 309 | 5.2 | 9.6 | 0.00 | 0.02 | 0.01 | 63 | 1011.6 |
| 20260507144812 | 60 | 309 | 5.2 | 9.6 | 0.00 | 0.02 | 0.01 | 63 | 1011.6 |
| 20260507144708 | 60 | 311 | 5.2 | 10.4 | 0.00 | 0.02 | 0.01 | 64 | 1011.6 |
| 20260507144606 | 59 | 5 | 5.2 | 10.4 | 0.00 | 0.02 | 0.01 | 64 | 1011.6 |
| 20260507144601 | 59 | 313 | 5.2 | 10.4 | 0.00 | 0.02 | 0.01 | 64 | 1011.6 |
| 20260507144505 | 59 | 316 | 5.2 | 10.4 | 0.00 | 0.02 | 0.01 | 64 | 1011.6 |
| 20260507144403 | 59 | 329 | 5.2 | 10.4 | 0.00 | 0.02 | 0.01 | 65 | 1011.6 |
| 20260507144303 | 59 | 311 | 5.2 | 10.4 | 0.00 | 0.02 | 0.01 | 65 | 1011.6 |
| 20260507144202 | 59 | 301 | 5.2 | 10.4 | 0.00 | 0.02 | 0.01 | 65 | 1011.7 |
| 20260507144102 | 59 | 318 | 5.2 | 10.4 | 0.00 | 0.02 | 0.01 | 66 | 1011.6 |
| 20260507144057 | 59 | 329 | 5.2 | 10.4 | 0.00 | 0.02 | 0.01 | 66 | 1011.6 |
| 20260507144002 | 58 | 331 | 5.2 | 10.4 | 0.00 | 0.02 | 0.01 | 66 | 1011.6 |
| 20260507143902 | 58 | 319 | 5.2 | 10.4 | 0.00 | 0.02 | 0.01 | 65 | 1011.6 |
| 20260507143802 | 58 | 336 | 5.2 | 10.4 | 0.00 | 0.02 | 0.01 | 65 | 1011.6 |
| 20260507143702 | 58 | 298 | 4.3 | 10.4 | 0.00 | 0.02 | 0.01 | 65 | 1011.6 |
| 20260507143601 | 58 | 351 | 4.3 | 10.4 | 0.00 | 0.02 | 0.01 | 65 | 1011.6 |
| 20260507143552 | 58 | 293 | 5.2 | 10.4 | 0.00 | 0.02 | 0.01 | 65 | 1011.7 |
| 20260507143502 | 58 | 286 | 5.2 | 10.4 | 0.00 | 0.02 | 0.01 | 65 | 1011.7 |
| 20260507143401 | 58 | 328 | 5.2 | 10.4 | 0.00 | 0.02 | 0.01 | 65 | 1011.7 |
| 20260507143301 | 58 | 290 | 5.2 | 10.4 | 0.00 | 0.02 | 0.01 | 64 | 1011.7 |
| 20260507143201 | 58 | 344 | 5.2 | 10.4 | 0.00 | 0.02 | 0.01 | 65 | 1011.7 |
| 20260507143101 | 58 | 307 | 5.2 | 10.4 | 0.00 | 0.02 | 0.01 | 66 | 1011.7 |
| 20260507143048 | 58 | 292 | 5.2 | 10.4 | 0.00 | 0.02 | 0.01 | 66 | 1011.7 |
| 20260507143001 | 58 | 298 | 5.2 | 10.4 | 0.00 | 0.02 | 0.01 | 65 | 1011.7 |
| 20260507142801 | 58 | 331 | 5.2 | 10.4 | 0.00 | 0.02 | 0.01 | 65 | 1011.6 |
| 20260507142701 | 58 | 342 | 4.3 | 9.6 | 0.00 | 0.02 | 0.01 | 65 | 1011.6 |
| 20260507142601 | 58 | 305 | 4.3 | 9.6 | 0.00 | 0.02 | 0.01 | 65 | 1011.6 |
| 20260507142541 | 58 | 329 | 4.3 | 9.6 | 0.00 | 0.02 | 0.01 | 65 | 1011.6 |
| 20260507142500 | 58 | 335 | 4.3 | 9.6 | 0.00 | 0.02 | 0.01 | 66 | 1011.6 |
| 20260507142401 | 58 | 342 | 4.3 | 9.6 | 0.00 | 0.02 | 0.01 | 66 | 1011.6 |
| 20260507142301 | 58 | 313 | 4.3 | 9.6 | 0.00 | 0.02 | 0.01 | 66 | 1011.6 |
| 20260507142201 | 58 | 329 | 4.3 | 8.7 | 0.00 | 0.02 | 0.01 | 65 | 1011.7 |
| 20260507142105 | 58 | 298 | 4.3 | 8.7 | 0.00 | 0.02 | 0.01 | 65 | 1011.7 |
| 20260507142036 | 58 | 342 | 4.3 | 8.7 | 0.00 | 0.02 | 0.01 | 65 | 1011.7 |
| 20260507142001 | 58 | 326 | 4.3 | 7.8 | 0.00 | 0.02 | 0.01 | 65 | 1011.7 |
| 20260507141901 | 58 | 330 | 3.5 | 7.8 | 0.00 | 0.02 | 0.01 | 65 | 1011.7 |
| 20260507141809 | 58 | 247 | 4.3 | 7.8 | 0.00 | 0.02 | 0.01 | 64 | 1011.7 |
| 20260507141801 | 58 | 221 | 3.5 | 7.8 | 0.00 | 0.02 | 0.01 | 64 | 1011.7 |
| 20260507141757 | 58 | 282 | 4.3 | 7.8 | 0.00 | 0.02 | 0.01 | 64 | 1011.7 |
| 20260507141753 | 58 | 247 | 4.3 | 7.8 | 0.00 | 0.02 | 0.01 | 64 | 1011.7 |
| 20260507141501 | 58 | 247 | 4.3 | 7.8 | 0.00 | 0.02 | 0.01 | 64 | 1011.7 |
| 20260507141401 | 58 | 247 | 4.3 | 7.8 | 0.00 | 0.02 | 0.01 | 66 | 1011.8 |
| 20260507141300 | 58 | 274 | 4.3 | 7.8 | 0.00 | 0.02 | 0.01 | 65 | 1011.8 |
| 20260507141200 | 58 | 305 | 4.3 | 7.8 | 0.00 | 0.02 | 0.01 | 64 | 1011.7 |
| 20260507141102 | 58 | 320 | 4.3 | 7.8 | 0.00 | 0.02 | 0.01 | 65 | 1011.7 |
| 20260507141034 | 58 | 292 | 4.3 | 7.8 | 0.00 | 0.02 | 0.01 | 64 | 1011.7 |
| 20260507140958 | 58 | 323 | 4.3 | 7.8 | 0.00 | 0.02 | 0.01 | 64 | 1011.7 |
| 20260507140857 | 58 | 295 | 4.3 | 7.8 | 0.00 | 0.02 | 0.01 | 65 | 1011.7 |
| 20260507140756 | 58 | 294 | 4.3 | 7.8 | 0.00 | 0.02 | 0.01 | 65 | 1011.7 |
| 20260507140656 | 58 | 267 | 4.3 | 7.8 | 0.00 | 0.02 | 0.01 | 65 | 1011.7 |
| 20260507140550 | 58 | 254 | 4.3 | 7.8 | 0.00 | 0.02 | 0.01 | 65 | 1011.7 |
| 20260507140536 | 58 | 271 | 4.3 | 7.8 | 0.00 | 0.02 | 0.01 | 65 | 1011.7 |
| 20260507140451 | 58 | 247 | 4.3 | 7.8 | 0.00 | 0.02 | 0.01 | 65 | 1011.7 |
| 20260507140350 | 58 | 284 | 3.5 | 7.8 | 0.00 | 0.02 | 0.01 | 65 | 1011.7 |
| 20260507140250 | 58 | 273 | 3.5 | 7.8 | 0.00 | 0.02 | 0.01 | 66 | 1011.7 |
| 20260507140149 | 58 | 257 | 4.3 | 7.8 | 0.00 | 0.02 | 0.01 | 66 | 1011.8 |
| 20260507140046 | 58 | 304 | 3.5 | 7.8 | 0.00 | 0.02 | 0.01 | 66 | 1011.7 |
| 20260507140035 | 58 | 250 | 3.5 | 7.8 | 0.00 | 0.02 | 0.01 | 66 | 1011.7 |
| 20260507135946 | 58 | 335 | 4.3 | 7.8 | 0.00 | 0.02 | 0.01 | 66 | 1011.7 |
| 20260507135847 | 58 | 309 | 4.3 | 11.3 | 0.00 | 0.02 | 0.01 | 67 | 1011.7 |
| 20260507135744 | 58 | 325 | 4.3 | 11.3 | 0.00 | 0.02 | 0.01 | 66 | 1011.7 |
| 20260507135643 | 58 | 316 | 4.3 | 11.3 | 0.00 | 0.02 | 0.01 | 66 | 1011.7 |
| 20260507135538 | 58 | 261 | 4.3 | 11.3 | 0.00 | 0.02 | 0.01 | 66 | 1011.8 |
| 20260507135534 | 58 | 253 | 4.3 | 11.3 | 0.00 | 0.02 | 0.01 | 66 | 1011.8 |
| 20260507135438 | 58 | 314 | 4.3 | 11.3 | 0.00 | 0.02 | 0.01 | 66 | 1011.7 |
| 20260507135338 | 58 | 306 | 5.2 | 11.3 | 0.00 | 0.02 | 0.01 | 66 | 1011.8 |
| 20260507135238 | 58 | 275 | 5.2 | 11.3 | 0.00 | 0.02 | 0.01 | 66 | 1011.7 |
| 20260507135138 | 58 | 303 | 5.2 | 11.3 | 0.00 | 0.02 | 0.01 | 66 | 1011.8 |
| 20260507135034 | 58 | 293 | 5.2 | 11.3 | 0.00 | 0.02 | 0.01 | 66 | 1011.7 |
| 20260507134933 | 58 | 277 | 5.2 | 11.3 | 0.00 | 0.02 | 0.01 | 65 | 1011.9 |
| 20260507134833 | 58 | 340 | 5.2 | 9.6 | 0.00 | 0.02 | 0.01 | 65 | 1011.7 |
| 20260507134732 | 58 | 346 | 5.2 | 9.6 | 0.00 | 0.02 | 0.01 | 66 | 1011.7 |
| 20260507134631 | 58 | 283 | 5.2 | 9.6 | 0.00 | 0.02 | 0.01 | 66 | 1011.7 |
| 20260507134535 | 58 | 279 | 5.2 | 9.6 | 0.00 | 0.02 | 0.01 | 66 | 1011.7 |
| 20260507134530 | 58 | 325 | 5.2 | 9.6 | 0.00 | 0.02 | 0.01 | 66 | 1011.7 |
| 20260507134430 | 58 | 323 | 5.2 | 9.6 | 0.00 | 0.02 | 0.01 | 67 | 1011.7 |
| 20260507134330 | 58 | 288 | 5.2 | 9.6 | 0.00 | 0.02 | 0.01 | 66 | 1011.8 |
| 20260507134230 | 58 | 237 | 5.2 | 9.6 | 0.00 | 0.02 | 0.01 | 66 | 1011.8 |
| 20260507134130 | 58 | 290 | 4.3 | 9.6 | 0.00 | 0.02 | 0.01 | 67 | 1011.8 |
| 20260507134030 | 58 | 271 | 4.3 | 9.6 | 0.00 | 0.02 | 0.01 | 66 | 1011.8 |
| 20260507133929 | 58 | 323 | 4.3 | 9.6 | 0.00 | 0.02 | 0.01 | 66 | 1011.7 |
| 20260507133830 | 57 | 333 | 4.3 | 9.6 | 0.00 | 0.02 | 0.01 | 66 | 1011.7 |
| 20260507133801 | 58 | 285 | 4.3 | 9.6 | 0.00 | 0.02 | 0.01 | 67 | 1011.8 |
| 20260507133755 | 57 | 303 | 4.3 | 9.6 | 0.00 | 0.02 | 0.01 | 66 | 1011.8 |
| 20260507133751 | 58 | 301 | 4.3 | 9.6 | 0.00 | 0.02 | 0.01 | 66 | 1011.8 |
| 20260507133529 | 58 | 293 | 4.3 | 9.6 | 0.00 | 0.02 | 0.01 | 67 | 1011.8 |
| 20260507133429 | 58 | 258 | 4.3 | 9.6 | 0.00 | 0.02 | 0.01 | 67 | 1011.8 |
| 20260507133329 | 57 | 298 | 5.2 | 9.6 | 0.00 | 0.02 | 0.01 | 66 | 1011.8 |
| 20260507133229 | 58 | 266 | 5.2 | 9.6 | 0.00 | 0.02 | 0.01 | 66 | 1011.8 |
| 20260507133130 | 58 | 322 | 5.2 | 9.6 | 0.00 | 0.02 | 0.01 | 66 | 1011.9 |
| 20260507133036 | 58 | 298 | 5.2 | 9.6 | 0.00 | 0.02 | 0.01 | 66 | 1011.8 |
| 20260507133029 | 58 | 315 | 5.2 | 9.6 | 0.00 | 0.02 | 0.01 | 66 | 1011.8 |
| 20260507132929 | 58 | 310 | 4.3 | 9.6 | 0.00 | 0.02 | 0.01 | 66 | 1011.8 |
| 20260507132829 | 58 | 292 | 4.3 | 9.6 | 0.00 | 0.02 | 0.01 | 66 | 1011.8 |
| 20260507132729 | 58 | 290 | 4.3 | 9.6 | 0.00 | 0.02 | 0.01 | 66 | 1011.8 |
| 20260507132629 | 58 | 311 | 5.2 | 8.7 | 0.00 | 0.02 | 0.01 | 65 | 1011.8 |
| 20260507132533 | 58 | 346 | 4.3 | 9.6 | 0.00 | 0.02 | 0.01 | 66 | 1011.7 |
| 20260507132528 | 58 | 340 | 4.3 | 9.6 | 0.00 | 0.02 | 0.01 | 66 | 1011.7 |
| 20260507132428 | 58 | 314 | 5.2 | 9.6 | 0.00 | 0.02 | 0.01 | 65 | 1011.8 |
| 20260507132328 | 58 | 314 | 5.2 | 9.6 | 0.00 | 0.02 | 0.01 | 65 | 1011.8 |
| 20260507132229 | 58 | 290 | 5.2 | 9.6 | 0.00 | 0.02 | 0.01 | 65 | 1011.8 |
| 20260507132129 | 58 | 284 | 4.3 | 9.6 | 0.00 | 0.02 | 0.01 | 65 | 1011.8 |
| 20260507132028 | 58 | 320 | 5.2 | 9.6 | 0.00 | 0.02 | 0.01 | 65 | 1011.9 |
| 20260507131928 | 58 | 315 | 5.2 | 9.6 | 0.00 | 0.02 | 0.01 | 65 | 1011.8 |
| 20260507131828 | 58 | 298 | 5.2 | 9.6 | 0.00 | 0.02 | 0.01 | 64 | 1011.8 |
| 20260507131729 | 58 | 260 | 5.2 | 9.6 | 0.00 | 0.02 | 0.01 | 65 | 1011.8 |
| 20260507131629 | 58 | 281 | 4.3 | 9.6 | 0.00 | 0.02 | 0.01 | 67 | 1011.8 |
| 20260507131532 | 58 | 289 | 4.3 | 8.7 | 0.00 | 0.02 | 0.01 | 67 | 1011.8 |
| 20260507131528 | 58 | 288 | 4.3 | 8.7 | 0.00 | 0.02 | 0.01 | 67 | 1011.8 |
| 20260507131428 | 58 | 309 | 4.3 | 8.7 | 0.00 | 0.02 | 0.01 | 66 | 1011.8 |
| 20260507131228 | 58 | 313 | 4.3 | 8.7 | 0.00 | 0.02 | 0.01 | 69 | 1011.7 |
| 20260507131126 | 58 | 341 | 4.3 | 8.7 | 0.00 | 0.02 | 0.01 | 69 | 1011.7 |
| 20260507131026 | 58 | 350 | 4.3 | 8.7 | 0.00 | 0.02 | 0.01 | 69 | 1011.7 |
| 20260507130926 | 58 | 281 | 4.3 | 7.8 | 0.00 | 0.02 | 0.01 | 69 | 1011.7 |
| 20260507130826 | 57 | 338 | 4.3 | 7.8 | 0.00 | 0.02 | 0.01 | 68 | 1011.8 |
| 20260507130725 | 57 | 319 | 4.3 | 7.8 | 0.00 | 0.02 | 0.01 | 68 | 1011.8 |
| 20260507130620 | 57 | 269 | 4.3 | 11.3 | 0.00 | 0.02 | 0.01 | 67 | 1011.8 |
| 20260507130520 | 57 | 290 | 4.3 | 11.3 | 0.00 | 0.02 | 0.01 | 68 | 1011.8 |
| 20260507130420 | 57 | 309 | 4.3 | 11.3 | 0.00 | 0.02 | 0.01 | 67 | 1011.8 |
| 20260507130320 | 57 | 327 | 4.3 | 11.3 | 0.00 | 0.02 | 0.01 | 67 | 1011.8 |
| 20260507130220 | 57 | 282 | 4.3 | 11.3 | 0.00 | 0.02 | 0.01 | 69 | 1011.8 |
| 20260507130114 | 57 | 297 | 4.3 | 11.3 | 0.00 | 0.02 | 0.01 | 68 | 1011.8 |
| 20260507130029 | 57 | 305 | 4.3 | 11.3 | 0.00 | 0.02 | 0.01 | 70 | 1011.8 |
| 20260507130014 | 57 | 294 | 4.3 | 11.3 | 0.00 | 0.02 | 0.01 | 70 | 1011.8 |
| 20260507125914 | 57 | 300 | 4.3 | 11.3 | 0.00 | 0.02 | 0.01 | 70 | 1011.8 |
| 20260507125814 | 56 | 301 | 4.3 | 11.3 | 0.00 | 0.02 | 0.01 | 69 | 1011.8 |
| 20260507125713 | 56 | 306 | 4.3 | 11.3 | 0.00 | 0.02 | 0.01 | 72 | 1011.8 |
| 20260507125608 | 56 | 338 | 4.3 | 7.8 | 0.00 | 0.02 | 0.01 | 73 | 1011.8 |
| 20260507125534 | 56 | 327 | 4.3 | 7.8 | 0.00 | 0.02 | 0.01 | 72 | 1011.8 |
| 20260507125508 | 56 | 279 | 4.3 | 7.8 | 0.00 | 0.02 | 0.01 | 72 | 1011.8 |
| 20260507125408 | 56 | 303 | 4.3 | 7.8 | 0.00 | 0.02 | 0.01 | 74 | 1011.8 |
| 20260507125308 | 56 | 308 | 4.3 | 7.8 | 0.00 | 0.02 | 0.01 | 74 | 1011.8 |
| 20260507125208 | 55 | 11 | 4.3 | 7.8 | 0.00 | 0.02 | 0.01 | 73 | 1011.8 |
| 20260507125102 | 55 | 317 | 4.3 | 7.8 | 0.00 | 0.02 | 0.01 | 73 | 1011.8 |
| 20260507125030 | 55 | 301 | 4.3 | 7.8 | 0.00 | 0.02 | 0.01 | 73 | 1011.9 |
| 20260507125002 | 55 | 342 | 4.3 | 7.8 | 0.00 | 0.02 | 0.01 | 73 | 1011.9 |
| 20260507124902 | 55 | 286 | 4.3 | 7.8 | 0.00 | 0.02 | 0.01 | 73 | 1011.9 |
| 20260507124802 | 55 | 272 | 4.3 | 7.8 | 0.00 | 0.02 | 0.01 | 73 | 1012.0 |
| 20260507124701 | 55 | 277 | 4.3 | 7.8 | 0.00 | 0.02 | 0.01 | 74 | 1011.9 |
| 20260507124602 | 55 | 313 | 4.3 | 7.8 | 0.00 | 0.02 | 0.01 | 74 | 1012.0 |
| 20260507124531 | 55 | 296 | 4.3 | 7.8 | 0.00 | 0.02 | 0.01 | 74 | 1012.0 |
| 20260507124502 | 55 | 289 | 4.3 | 7.8 | 0.00 | 0.02 | 0.01 | 74 | 1012.0 |
| 20260507124402 | 55 | 302 | 4.3 | 7.8 | 0.00 | 0.02 | 0.01 | 74 | 1011.9 |
| 20260507124302 | 55 | 321 | 4.3 | 7.8 | 0.00 | 0.02 | 0.01 | 75 | 1011.9 |
| 20260507124202 | 55 | 302 | 4.3 | 8.7 | 0.00 | 0.02 | 0.01 | 75 | 1011.9 |
| 20260507124101 | 55 | 282 | 4.3 | 8.7 | 0.00 | 0.02 | 0.01 | 76 | 1012.0 |
| 20260507124030 | 55 | 305 | 4.3 | 8.7 | 0.00 | 0.02 | 0.01 | 76 | 1012.0 |
| 20260507124001 | 54 | 294 | 4.3 | 8.7 | 0.00 | 0.02 | 0.01 | 77 | 1012.0 |
| 20260507123901 | 54 | 291 | 4.3 | 8.7 | 0.00 | 0.02 | 0.01 | 76 | 1012.0 |
| 20260507123801 | 54 | 284 | 4.3 | 8.7 | 0.00 | 0.02 | 0.01 | 76 | 1012.0 |
| 20260507123701 | 54 | 286 | 4.3 | 8.7 | 0.00 | 0.02 | 0.01 | 76 | 1011.9 |
| 20260507123601 | 54 | 348 | 4.3 | 8.7 | 0.00 | 0.02 | 0.01 | 77 | 1011.9 |
| 20260507123529 | 54 | 310 | 4.3 | 8.7 | 0.00 | 0.02 | 0.01 | 77 | 1011.9 |
| 20260507123501 | 54 | 317 | 4.3 | 8.7 | 0.00 | 0.02 | 0.01 | 77 | 1011.9 |
| 20260507123402 | 54 | 312 | 4.3 | 8.7 | 0.00 | 0.02 | 0.01 | 77 | 1011.9 |
| 20260507123301 | 53 | 343 | 4.3 | 8.7 | 0.00 | 0.02 | 0.01 | 78 | 1011.9 |
| 20260507123201 | 53 | 301 | 4.3 | 7.8 | 0.00 | 0.02 | 0.01 | 78 | 1011.9 |
| 20260507123101 | 53 | 311 | 4.3 | 8.7 | 0.00 | 0.02 | 0.01 | 77 | 1011.9 |
| 20260507123029 | 53 | 300 | 4.3 | 8.7 | 0.00 | 0.02 | 0.01 | 78 | 1011.9 |
| 20260507123001 | 53 | 343 | 4.3 | 8.7 | 0.00 | 0.02 | 0.01 | 78 | 1011.9 |
| 20260507122801 | 53 | 343 | 4.3 | 8.7 | 0.00 | 0.02 | 0.01 | 78 | 1011.9 |
| 20260507122701 | 53 | 271 | 4.3 | 8.7 | 0.00 | 0.02 | 0.01 | 78 | 1011.9 |
| 20260507122601 | 53 | 318 | 4.3 | 8.7 | 0.00 | 0.02 | 0.01 | 78 | 1011.9 |
| 20260507122529 | 53 | 299 | 4.3 | 8.7 | 0.00 | 0.02 | 0.01 | 78 | 1011.9 |
| 20260507122500 | 53 | 302 | 4.3 | 8.7 | 0.00 | 0.02 | 0.01 | 78 | 1011.9 |
| 20260507122401 | 53 | 312 | 4.3 | 9.6 | 0.00 | 0.02 | 0.01 | 78 | 1011.9 |
| 20260507122306 | 53 | 281 | 4.3 | 10.4 | 0.00 | 0.02 | 0.01 | 77 | 1011.9 |
| 20260507122201 | 53 | 340 | 5.2 | 10.4 | 0.00 | 0.02 | 0.01 | 77 | 1011.9 |
| 20260507122101 | 53 | 330 | 5.2 | 10.4 | 0.00 | 0.02 | 0.01 | 77 | 1011.8 |
| 20260507122029 | 53 | 338 | 5.2 | 10.4 | 0.00 | 0.02 | 0.01 | 76 | 1011.8 |
| 20260507122001 | 53 | 292 | 5.2 | 10.4 | 0.00 | 0.02 | 0.01 | 76 | 1011.8 |
| 20260507121901 | 54 | 300 | 6.1 | 10.4 | 0.00 | 0.02 | 0.01 | 76 | 1011.9 |
| 20260507121801 | 54 | 342 | 6.1 | 13.0 | 0.00 | 0.02 | 0.01 | 76 | 1011.8 |
| 20260507121701 | 54 | 328 | 7.0 | 13.0 | 0.00 | 0.02 | 0.01 | 75 | 1011.8 |
| 20260507121601 | 54 | 340 | 7.0 | 13.0 | 0.00 | 0.02 | 0.01 | 75 | 1011.9 |
| 20260507121529 | 54 | 310 | 7.8 | 13.0 | 0.00 | 0.02 | 0.01 | 75 | 1011.8 |
| 20260507121500 | 54 | 329 | 7.8 | 13.0 | 0.00 | 0.02 | 0.01 | 74 | 1011.8 |
| 20260507121400 | 54 | 321 | 7.8 | 13.0 | 0.00 | 0.02 | 0.01 | 75 | 1011.9 |
| 20260507121300 | 55 | 327 | 7.0 | 13.0 | 0.00 | 0.02 | 0.01 | 75 | 1011.9 |
| 20260507121200 | 55 | 294 | 7.0 | 13.0 | 0.00 | 0.02 | 0.01 | 74 | 1011.9 |
| 20260507121101 | 55 | 319 | 7.8 | 13.0 | 0.00 | 0.02 | 0.01 | 73 | 1011.8 |
| 20260507121029 | 55 | 322 | 7.8 | 13.0 | 0.00 | 0.02 | 0.01 | 73 | 1011.8 |
| 20260507121001 | 55 | 302 | 7.8 | 13.0 | 0.00 | 0.02 | 0.01 | 73 | 1011.8 |
| 20260507120901 | 55 | 342 | 7.0 | 13.0 | 0.00 | 0.02 | 0.01 | 73 | 1011.7 |
| 20260507120801 | 55 | 333 | 7.0 | 12.2 | 0.00 | 0.02 | 0.01 | 73 | 1011.8 |
| 20260507120756 | 56 | 319 | 6.1 | 11.3 | 0.00 | 0.02 | 0.01 | 73 | 1011.8 |
| 20260507120744 | 56 | 320 | 7.0 | 12.2 | 0.00 | 0.02 | 0.01 | 73 | 1011.8 |
| 20260507120740 | 56 | 316 | 7.0 | 12.2 | 0.00 | 0.02 | 0.01 | 73 | 1011.8 |
| 20260507120526 | 56 | 317 | 5.2 | 11.3 | 0.00 | 0.02 | 0.01 | 73 | 1011.7 |
| 20260507120519 | 56 | 334 | 6.1 | 11.3 | 0.00 | 0.02 | 0.01 | 72 | 1011.8 |
| 20260507120511 | 56 | 311 | 6.1 | 11.3 | 0.00 | 0.02 | 0.01 | 73 | 1011.8 |
| 20260507120507 | 56 | 319 | 6.1 | 11.3 | 0.00 | 0.02 | 0.01 | 73 | 1011.8 |
| 20260507120245 | 56 | 331 | 6.1 | 11.3 | 0.00 | 0.02 | 0.01 | 73 | 1011.9 |
| 20260507120241 | 56 | 296 | 5.2 | 11.3 | 0.00 | 0.02 | 0.01 | 73 | 1011.8 |
| 20260507120008 | 56 | 341 | 5.2 | 11.3 | 0.00 | 0.02 | 0.01 | 72 | 1011.7 |
| 20260507115900 | 56 | 308 | 5.2 | 11.3 | 0.00 | 0.02 | 0.01 | 71 | 1011.7 |
| 20260507115801 | 56 | 326 | 4.3 | 11.3 | 0.00 | 0.02 | 0.01 | 71 | 1011.7 |
| 20260507115601 | 56 | 303 | 4.3 | 8.7 | 0.00 | 0.02 | 0.01 | 72 | 1011.6 |
| 20260507115528 | 55 | 305 | 4.3 | 8.7 | 0.00 | 0.02 | 0.01 | 73 | 1011.6 |
| 20260507115502 | 55 | 298 | 4.3 | 8.7 | 0.00 | 0.02 | 0.01 | 73 | 1011.6 |
| 20260507115401 | 55 | 284 | 4.3 | 8.7 | 0.00 | 0.02 | 0.01 | 73 | 1011.8 |
| 20260507115301 | 55 | 259 | 4.3 | 7.8 | 0.00 | 0.02 | 0.01 | 72 | 1011.6 |
| 20260507115201 | 55 | 278 | 4.3 | 7.8 | 0.00 | 0.02 | 0.01 | 72 | 1011.6 |
| 20260507115101 | 54 | 265 | 4.3 | 7.8 | 0.00 | 0.02 | 0.01 | 73 | 1011.7 |
| 20260507115029 | 54 | 269 | 4.3 | 7.8 | 0.00 | 0.02 | 0.01 | 74 | 1011.7 |
| 20260507115000 | 54 | 258 | 4.3 | 7.8 | 0.00 | 0.02 | 0.01 | 74 | 1011.7 |
| 20260507114900 | 54 | 292 | 4.3 | 7.8 | 0.00 | 0.02 | 0.01 | 74 | 1011.7 |
| 20260507114801 | 54 | 280 | 4.3 | 7.8 | 0.00 | 0.02 | 0.01 | 73 | 1011.8 |
| 20260507114701 | 54 | 267 | 5.2 | 7.8 | 0.00 | 0.02 | 0.01 | 73 | 1011.8 |
| 20260507114601 | 54 | 299 | 5.2 | 8.7 | 0.00 | 0.02 | 0.01 | 73 | 1011.8 |
| 20260507114528 | 54 | 259 | 5.2 | 8.7 | 0.00 | 0.02 | 0.01 | 73 | 1011.9 |
| 20260507114501 | 54 | 245 | 5.2 | 8.7 | 0.00 | 0.02 | 0.01 | 73 | 1011.9 |
| 20260507114400 | 54 | 273 | 5.2 | 9.6 | 0.00 | 0.02 | 0.01 | 73 | 1011.8 |
| 20260507114300 | 54 | 259 | 5.2 | 9.6 | 0.00 | 0.02 | 0.01 | 73 | 1011.9 |
| 20260507114250 | 53 | 281 | 5.2 | 9.6 | 0.00 | 0.02 | 0.01 | 73 | 1011.9 |
| 20260507114245 | 53 | 259 | 5.2 | 9.6 | 0.00 | 0.02 | 0.01 | 73 | 1011.8 |
| 20260507114241 | 53 | 288 | 6.1 | 9.6 | 0.00 | 0.02 | 0.01 | 73 | 1011.9 |
| 20260507114002 | 53 | 261 | 5.2 | 9.6 | 0.00 | 0.02 | 0.01 | 73 | 1011.9 |
| 20260507113902 | 53 | 265 | 6.1 | 9.6 | 0.00 | 0.02 | 0.01 | 73 | 1011.9 |
| 20260507113801 | 53 | 291 | 6.1 | 9.6 | 0.00 | 0.02 | 0.01 | 72 | 1011.9 |
| 20260507113749 | 53 | 281 | 5.2 | 9.6 | 0.00 | 0.02 | 0.01 | 72 | 1011.9 |
| 20260507113742 | 53 | 249 | 6.1 | 9.6 | 0.00 | 0.02 | 0.01 | 73 | 1011.9 |
| 20260507113738 | 53 | 284 | 6.1 | 9.6 | 0.00 | 0.02 | 0.01 | 73 | 1011.9 |
| 20260507113734 | 53 | 265 | 6.1 | 9.6 | 0.00 | 0.02 | 0.01 | 73 | 1011.9 |
| 20260507113518 | 53 | 276 | 6.1 | 9.6 | 0.00 | 0.02 | 0.01 | 73 | 1011.9 |
| 20260507113510 | 53 | 261 | 6.1 | 9.6 | 0.00 | 0.02 | 0.01 | 72 | 1011.9 |
| 20260507113506 | 53 | 258 | 6.1 | 9.6 | 0.00 | 0.02 | 0.01 | 72 | 1011.9 |
| 20260507113245 | 53 | 261 | 5.2 | 9.6 | 0.00 | 0.02 | 0.01 | 73 | 1011.8 |
| 20260507113241 | 53 | 254 | 5.2 | 9.6 | 0.00 | 0.02 | 0.01 | 73 | 1011.8 |
| 20260507113001 | 54 | 246 | 5.2 | 9.6 | 0.00 | 0.02 | 0.01 | 72 | 1011.9 |
| 20260507112901 | 54 | 284 | 5.2 | 9.6 | 0.00 | 0.02 | 0.01 | 72 | 1011.9 |
| 20260507112801 | 54 | 260 | 5.2 | 8.7 | 0.00 | 0.02 | 0.01 | 72 | 1011.9 |
| 20260507112701 | 54 | 267 | 5.2 | 8.7 | 0.00 | 0.02 | 0.01 | 72 | 1011.9 |
| 20260507112601 | 54 | 270 | 5.2 | 8.7 | 0.00 | 0.02 | 0.01 | 72 | 1011.9 |
| 20260507112525 | 54 | 263 | 5.2 | 8.7 | 0.00 | 0.02 | 0.01 | 72 | 1011.8 |
| 20260507112501 | 54 | 258 | 5.2 | 8.7 | 0.00 | 0.02 | 0.01 | 72 | 1011.8 |
| 20260507112401 | 54 | 248 | 5.2 | 8.7 | 0.00 | 0.02 | 0.01 | 72 | 1011.9 |
| 20260507112301 | 54 | 269 | 5.2 | 8.7 | 0.00 | 0.02 | 0.01 | 73 | 1011.9 |
| 20260507112200 | 54 | 262 | 5.2 | 8.7 | 0.00 | 0.02 | 0.01 | 73 | 1011.8 |
| 20260507112056 | 54 | 311 | 5.2 | 10.4 | 0.00 | 0.02 | 0.01 | 74 | 1011.8 |
| 20260507112020 | 54 | 323 | 5.2 | 10.4 | 0.00 | 0.02 | 0.01 | 74 | 1011.8 |
| 20260507111956 | 54 | 267 | 5.2 | 10.4 | 0.00 | 0.02 | 0.01 | 74 | 1011.8 |
| 20260507111856 | 54 | 284 | 5.2 | 10.4 | 0.00 | 0.02 | 0.01 | 73 | 1011.9 |
| 20260507111756 | 54 | 258 | 5.2 | 10.4 | 0.00 | 0.02 | 0.01 | 73 | 1011.9 |
| 20260507111656 | 54 | 271 | 5.2 | 10.4 | 0.00 | 0.02 | 0.01 | 73 | 1011.8 |
| 20260507111550 | 54 | 286 | 4.3 | 10.4 | 0.00 | 0.02 | 0.01 | 73 | 1011.9 |
| 20260507111514 | 54 | 281 | 4.3 | 10.4 | 0.00 | 0.02 | 0.01 | 74 | 1011.9 |
| 20260507111449 | 54 | 251 | 5.2 | 10.4 | 0.00 | 0.02 | 0.01 | 74 | 1011.8 |
| 20260507111350 | 54 | 260 | 5.2 | 10.4 | 0.00 | 0.02 | 0.01 | 73 | 1011.8 |
| 20260507111250 | 54 | 249 | 4.3 | 10.4 | 0.00 | 0.02 | 0.01 | 74 | 1011.8 |
| 20260507111235 | 54 | 259 | 4.3 | 9.6 | 0.00 | 0.02 | 0.01 | 76 | 1011.8 |
| 20260507111222 | 54 | 234 | 4.3 | 9.6 | 0.00 | 0.02 | 0.01 | 74 | 1011.8 |
| 20260507111218 | 54 | 275 | 4.3 | 9.6 | 0.00 | 0.02 | 0.01 | 75 | 1011.8 |
| 20260507110944 | 54 | 257 | 5.2 | 9.6 | 0.00 | 0.02 | 0.01 | 76 | 1011.7 |
| 20260507110844 | 54 | 291 | 5.2 | 9.6 | 0.00 | 0.02 | 0.01 | 75 | 1011.8 |
| 20260507110743 | 54 | 277 | 5.2 | 9.6 | 0.00 | 0.02 | 0.01 | 76 | 1011.8 |
| 20260507110643 | 54 | 248 | 5.2 | 9.6 | 0.00 | 0.02 | 0.01 | 76 | 1011.8 |
| 20260507110538 | 55 | 235 | 5.2 | 9.6 | 0.00 | 0.02 | 0.01 | 75 | 1011.8 |
| 20260507110508 | 55 | 258 | 5.2 | 9.6 | 0.00 | 0.02 | 0.01 | 75 | 1011.8 |
| 20260507110442 | 55 | 261 | 5.2 | 9.6 | 0.00 | 0.02 | 0.01 | 75 | 1011.8 |
| 20260507110338 | 55 | 254 | 5.2 | 9.6 | 0.00 | 0.02 | 0.01 | 73 | 1011.9 |
| 20260507110237 | 55 | 286 | 5.2 | 9.6 | 0.00 | 0.02 | 0.01 | 73 | 1011.8 |
| 20260507110137 | 55 | 242 | 5.2 | 9.6 | 0.00 | 0.02 | 0.01 | 73 | 1011.8 |
| 20260507110032 | 55 | 256 | 5.2 | 9.6 | 0.00 | 0.02 | 0.01 | 74 | 1011.9 |
| 20260507110006 | 55 | 233 | 5.2 | 9.6 | 0.00 | 0.02 | 0.01 | 74 | 1011.9 |
| 20260507105932 | 55 | 254 | 5.2 | 9.6 | 0.00 | 0.02 | 0.01 | 74 | 1011.8 |
| 20260507105832 | 55 | 257 | 5.2 | 9.6 | 0.00 | 0.02 | 0.01 | 73 | 1011.8 |
| 20260507105733 | 55 | 285 | 5.2 | 9.6 | 0.00 | 0.02 | 0.01 | 73 | 1011.8 |
| 20260507105631 | 55 | 225 | 5.2 | 9.6 | 0.00 | 0.02 | 0.01 | 73 | 1011.8 |
| 20260507105531 | 55 | 227 | 5.2 | 9.6 | 0.00 | 0.02 | 0.01 | 73 | 1011.8 |
| 20260507105504 | 55 | 283 | 5.2 | 9.6 | 0.00 | 0.02 | 0.01 | 73 | 1011.8 |
| 20260507105432 | 55 | 203 | 5.2 | 9.6 | 0.00 | 0.02 | 0.01 | 73 | 1011.8 |
| 20260507105332 | 55 | 242 | 6.1 | 13.0 | 0.00 | 0.02 | 0.01 | 72 | 1011.9 |
| 20260507105232 | 55 | 218 | 6.1 | 13.0 | 0.00 | 0.02 | 0.01 | 73 | 1011.9 |
| 20260507105130 | 55 | 227 | 6.1 | 13.0 | 0.00 | 0.02 | 0.01 | 73 | 1011.8 |
| 20260507105002 | 55 | 229 | 6.1 | 13.0 | 0.00 | 0.02 | 0.01 | 73 | 1012.0 |
| 20260507104930 | 55 | 200 | 6.1 | 13.0 | 0.00 | 0.02 | 0.01 | 73 | 1011.9 |
| 20260507104829 | 55 | 214 | 6.1 | 13.0 | 0.00 | 0.02 | 0.01 | 74 | 1011.9 |
| 20260507104729 | 55 | 252 | 6.1 | 13.0 | 0.00 | 0.02 | 0.01 | 73 | 1011.9 |
| 20260507104629 | 55 | 277 | 6.1 | 13.0 | 0.00 | 0.02 | 0.01 | 75 | 1011.9 |
| 20260507104530 | 55 | 240 | 5.2 | 13.0 | 0.00 | 0.02 | 0.01 | 74 | 1011.9 |
| 20260507104502 | 55 | 244 | 5.2 | 13.0 | 0.00 | 0.02 | 0.01 | 74 | 1011.9 |
| 20260507104434 | 54 | 250 | 5.2 | 13.0 | 0.00 | 0.02 | 0.01 | 73 | 1012.1 |
| 20260507104329 | 54 | 280 | 4.3 | 11.3 | 0.00 | 0.02 | 0.01 | 74 | 1011.9 |
| 20260507104229 | 54 | 304 | 4.3 | 9.6 | 0.00 | 0.02 | 0.01 | 74 | 1011.9 |
| 20260507104129 | 54 | 276 | 4.3 | 9.6 | 0.00 | 0.02 | 0.01 | 76 | 1011.9 |
| 20260507104029 | 54 | 245 | 5.2 | 9.6 | 0.00 | 0.02 | 0.01 | 75 | 1011.9 |
| 20260507104002 | 54 | 207 | 5.2 | 9.6 | 0.00 | 0.02 | 0.01 | 75 | 1011.9 |
| 20260507103933 | 54 | 236 | 4.3 | 9.6 | 0.00 | 0.02 | 0.01 | 75 | 1012.0 |
| 20260507103829 | 54 | 223 | 4.3 | 9.6 | 0.00 | 0.02 | 0.01 | 75 | 1012.0 |
| 20260507103729 | 54 | 234 | 4.3 | 9.6 | 0.00 | 0.02 | 0.01 | 77 | 1012.0 |
| 20260507103629 | 54 | 239 | 5.2 | 9.6 | 0.00 | 0.02 | 0.01 | 76 | 1012.0 |
| 20260507103529 | 54 | 275 | 5.2 | 9.6 | 0.00 | 0.02 | 0.01 | 76 | 1011.9 |
| 20260507103502 | 54 | 302 | 5.2 | 9.6 | 0.00 | 0.02 | 0.01 | 76 | 1011.9 |
| 20260507103429 | 53 | 244 | 5.2 | 9.6 | 0.00 | 0.02 | 0.01 | 75 | 1012.0 |
| 20260507103328 | 53 | 280 | 5.2 | 9.6 | 0.00 | 0.02 | 0.01 | 76 | 1012.1 |
| 20260507103228 | 53 | 284 | 5.2 | 8.7 | 0.00 | 0.02 | 0.01 | 76 | 1012.0 |
| 20260507103134 | 53 | 283 | 5.2 | 8.7 | 0.00 | 0.02 | 0.01 | 77 | 1012.1 |
| 20260507103029 | 53 | 244 | 5.2 | 8.7 | 0.00 | 0.02 | 0.01 | 77 | 1012.0 |
| 20260507103002 | 53 | 226 | 5.2 | 8.7 | 0.00 | 0.02 | 0.01 | 77 | 1012.0 |
| 20260507102929 | 53 | 274 | 5.2 | 8.7 | 0.00 | 0.02 | 0.01 | 77 | 1012.0 |
| 20260507102828 | 53 | 237 | 5.2 | 8.7 | 0.00 | 0.02 | 0.01 | 77 | 1012.0 |
| 20260507102729 | 53 | 235 | 5.2 | 8.7 | 0.00 | 0.02 | 0.01 | 77 | 1012.0 |
| 20260507102629 | 53 | 275 | 4.3 | 8.7 | 0.00 | 0.02 | 0.01 | 76 | 1012.0 |
| 20260507102529 | 53 | 267 | 4.3 | 8.7 | 0.00 | 0.02 | 0.01 | 76 | 1012.0 |
| 20260507102501 | 53 | 249 | 4.3 | 8.7 | 0.00 | 0.02 | 0.01 | 77 | 1012.0 |
| 20260507102429 | 53 | 259 | 4.3 | 8.7 | 0.00 | 0.02 | 0.01 | 77 | 1012.0 |
| 20260507102329 | 53 | 256 | 4.3 | 8.7 | 0.00 | 0.02 | 0.01 | 77 | 1012.0 |
| 20260507102229 | 53 | 284 | 5.2 | 8.7 | 0.00 | 0.02 | 0.01 | 77 | 1012.0 |
| 20260507102128 | 53 | 288 | 5.2 | 9.6 | 0.00 | 0.02 | 0.01 | 77 | 1012.0 |
| 20260507102026 | 53 | 283 | 5.2 | 9.6 | 0.00 | 0.02 | 0.01 | 77 | 1012.0 |
| 20260507102002 | 53 | 248 | 5.2 | 9.6 | 0.00 | 0.02 | 0.01 | 77 | 1012.0 |
| 20260507101925 | 53 | 241 | 5.2 | 9.6 | 0.00 | 0.02 | 0.01 | 77 | 1012.1 |
| 20260507101825 | 53 | 265 | 5.2 | 9.6 | 0.00 | 0.02 | 0.01 | 77 | 1012.0 |
| 20260507101725 | 53 | 261 | 5.2 | 9.6 | 0.00 | 0.02 | 0.01 | 76 | 1012.0 |
| 20260507101620 | 53 | 266 | 6.1 | 9.6 | 0.00 | 0.02 | 0.01 | 76 | 1012.0 |
| 20260507101520 | 53 | 276 | 6.1 | 9.6 | 0.00 | 0.02 | 0.01 | 75 | 1012.1 |
| 20260507101502 | 53 | 242 | 6.1 | 9.6 | 0.00 | 0.02 | 0.01 | 75 | 1012.1 |
| 20260507101420 | 53 | 255 | 6.1 | 9.6 | 0.00 | 0.02 | 0.01 | 75 | 1012.1 |
| 20260507101319 | 53 | 254 | 6.1 | 9.6 | 0.00 | 0.02 | 0.01 | 75 | 1012.1 |
| 20260507101219 | 53 | 252 | 6.1 | 9.6 | 0.00 | 0.02 | 0.01 | 76 | 1012.1 |
| 20260507101114 | 53 | 255 | 6.1 | 9.6 | 0.00 | 0.02 | 0.01 | 77 | 1012.0 |
| 20260507101014 | 53 | 257 | 5.2 | 9.6 | 0.01 | 0.02 | 0.01 | 76 | 1012.0 |
| 20260507101002 | 53 | 230 | 5.2 | 9.6 | 0.01 | 0.02 | 0.01 | 76 | 1012.0 |
| 20260507100914 | 53 | 241 | 5.2 | 9.6 | 0.01 | 0.02 | 0.01 | 76 | 1012.0 |
| 20260507100814 | 53 | 220 | 5.2 | 9.6 | 0.01 | 0.02 | 0.01 | 77 | 1012.0 |
| 20260507100726 | 53 | 275 | 5.2 | 9.6 | 0.01 | 0.02 | 0.01 | 76 | 1012.0 |
| 20260507100721 | 53 | 246 | 6.1 | 9.6 | 0.01 | 0.02 | 0.01 | 76 | 1012.0 |
| 20260507100717 | 53 | 255 | 6.1 | 9.6 | 0.01 | 0.02 | 0.01 | 77 | 1012.0 |
| 20260507100713 | 53 | 255 | 5.2 | 9.6 | 0.01 | 0.02 | 0.01 | 76 | 1012.0 |
| 20260507100408 | 53 | 257 | 5.2 | 9.6 | 0.01 | 0.02 | 0.01 | 77 | 1012.0 |
| 20260507100308 | 53 | 260 | 6.1 | 10.4 | 0.01 | 0.02 | 0.01 | 76 | 1012.0 |
| 20260507100208 | 53 | 267 | 6.1 | 11.3 | 0.01 | 0.02 | 0.01 | 78 | 1012.0 |
| 20260507100103 | 53 | 269 | 6.1 | 11.3 | 0.01 | 0.02 | 0.01 | 79 | 1011.9 |
| 20260507100000 | 53 | 240 | 6.1 | 11.3 | 0.01 | 0.02 | 0.01 | 79 | 1012.0 |
| 20260507095903 | 53 | 300 | 6.1 | 11.3 | 0.01 | 0.02 | 0.01 | 78 | 1011.9 |
| 20260507095803 | 53 | 265 | 6.1 | 11.3 | 0.01 | 0.02 | 0.01 | 78 | 1012.0 |
| 20260507095703 | 53 | 267 | 6.1 | 11.3 | 0.01 | 0.02 | 0.01 | 79 | 1012.0 |
| 20260507095604 | 53 | 241 | 5.2 | 11.3 | 0.01 | 0.02 | 0.01 | 81 | 1012.1 |
| 20260507095505 | 53 | 271 | 5.2 | 11.3 | 0.01 | 0.02 | 0.01 | 80 | 1012.0 |
| 20260507095501 | 53 | 261 | 5.2 | 11.3 | 0.01 | 0.02 | 0.01 | 80 | 1012.0 |
| 20260507095404 | 53 | 215 | 5.2 | 11.3 | 0.01 | 0.02 | 0.01 | 81 | 1012.1 |
| 20260507095306 | 53 | 252 | 4.3 | 11.3 | 0.01 | 0.02 | 0.01 | 80 | 1012.0 |
| 20260507095224 | 52 | 261 | 4.3 | 9.6 | 0.01 | 0.02 | 0.01 | 80 | 1012.0 |
| 20260507095220 | 53 | 221 | 4.3 | 9.6 | 0.01 | 0.02 | 0.01 | 80 | 1012.0 |
| 20260507095216 | 53 | 262 | 5.2 | 9.6 | 0.01 | 0.02 | 0.01 | 81 | 1012.0 |
| 20260507095212 | 52 | 227 | 4.3 | 9.6 | 0.01 | 0.02 | 0.01 | 80 | 1012.0 |
| 20260507094904 | 52 | 248 | 5.2 | 9.6 | 0.01 | 0.02 | 0.01 | 81 | 1012.0 |
| 20260507094804 | 52 | 221 | 5.2 | 10.4 | 0.01 | 0.02 | 0.01 | 82 | 1012.0 |
| 20260507094704 | 52 | 246 | 5.2 | 10.4 | 0.01 | 0.02 | 0.01 | 82 | 1012.0 |
| 20260507094602 | 52 | 232 | 5.2 | 10.4 | 0.01 | 0.02 | 0.01 | 83 | 1011.9 |
| 20260507094502 | 52 | 262 | 5.2 | 10.4 | 0.01 | 0.02 | 0.01 | 81 | 1012.0 |
| 20260507094401 | 52 | 247 | 5.2 | 10.4 | 0.01 | 0.02 | 0.01 | 82 | 1012.0 |
| 20260507094302 | 52 | 238 | 5.2 | 10.4 | 0.01 | 0.02 | 0.01 | 82 | 1011.9 |
| 20260507094201 | 52 | 238 | 5.2 | 10.4 | 0.01 | 0.02 | 0.01 | 82 | 1012.1 |
| 20260507094101 | 52 | 286 | 4.3 | 10.4 | 0.01 | 0.02 | 0.01 | 83 | 1012.0 |
| 20260507094001 | 52 | 272 | 4.3 | 10.4 | 0.01 | 0.02 | 0.01 | 82 | 1012.0 |
| 20260507093901 | 52 | 253 | 4.3 | 10.4 | 0.01 | 0.02 | 0.01 | 81 | 1012.0 |
| 20260507093801 | 52 | 261 | 4.3 | 8.7 | 0.01 | 0.02 | 0.01 | 82 | 1012.0 |
| 20260507093701 | 52 | 235 | 3.5 | 8.7 | 0.01 | 0.02 | 0.01 | 83 | 1012.0 |
| 20260507093601 | 51 | 277 | 3.5 | 7.8 | 0.01 | 0.02 | 0.01 | 83 | 1011.9 |
| 20260507093500 | 51 | 219 | 3.5 | 7.8 | 0.01 | 0.02 | 0.01 | 84 | 1011.9 |
| 20260507093401 | 51 | 233 | 3.5 | 7.8 | 0.01 | 0.02 | 0.01 | 84 | 1011.9 |
| 20260507093301 | 51 | 229 | 3.5 | 7.8 | 0.01 | 0.02 | 0.01 | 84 | 1011.9 |
| 20260507093201 | 51 | 238 | 3.5 | 7.8 | 0.01 | 0.02 | 0.01 | 83 | 1011.9 |
| 20260507093101 | 51 | 245 | 3.5 | 7.8 | 0.01 | 0.02 | 0.01 | 84 | 1011.9 |
| 20260507093001 | 51 | 223 | 3.5 | 7.8 | 0.01 | 0.02 | 0.01 | 84 | 1011.9 |
| 20260507092901 | 51 | 235 | 3.5 | 7.8 | 0.01 | 0.02 | 0.01 | 84 | 1012.0 |
| 20260507092801 | 51 | 213 | 3.5 | 7.8 | 0.01 | 0.02 | 0.01 | 83 | 1011.9 |
| 20260507092700 | 51 | 244 | 3.5 | 8.7 | 0.01 | 0.02 | 0.01 | 83 | 1011.9 |
| 20260507092557 | 51 | 233 | 4.3 | 11.3 | 0.01 | 0.02 | 0.01 | 83 | 1011.9 |
| 20260507092502 | 51 | 218 | 4.3 | 11.3 | 0.01 | 0.02 | 0.01 | 84 | 1011.9 |
| 20260507092457 | 51 | 218 | 4.3 | 11.3 | 0.01 | 0.02 | 0.01 | 84 | 1011.9 |
| 20260507092358 | 51 | 226 | 4.3 | 11.3 | 0.01 | 0.02 | 0.01 | 85 | 1011.9 |
| 20260507092257 | 51 | 271 | 4.3 | 11.3 | 0.01 | 0.02 | 0.01 | 85 | 1011.9 |
| 20260507092154 | 51 | 262 | 4.3 | 11.3 | 0.01 | 0.02 | 0.01 | 85 | 1011.9 |
| 20260507092054 | 51 | 267 | 4.3 | 11.3 | 0.01 | 0.02 | 0.01 | 84 | 1011.8 |
| 20260507092000 | 51 | 214 | 5.2 | 11.3 | 0.01 | 0.02 | 0.01 | 84 | 1011.8 |
| 20260507091954 | 51 | 213 | 4.3 | 11.3 | 0.01 | 0.02 | 0.01 | 84 | 1011.8 |
| 20260507091854 | 51 | 239 | 4.3 | 11.3 | 0.01 | 0.02 | 0.01 | 84 | 1011.9 |
| 20260507091752 | 51 | 227 | 4.3 | 11.3 | 0.01 | 0.02 | 0.01 | 84 | 1011.9 |
| 20260507091652 | 51 | 220 | 4.3 | 11.3 | 0.01 | 0.02 | 0.01 | 85 | 1011.9 |
| 20260507091552 | 51 | 261 | 5.2 | 9.6 | 0.01 | 0.02 | 0.01 | 85 | 1011.9 |
| 20260507091502 | 51 | 229 | 5.2 | 9.6 | 0.01 | 0.02 | 0.01 | 85 | 1011.9 |
| 20260507091451 | 51 | 229 | 5.2 | 9.6 | 0.01 | 0.02 | 0.01 | 85 | 1011.8 |
| 20260507091351 | 51 | 240 | 4.3 | 9.6 | 0.01 | 0.02 | 0.01 | 85 | 1011.8 |
| 20260507091252 | 51 | 240 | 4.3 | 9.6 | 0.01 | 0.02 | 0.01 | 85 | 1011.8 |
| 20260507091152 | 51 | 240 | 4.3 | 9.6 | 0.01 | 0.02 | 0.01 | 85 | 1011.9 |
| 20260507091052 | 51 | 234 | 4.3 | 9.6 | 0.01 | 0.02 | 0.00 | 85 | 1011.8 |
| 20260507091001 | 51 | 284 | 4.3 | 9.6 | 0.00 | 0.01 | 0.00 | 84 | 1011.8 |
| 20260507090951 | 51 | 285 | 4.3 | 9.6 | 0.00 | 0.01 | 0.00 | 84 | 1011.7 |
| 20260507090851 | 51 | 223 | 5.2 | 9.6 | 0.00 | 0.01 | 0.00 | 85 | 1011.9 |
| 20260507090751 | 51 | 241 | 5.2 | 9.6 | 0.00 | 0.01 | 0.00 | 85 | 1011.8 |
| 20260507090651 | 51 | 247 | 5.2 | 12.2 | 0.00 | 0.01 | 0.00 | 85 | 1011.8 |
| 20260507090551 | 51 | 257 | 5.2 | 12.2 | 0.00 | 0.01 | 0.00 | 85 | 1011.8 |
| 20260507090501 | 51 | 277 | 5.2 | 12.2 | 0.00 | 0.01 | 0.00 | 85 | 1011.8 |
| 20260507090448 | 51 | 269 | 5.2 | 12.2 | 0.00 | 0.01 | 0.00 | 84 | 1011.7 |
| 20260507090348 | 51 | 228 | 5.2 | 12.2 | 0.00 | 0.01 | 0.00 | 85 | 1011.8 |
| 20260507090247 | 51 | 209 | 5.2 | 12.2 | 0.00 | 0.01 | 0.00 | 85 | 1011.8 |
| 20260507090147 | 51 | 248 | 5.2 | 12.2 | 0.00 | 0.01 | 0.00 | 84 | 1011.9 |
| 20260507090047 | 51 | 271 | 4.3 | 12.2 | 0.00 | 0.01 | 0.00 | 84 | 1011.7 |
| 20260507090001 | 51 | 263 | 4.3 | 12.2 | 0.00 | 0.01 | 0.00 | 83 | 1011.7 |
| 20260507085948 | 51 | 258 | 4.3 | 12.2 | 0.00 | 0.01 | 0.00 | 83 | 1011.7 |
| 20260507085848 | 51 | 248 | 4.3 | 12.2 | 0.00 | 0.01 | 0.00 | 84 | 1011.8 |
| 20260507085747 | 51 | 235 | 4.3 | 12.2 | 0.00 | 0.01 | 0.00 | 83 | 1011.7 |
| 20260507085647 | 51 | 261 | 4.3 | 10.4 | 0.00 | 0.01 | 0.00 | 83 | 1011.6 |
| 20260507085547 | 51 | 234 | 4.3 | 9.6 | 0.00 | 0.01 | 0.00 | 83 | 1011.7 |
| 20260507085500 | 51 | 208 | 4.3 | 9.6 | 0.00 | 0.01 | 0.00 | 84 | 1011.7 |
| 20260507085447 | 51 | 244 | 4.3 | 9.6 | 0.00 | 0.01 | 0.00 | 84 | 1011.6 |
| 20260507085348 | 51 | 220 | 4.3 | 10.4 | 0.00 | 0.01 | 0.00 | 84 | 1011.6 |
| 20260507085248 | 51 | 213 | 4.3 | 10.4 | 0.00 | 0.01 | 0.00 | 84 | 1011.6 |
| 20260507085148 | 51 | 218 | 5.2 | 10.4 | 0.00 | 0.01 | 0.00 | 84 | 1011.6 |
| 20260507085048 | 51 | 222 | 5.2 | 10.4 | 0.00 | 0.01 | 0.00 | 84 | 1011.6 |
| 20260507085001 | 51 | 236 | 5.2 | 10.4 | 0.00 | 0.01 | 0.00 | 84 | 1011.6 |
| 20260507084947 | 51 | 260 | 5.2 | 10.4 | 0.00 | 0.01 | 0.00 | 84 | 1011.6 |
| 20260507084847 | 51 | 245 | 5.2 | 10.4 | 0.00 | 0.01 | 0.00 | 84 | 1011.6 |
| 20260507084748 | 51 | 239 | 4.3 | 10.4 | 0.00 | 0.01 | 0.00 | 83 | 1011.6 |
| 20260507084648 | 51 | 278 | 5.2 | 10.4 | 0.00 | 0.01 | 0.00 | 83 | 1011.5 |
| 20260507084544 | 51 | 217 | 5.2 | 10.4 | 0.00 | 0.01 | 0.00 | 83 | 1011.6 |
| 20260507084501 | 51 | 289 | 5.2 | 10.4 | 0.00 | 0.01 | 0.00 | 82 | 1011.6 |
| 20260507084443 | 51 | 240 | 4.3 | 10.4 | 0.00 | 0.01 | 0.00 | 82 | 1011.6 |
| 20260507084343 | 51 | 281 | 4.3 | 7.8 | 0.00 | 0.01 | 0.00 | 83 | 1011.5 |
| 20260507084243 | 51 | 232 | 4.3 | 7.8 | 0.00 | 0.01 | 0.00 | 83 | 1011.5 |
| 20260507084143 | 51 | 272 | 4.3 | 8.7 | 0.00 | 0.01 | 0.00 | 82 | 1011.5 |
| 20260507084043 | 51 | 269 | 5.2 | 10.4 | 0.00 | 0.01 | 0.00 | 82 | 1011.5 |
| 20260507084001 | 50 | 252 | 5.2 | 10.4 | 0.00 | 0.01 | 0.00 | 81 | 1011.5 |
| 20260507083944 | 51 | 255 | 5.2 | 10.4 | 0.00 | 0.01 | 0.00 | 81 | 1011.5 |
| 20260507083844 | 50 | 253 | 5.2 | 10.4 | 0.00 | 0.01 | 0.00 | 81 | 1011.5 |
| 20260507083744 | 50 | 269 | 5.2 | 10.4 | 0.00 | 0.01 | 0.00 | 81 | 1011.5 |
| 20260507083723 | 50 | 214 | 5.2 | 10.4 | 0.00 | 0.01 | 0.00 | 81 | 1011.5 |
| 20260507083716 | 50 | 234 | 5.2 | 10.4 | 0.00 | 0.01 | 0.00 | 81 | 1011.5 |
| 20260507083712 | 50 | 233 | 5.2 | 10.4 | 0.00 | 0.01 | 0.00 | 81 | 1011.5 |
| 20260507083443 | 50 | 230 | 5.2 | 10.4 | 0.00 | 0.01 | 0.00 | 81 | 1011.5 |
| 20260507083343 | 50 | 246 | 5.2 | 10.4 | 0.00 | 0.01 | 0.00 | 81 | 1011.5 |
| 20260507083243 | 50 | 245 | 6.1 | 10.4 | 0.00 | 0.01 | 0.00 | 80 | 1011.5 |
| 20260507083144 | 50 | 252 | 6.1 | 12.2 | 0.00 | 0.01 | 0.00 | 81 | 1011.6 |
| 20260507083044 | 50 | 250 | 6.1 | 13.0 | 0.00 | 0.01 | 0.00 | 82 | 1011.5 |
| 20260507083001 | 50 | 285 | 6.1 | 13.0 | 0.00 | 0.01 | 0.00 | 82 | 1011.5 |
| 20260507082943 | 50 | 255 | 6.1 | 13.0 | 0.00 | 0.01 | 0.00 | 81 | 1011.5 |
| 20260507082843 | 50 | 266 | 6.1 | 13.0 | 0.00 | 0.01 | 0.00 | 81 | 1011.4 |
| 20260507082743 | 51 | 223 | 6.1 | 13.0 | 0.00 | 0.01 | 0.00 | 81 | 1011.5 |
| 20260507082639 | 51 | 274 | 6.1 | 13.0 | 0.00 | 0.01 | 0.00 | 82 | 1011.5 |
| 20260507082539 | 51 | 220 | 6.1 | 13.0 | 0.00 | 0.01 | 0.00 | 81 | 1011.4 |
| 20260507082501 | 51 | 273 | 6.1 | 13.0 | 0.00 | 0.01 | 0.00 | 81 | 1011.4 |
| 20260507082440 | 51 | 238 | 6.1 | 13.0 | 0.00 | 0.01 | 0.00 | 81 | 1011.5 |
| 20260507082340 | 51 | 241 | 6.1 | 13.0 | 0.00 | 0.01 | 0.00 | 81 | 1011.4 |
| 20260507082240 | 51 | 236 | 6.1 | 13.0 | 0.00 | 0.01 | 0.00 | 81 | 1011.6 |
| 20260507082140 | 51 | 226 | 6.1 | 13.0 | 0.00 | 0.01 | 0.00 | 81 | 1011.4 |
| 20260507082040 | 51 | 242 | 7.0 | 11.3 | 0.00 | 0.01 | 0.00 | 81 | 1011.4 |
| 20260507082001 | 51 | 296 | 7.0 | 11.3 | 0.00 | 0.01 | 0.00 | 81 | 1011.4 |
| 20260507081939 | 51 | 265 | 7.0 | 11.3 | 0.00 | 0.01 | 0.00 | 81 | 1011.5 |
| 20260507081840 | 51 | 242 | 7.0 | 11.3 | 0.00 | 0.01 | 0.00 | 81 | 1011.4 |
| 20260507081740 | 51 | 263 | 7.0 | 11.3 | 0.00 | 0.01 | 0.00 | 81 | 1011.4 |
| 20260507081639 | 51 | 233 | 7.0 | 11.3 | 0.00 | 0.01 | 0.00 | 81 | 1011.3 |
| 20260507081539 | 51 | 223 | 7.0 | 12.2 | 0.00 | 0.01 | 0.00 | 81 | 1011.4 |
| 20260507081502 | 51 | 250 | 7.0 | 12.2 | 0.00 | 0.01 | 0.00 | 81 | 1011.4 |
| 20260507081439 | 51 | 251 | 7.0 | 12.2 | 0.00 | 0.01 | 0.00 | 81 | 1011.4 |
| 20260507081340 | 51 | 255 | 7.8 | 12.2 | 0.00 | 0.01 | 0.00 | 80 | 1011.4 |
| 20260507081240 | 51 | 271 | 7.8 | 12.2 | 0.00 | 0.01 | 0.00 | 81 | 1011.2 |
| 20260507081222 | 51 | 268 | 7.0 | 12.2 | 0.00 | 0.01 | 0.00 | 80 | 1011.3 |
| 20260507081217 | 51 | 259 | 7.0 | 12.2 | 0.00 | 0.01 | 0.00 | 81 | 1011.4 |
| 20260507081213 | 51 | 278 | 7.0 | 12.2 | 0.00 | 0.01 | 0.00 | 80 | 1011.3 |
| 20260507080940 | 51 | 254 | 7.0 | 12.2 | 0.00 | 0.01 | 0.00 | 80 | 1011.4 |
| 20260507080840 | 50 | 278 | 6.1 | 12.2 | 0.00 | 0.01 | 0.00 | 80 | 1011.3 |
| 20260507080735 | 50 | 268 | 6.1 | 12.2 | 0.00 | 0.01 | 0.00 | 81 | 1011.2 |
| 20260507080635 | 50 | 234 | 6.1 | 12.2 | 0.00 | 0.01 | 0.00 | 81 | 1011.5 |
| 20260507080535 | 50 | 287 | 6.1 | 12.2 | 0.00 | 0.01 | 0.00 | 82 | 1011.3 |
| 20260507080501 | 50 | 257 | 6.1 | 12.2 | 0.00 | 0.01 | 0.00 | 81 | 1011.3 |
| 20260507080435 | 50 | 248 | 7.0 | 12.2 | 0.00 | 0.01 | 0.00 | 81 | 1011.3 |
| 20260507080335 | 50 | 232 | 6.1 | 12.2 | 0.00 | 0.01 | 0.00 | 81 | 1011.3 |
| 20260507080236 | 50 | 227 | 6.1 | 11.3 | 0.00 | 0.01 | 0.00 | 81 | 1011.3 |
| 20260507080135 | 50 | 244 | 6.1 | 11.3 | 0.00 | 0.01 | 0.00 | 81 | 1011.2 |
| 20260507080035 | 50 | 221 | 6.1 | 11.3 | 0.00 | 0.01 | 0.00 | 81 | 1011.2 |
| 20260507080000 | 50 | 233 | 6.1 | 11.3 | 0.00 | 0.01 | 0.00 | 80 | 1011.2 |
| 20260507075936 | 50 | 246 | 6.1 | 11.3 | 0.00 | 0.01 | 0.00 | 80 | 1011.2 |
| 20260507075836 | 50 | 225 | 6.1 | 11.3 | 0.00 | 0.01 | 0.00 | 80 | 1011.2 |
| 20260507075735 | 50 | 233 | 6.1 | 11.3 | 0.00 | 0.01 | 0.00 | 80 | 1011.2 |
| 20260507075635 | 50 | 232 | 6.1 | 12.2 | 0.00 | 0.01 | 0.00 | 80 | 1011.2 |
| 20260507075535 | 50 | 241 | 6.1 | 12.2 | 0.00 | 0.01 | 0.00 | 80 | 1011.2 |
| 20260507075502 | 50 | 265 | 6.1 | 12.2 | 0.00 | 0.01 | 0.00 | 80 | 1011.2 |
| 20260507075457 | 50 | 271 | 6.1 | 12.2 | 0.00 | 0.01 | 0.00 | 80 | 1011.1 |
| 20260507075452 | 50 | 250 | 6.1 | 12.2 | 0.00 | 0.01 | 0.00 | 80 | 1011.2 |
| 20260507075448 | 50 | 226 | 6.1 | 12.2 | 0.00 | 0.01 | 0.00 | 80 | 1011.2 |
| 20260507075440 | 50 | 290 | 6.1 | 12.2 | 0.00 | 0.01 | 0.00 | 80 | 1011.2 |
| 20260507075215 | 50 | 208 | 6.1 | 12.2 | 0.00 | 0.01 | 0.00 | 80 | 1011.1 |
| 20260507075211 | 50 | 252 | 6.1 | 12.2 | 0.00 | 0.01 | 0.00 | 80 | 1011.1 |
| 20260507074936 | 50 | 217 | 6.1 | 12.2 | 0.00 | 0.01 | 0.00 | 81 | 1011.2 |
| 20260507074830 | 50 | 265 | 6.1 | 12.2 | 0.00 | 0.01 | 0.00 | 80 | 1011.2 |
| 20260507074730 | 50 | 265 | 6.1 | 12.2 | 0.00 | 0.01 | 0.00 | 80 | 1011.2 |
| 20260507074629 | 50 | 275 | 6.1 | 12.2 | 0.00 | 0.01 | 0.00 | 80 | 1011.1 |
| 20260507074529 | 50 | 252 | 6.1 | 12.2 | 0.00 | 0.01 | 0.00 | 80 | 1011.2 |
| 20260507074501 | 50 | 229 | 6.1 | 12.2 | 0.00 | 0.01 | 0.00 | 80 | 1011.2 |
| 20260507074454 | 50 | 294 | 7.0 | 12.2 | 0.00 | 0.01 | 0.00 | 79 | 1011.0 |
| 20260507074449 | 50 | 252 | 7.0 | 12.2 | 0.00 | 0.01 | 0.00 | 80 | 1011.0 |
| 20260507074445 | 50 | 249 | 7.0 | 12.2 | 0.00 | 0.01 | 0.00 | 79 | 1011.1 |
| 20260507074436 | 50 | 252 | 7.0 | 12.2 | 0.00 | 0.01 | 0.00 | 79 | 1011.1 |
| 20260507074217 | 50 | 271 | 7.0 | 12.2 | 0.00 | 0.01 | 0.00 | 79 | 1011.1 |
| 20260507074213 | 50 | 262 | 7.0 | 12.2 | 0.00 | 0.01 | 0.00 | 79 | 1011.0 |
| 20260507073929 | 50 | 279 | 7.0 | 12.2 | 0.00 | 0.01 | 0.00 | 79 | 1011.1 |
| 20260507073829 | 50 | 275 | 7.0 | 12.2 | 0.00 | 0.01 | 0.00 | 79 | 1011.2 |
| 20260507073729 | 50 | 267 | 6.1 | 11.3 | 0.00 | 0.01 | 0.00 | 79 | 1011.0 |
| 20260507073629 | 50 | 294 | 6.1 | 11.3 | 0.00 | 0.01 | 0.00 | 80 | 1011.1 |
| 20260507073529 | 50 | 294 | 6.1 | 11.3 | 0.00 | 0.01 | 0.00 | 79 | 1011.0 |
| 20260507073501 | 50 | 269 | 6.1 | 11.3 | 0.00 | 0.01 | 0.00 | 80 | 1011.0 |
| 20260507073429 | 50 | 244 | 6.1 | 11.3 | 0.00 | 0.01 | 0.00 | 80 | 1011.1 |
| 20260507073329 | 50 | 267 | 6.1 | 11.3 | 0.00 | 0.01 | 0.00 | 80 | 1010.9 |
| 20260507073229 | 50 | 234 | 6.1 | 11.3 | 0.00 | 0.01 | 0.00 | 80 | 1011.0 |
| 20260507073128 | 50 | 298 | 6.1 | 11.3 | 0.00 | 0.01 | 0.00 | 79 | 1011.0 |
| 20260507073001 | 50 | 243 | 7.0 | 11.3 | 0.00 | 0.01 | 0.00 | 79 | 1010.9 |
| 20260507072925 | 50 | 238 | 7.0 | 11.3 | 0.00 | 0.01 | 0.00 | 79 | 1011.0 |
| 20260507072825 | 50 | 245 | 6.1 | 11.3 | 0.00 | 0.01 | 0.00 | 80 | 1011.0 |
| 20260507072728 | 50 | 271 | 6.1 | 11.3 | 0.00 | 0.01 | 0.00 | 79 | 1010.9 |
| 20260507072724 | 50 | 256 | 6.1 | 11.3 | 0.00 | 0.01 | 0.00 | 79 | 1011.0 |
| 20260507072716 | 50 | 248 | 6.1 | 11.3 | 0.00 | 0.01 | 0.00 | 79 | 1010.9 |
| 20260507072712 | 50 | 288 | 6.1 | 11.3 | 0.00 | 0.01 | 0.00 | 79 | 1011.0 |
| 20260507072425 | 50 | 294 | 6.1 | 11.3 | 0.00 | 0.01 | 0.00 | 79 | 1011.0 |
| 20260507072325 | 50 | 275 | 7.0 | 11.3 | 0.00 | 0.01 | 0.00 | 80 | 1011.0 |
| 20260507072230 | 50 | 290 | 7.0 | 14.8 | 0.00 | 0.01 | 0.00 | 81 | 1010.9 |
| 20260507072225 | 50 | 265 | 7.0 | 14.8 | 0.00 | 0.01 | 0.00 | 80 | 1010.9 |
| 20260507072217 | 50 | 255 | 7.0 | 14.8 | 0.00 | 0.01 | 0.00 | 81 | 1010.9 |
| 20260507072213 | 50 | 267 | 7.0 | 14.8 | 0.00 | 0.01 | 0.00 | 81 | 1010.9 |
| 20260507071925 | 50 | 265 | 7.0 | 14.8 | 0.00 | 0.01 | 0.00 | 81 | 1010.9 |
| 20260507071824 | 50 | 277 | 7.8 | 14.8 | 0.00 | 0.01 | 0.00 | 81 | 1010.9 |
| 20260507071721 | 50 | 251 | 7.8 | 14.8 | 0.00 | 0.01 | 0.00 | 81 | 1010.8 |
| 20260507071621 | 50 | 261 | 7.8 | 14.8 | 0.00 | 0.01 | 0.00 | 80 | 1010.8 |
| 20260507071520 | 50 | 261 | 7.8 | 14.8 | 0.00 | 0.01 | 0.00 | 80 | 1010.8 |
| 20260507071500 | 50 | 257 | 7.8 | 14.8 | 0.00 | 0.01 | 0.00 | 80 | 1010.8 |
| 20260507071419 | 50 | 271 | 7.8 | 14.8 | 0.00 | 0.01 | 0.00 | 80 | 1010.9 |
| 20260507071318 | 50 | 290 | 7.8 | 14.8 | 0.00 | 0.01 | 0.00 | 80 | 1010.9 |
| 20260507071217 | 50 | 217 | 7.0 | 11.3 | 0.00 | 0.01 | 0.00 | 80 | 1010.8 |
| 20260507071117 | 50 | 262 | 7.0 | 11.3 | 0.00 | 0.01 | 0.00 | 80 | 1010.8 |
| 20260507071017 | 50 | 271 | 7.0 | 12.2 | 0.00 | 0.01 | 0.00 | 80 | 1010.8 |
| 20260507071001 | 50 | 257 | 7.0 | 12.2 | 0.00 | 0.01 | 0.00 | 80 | 1010.8 |
| 20260507070917 | 50 | 262 | 7.0 | 12.2 | 0.00 | 0.01 | 0.00 | 80 | 1010.8 |
| 20260507070818 | 50 | 254 | 7.0 | 12.2 | 0.00 | 0.01 | 0.00 | 80 | 1010.8 |
| 20260507070717 | 50 | 264 | 7.0 | 12.2 | 0.00 | 0.01 | 0.00 | 80 | 1010.8 |
| 20260507070617 | 50 | 267 | 7.0 | 12.2 | 0.00 | 0.01 | 0.00 | 80 | 1010.8 |
| 20260507070517 | 50 | 292 | 7.0 | 12.2 | 0.00 | 0.01 | 0.00 | 81 | 1011.0 |
| 20260507070503 | 50 | 281 | 7.0 | 12.2 | 0.00 | 0.01 | 0.00 | 81 | 1011.0 |
| 20260507070417 | 50 | 257 | 7.0 | 12.2 | 0.00 | 0.01 | 0.00 | 81 | 1010.8 |
| 20260507070317 | 50 | 234 | 7.0 | 12.2 | 0.00 | 0.01 | 0.00 | 81 | 1010.7 |
| 20260507070216 | 50 | 283 | 7.0 | 12.2 | 0.00 | 0.01 | 0.00 | 81 | 1010.8 |
| 20260507070115 | 50 | 250 | 7.0 | 12.2 | 0.00 | 0.01 | 0.00 | 81 | 1010.8 |
| 20260507070016 | 50 | 262 | 6.1 | 11.3 | 0.00 | 0.01 | 0.00 | 81 | 1010.7 |
| 20260507070003 | 50 | 256 | 6.1 | 11.3 | 0.00 | 0.01 | 0.00 | 80 | 1010.7 |
| 20260507065915 | 50 | 220 | 6.1 | 11.3 | 0.00 | 0.01 | 0.00 | 80 | 1010.7 |
| 20260507065815 | 50 | 285 | 6.1 | 11.3 | 0.00 | 0.01 | 0.00 | 80 | 1010.8 |
| 20260507065716 | 50 | 246 | 6.1 | 11.3 | 0.00 | 0.01 | 0.00 | 80 | 1010.8 |
| 20260507065615 | 50 | 240 | 5.2 | 11.3 | 0.00 | 0.01 | 0.00 | 81 | 1010.7 |
| 20260507065509 | 50 | 257 | 5.2 | 11.3 | 0.00 | 0.01 | 0.00 | 80 | 1010.7 |
| 20260507065502 | 50 | 241 | 5.2 | 11.3 | 0.00 | 0.01 | 0.00 | 80 | 1010.7 |
| 20260507065410 | 50 | 249 | 4.3 | 11.3 | 0.00 | 0.01 | 0.00 | 80 | 1010.7 |
| 20260507065309 | 50 | 238 | 4.3 | 11.3 | 0.00 | 0.01 | 0.00 | 80 | 1010.7 |
| 20260507065209 | 50 | 234 | 3.5 | 9.6 | 0.00 | 0.01 | 0.00 | 81 | 1010.7 |
| 20260507065108 | 50 | 231 | 3.5 | 8.7 | 0.00 | 0.01 | 0.00 | 81 | 1010.7 |
| 20260507065005 | 50 | 221 | 3.5 | 8.7 | 0.00 | 0.01 | 0.00 | 81 | 1010.6 |
| 20260507065001 | 50 | 192 | 3.5 | 8.7 | 0.00 | 0.01 | 0.00 | 81 | 1010.6 |
| 20260507064902 | 50 | 262 | 4.3 | 10.4 | 0.00 | 0.01 | 0.00 | 81 | 1010.6 |
| 20260507064802 | 50 | 238 | 4.3 | 12.2 | 0.00 | 0.01 | 0.00 | 81 | 1010.7 |
| 20260507064701 | 50 | 232 | 4.3 | 12.2 | 0.00 | 0.01 | 0.00 | 80 | 1010.6 |
| 20260507064601 | 50 | 235 | 4.3 | 12.2 | 0.00 | 0.01 | 0.00 | 81 | 1010.6 |
| 20260507064503 | 50 | 242 | 4.3 | 12.2 | 0.00 | 0.01 | 0.00 | 81 | 1010.6 |
| 20260507064401 | 50 | 284 | 4.3 | 12.2 | 0.00 | 0.01 | 0.00 | 81 | 1010.5 |
| 20260507064201 | 50 | 227 | 5.2 | 12.2 | 0.00 | 0.01 | 0.00 | 81 | 1010.5 |
| 20260507064101 | 50 | 251 | 5.2 | 12.2 | 0.00 | 0.01 | 0.00 | 81 | 1010.5 |
| 20260507064003 | 50 | 278 | 6.1 | 12.2 | 0.00 | 0.01 | 0.00 | 81 | 1010.6 |
| 20260507063901 | 50 | 275 | 6.1 | 12.2 | 0.00 | 0.01 | 0.00 | 81 | 1010.5 |
| 20260507063801 | 50 | 238 | 5.2 | 12.2 | 0.00 | 0.01 | 0.00 | 81 | 1010.6 |
| 20260507063701 | 50 | 219 | 5.2 | 12.2 | 0.00 | 0.01 | 0.00 | 81 | 1010.5 |
| 20260507063601 | 50 | 229 | 5.2 | 12.2 | 0.00 | 0.01 | 0.00 | 81 | 1010.5 |
| 20260507063501 | 50 | 282 | 5.2 | 12.2 | 0.00 | 0.01 | 0.00 | 81 | 1010.5 |
| 20260507063448 | 50 | 247 | 5.2 | 9.6 | 0.00 | 0.01 | 0.00 | 82 | 1010.4 |
| 20260507063444 | 50 | 211 | 5.2 | 12.2 | 0.00 | 0.01 | 0.00 | 81 | 1010.5 |
| 20260507063440 | 50 | 251 | 5.2 | 12.2 | 0.00 | 0.01 | 0.00 | 81 | 1010.6 |
| 20260507063220 | 50 | 284 | 5.2 | 9.6 | 0.00 | 0.01 | 0.00 | 82 | 1010.4 |
| 20260507063216 | 50 | 254 | 4.3 | 9.6 | 0.00 | 0.01 | 0.00 | 82 | 1010.5 |
| 20260507063212 | 50 | 247 | 5.2 | 9.6 | 0.00 | 0.01 | 0.00 | 82 | 1010.4 |
| 20260507062901 | 50 | 260 | 4.3 | 9.6 | 0.00 | 0.01 | 0.00 | 82 | 1010.4 |
| 20260507062801 | 50 | 269 | 4.3 | 9.6 | 0.00 | 0.01 | 0.00 | 82 | 1010.4 |
| 20260507062701 | 50 | 244 | 4.3 | 9.6 | 0.00 | 0.01 | 0.00 | 82 | 1010.4 |
| 20260507062601 | 50 | 245 | 4.3 | 9.6 | 0.00 | 0.01 | 0.00 | 82 | 1010.4 |
| 20260507062500 | 50 | 240 | 4.3 | 9.6 | 0.00 | 0.01 | 0.00 | 82 | 1010.5 |
| 20260507062400 | 50 | 274 | 4.3 | 9.6 | 0.00 | 0.01 | 0.00 | 82 | 1010.5 |
| 20260507062300 | 50 | 216 | 4.3 | 13.0 | 0.00 | 0.01 | 0.00 | 82 | 1010.4 |
| 20260507062200 | 50 | 247 | 5.2 | 13.0 | 0.00 | 0.01 | 0.00 | 82 | 1010.4 |
| 20260507062100 | 50 | 259 | 5.2 | 13.0 | 0.00 | 0.01 | 0.00 | 82 | 1010.4 |
| 20260507062001 | 50 | 264 | 5.2 | 13.0 | 0.00 | 0.01 | 0.00 | 82 | 1010.4 |
| 20260507061901 | 50 | 232 | 5.2 | 13.0 | 0.00 | 0.01 | 0.00 | 82 | 1010.4 |
| 20260507061802 | 50 | 229 | 6.1 | 13.0 | 0.00 | 0.01 | 0.00 | 82 | 1010.4 |
| 20260507061722 | 50 | 247 | 6.1 | 13.0 | 0.00 | 0.01 | 0.00 | 82 | 1010.2 |
| 20260507061717 | 49 | 217 | 6.1 | 13.0 | 0.00 | 0.01 | 0.00 | 82 | 1010.4 |
| 20260507061713 | 49 | 255 | 7.0 | 13.0 | 0.00 | 0.01 | 0.00 | 82 | 1010.4 |
| 20260507061401 | 49 | 224 | 7.0 | 13.0 | 0.00 | 0.01 | 0.00 | 82 | 1010.4 |
| 20260507061301 | 49 | 217 | 7.8 | 13.9 | 0.00 | 0.01 | 0.00 | 82 | 1010.4 |
| 20260507061201 | 49 | 249 | 7.8 | 13.9 | 0.00 | 0.01 | 0.00 | 82 | 1010.4 |
| 20260507061057 | 49 | 249 | 7.8 | 13.9 | 0.00 | 0.01 | 0.00 | 82 | 1010.4 |
| 20260507061001 | 49 | 222 | 7.0 | 13.9 | 0.00 | 0.01 | 0.00 | 82 | 1010.4 |
| 20260507060957 | 49 | 238 | 7.0 | 13.9 | 0.00 | 0.01 | 0.00 | 82 | 1010.4 |
| 20260507060857 | 49 | 202 | 7.0 | 13.9 | 0.00 | 0.01 | 0.00 | 82 | 1010.4 |
| 20260507060758 | 49 | 251 | 7.0 | 13.9 | 0.00 | 0.01 | 0.00 | 82 | 1010.4 |
| 20260507060656 | 49 | 249 | 7.0 | 13.9 | 0.00 | 0.01 | 0.00 | 82 | 1010.4 |
| 20260507060551 | 49 | 239 | 7.0 | 13.9 | 0.00 | 0.01 | 0.00 | 82 | 1010.5 |
| 20260507060502 | 49 | 269 | 7.0 | 13.9 | 0.00 | 0.01 | 0.00 | 82 | 1010.5 |
| 20260507060451 | 49 | 266 | 6.1 | 13.9 | 0.00 | 0.01 | 0.00 | 82 | 1010.5 |
| 20260507060351 | 49 | 247 | 6.1 | 13.9 | 0.00 | 0.01 | 0.00 | 82 | 1010.4 |
| 20260507060251 | 49 | 254 | 6.1 | 16.5 | 0.00 | 0.01 | 0.00 | 82 | 1010.2 |
| 20260507060151 | 49 | 240 | 6.1 | 16.5 | 0.00 | 0.01 | 0.00 | 82 | 1010.2 |
| 20260507060047 | 49 | 242 | 6.1 | 16.5 | 0.00 | 0.01 | 0.00 | 82 | 1010.2 |
| 20260507060001 | 49 | 244 | 6.1 | 16.5 | 0.00 | 0.01 | 0.00 | 82 | 1010.2 |
| 20260507055947 | 49 | 272 | 7.0 | 16.5 | 0.00 | 0.01 | 0.00 | 82 | 1010.1 |
| 20260507055848 | 49 | 277 | 6.1 | 16.5 | 0.00 | 0.01 | 0.00 | 82 | 1010.1 |
| 20260507055746 | 49 | 243 | 6.1 | 16.5 | 0.00 | 0.01 | 0.00 | 82 | 1010.1 |
| 20260507055644 | 49 | 260 | 6.1 | 16.5 | 0.00 | 0.01 | 0.00 | 82 | 1010.1 |
| 20260507055539 | 49 | 260 | 6.1 | 16.5 | 0.00 | 0.01 | 0.00 | 82 | 1010.1 |
| 20260507055500 | 49 | 229 | 6.1 | 16.5 | 0.00 | 0.01 | 0.00 | 82 | 1010.1 |
| 20260507055439 | 49 | 228 | 6.1 | 16.5 | 0.00 | 0.01 | 0.00 | 82 | 1010.1 |
| 20260507055339 | 49 | 223 | 6.1 | 16.5 | 0.00 | 0.01 | 0.00 | 82 | 1010.4 |
| 20260507055240 | 49 | 263 | 6.1 | 12.2 | 0.00 | 0.01 | 0.00 | 82 | 1010.1 |
| 20260507055138 | 49 | 289 | 6.1 | 12.2 | 0.00 | 0.01 | 0.00 | 82 | 1010.0 |
| 20260507055039 | 49 | 238 | 6.1 | 12.2 | 0.00 | 0.01 | 0.00 | 82 | 1010.2 |
| 20260507055003 | 49 | 275 | 6.1 | 12.2 | 0.00 | 0.01 | 0.00 | 82 | 1010.2 |
| 20260507054939 | 49 | 266 | 6.1 | 12.2 | 0.00 | 0.01 | 0.00 | 82 | 1010.1 |
| 20260507054839 | 49 | 210 | 6.1 | 12.2 | 0.00 | 0.01 | 0.00 | 82 | 1010.1 |
| 20260507054739 | 49 | 250 | 6.1 | 12.2 | 0.00 | 0.01 | 0.00 | 82 | 1010.0 |
| 20260507054639 | 49 | 242 | 7.0 | 12.2 | 0.00 | 0.01 | 0.00 | 83 | 1010.0 |
| 20260507054539 | 49 | 261 | 7.0 | 13.0 | 0.00 | 0.01 | 0.00 | 83 | 1010.0 |
| 20260507054502 | 49 | 240 | 7.0 | 13.0 | 0.00 | 0.01 | 0.00 | 83 | 1010.0 |
| 20260507054439 | 49 | 220 | 7.0 | 13.0 | 0.00 | 0.01 | 0.00 | 83 | 1010.1 |
| 20260507054339 | 49 | 234 | 7.0 | 13.0 | 0.00 | 0.01 | 0.00 | 82 | 1010.1 |
| 20260507054237 | 49 | 261 | 7.0 | 13.0 | 0.00 | 0.01 | 0.00 | 82 | 1010.1 |
| 20260507054137 | 49 | 282 | 7.0 | 13.0 | 0.00 | 0.01 | 0.00 | 82 | 1010.0 |
| 20260507054037 | 49 | 215 | 6.1 | 13.0 | 0.00 | 0.01 | 0.00 | 82 | 1010.0 |
| 20260507054001 | 49 | 238 | 6.1 | 13.0 | 0.00 | 0.01 | 0.00 | 82 | 1010.0 |
| 20260507053937 | 49 | 299 | 6.1 | 13.0 | 0.00 | 0.01 | 0.00 | 83 | 1010.0 |
| 20260507053838 | 49 | 252 | 6.1 | 13.0 | 0.00 | 0.01 | 0.00 | 83 | 1009.9 |
| 20260507053637 | 49 | 246 | 5.2 | 13.0 | 0.00 | 0.01 | 0.00 | 83 | 1010.0 |
| 20260507053537 | 49 | 257 | 5.2 | 11.3 | 0.00 | 0.01 | 0.00 | 83 | 1010.0 |
| 20260507053500 | 49 | 286 | 5.2 | 11.3 | 0.00 | 0.01 | 0.00 | 83 | 1010.0 |
| 20260507053436 | 49 | 265 | 5.2 | 11.3 | 0.00 | 0.01 | 0.00 | 83 | 1009.9 |
| 20260507053331 | 49 | 274 | 4.3 | 11.3 | 0.00 | 0.01 | 0.00 | 83 | 1009.9 |
| 20260507053231 | 49 | 232 | 4.3 | 10.4 | 0.00 | 0.01 | 0.00 | 83 | 1009.8 |
| 20260507053131 | 49 | 269 | 4.3 | 10.4 | 0.00 | 0.01 | 0.00 | 83 | 1009.8 |
| 20260507053031 | 49 | 255 | 5.2 | 10.4 | 0.00 | 0.01 | 0.00 | 83 | 1009.9 |
| 20260507053001 | 49 | 263 | 5.2 | 10.4 | 0.00 | 0.01 | 0.00 | 83 | 1009.9 |
| 20260507052930 | 48 | 227 | 4.3 | 10.4 | 0.00 | 0.01 | 0.00 | 83 | 1009.8 |
| 20260507052831 | 48 | 238 | 4.3 | 10.4 | 0.00 | 0.01 | 0.00 | 83 | 1009.8 |
| 20260507052731 | 48 | 234 | 4.3 | 10.4 | 0.00 | 0.01 | 0.00 | 83 | 1009.8 |
| 20260507052631 | 48 | 266 | 4.3 | 10.4 | 0.00 | 0.01 | 0.00 | 83 | 1009.8 |
| 20260507052531 | 48 | 229 | 4.3 | 10.4 | 0.00 | 0.01 | 0.00 | 83 | 1009.8 |
| 20260507052501 | 48 | 242 | 4.3 | 10.4 | 0.00 | 0.01 | 0.00 | 83 | 1009.8 |
| 20260507052431 | 48 | 255 | 4.3 | 10.4 | 0.00 | 0.01 | 0.00 | 83 | 1009.7 |
| 20260507052331 | 48 | 250 | 4.3 | 10.4 | 0.00 | 0.01 | 0.00 | 83 | 1009.7 |
| 20260507052231 | 48 | 228 | 4.3 | 8.7 | 0.00 | 0.01 | 0.00 | 83 | 1009.8 |
| 20260507052129 | 48 | 231 | 4.3 | 8.7 | 0.00 | 0.01 | 0.00 | 83 | 1009.7 |
| 20260507052029 | 48 | 262 | 4.3 | 8.7 | 0.00 | 0.01 | 0.00 | 83 | 1009.7 |
| 20260507052001 | 48 | 237 | 4.3 | 8.7 | 0.00 | 0.01 | 0.00 | 83 | 1009.7 |
| 20260507051929 | 48 | 263 | 4.3 | 8.7 | 0.00 | 0.01 | 0.00 | 83 | 1009.7 |
| 20260507051829 | 48 | 263 | 4.3 | 8.7 | 0.00 | 0.01 | 0.00 | 83 | 1009.7 |
| 20260507051729 | 48 | 230 | 4.3 | 8.7 | 0.00 | 0.01 | 0.00 | 83 | 1009.7 |
| 20260507051629 | 48 | 270 | 4.3 | 8.7 | 0.00 | 0.01 | 0.00 | 83 | 1009.7 |
| 20260507051529 | 48 | 234 | 4.3 | 8.7 | 0.00 | 0.01 | 0.00 | 83 | 1009.7 |
| 20260507051501 | 48 | 257 | 4.3 | 8.7 | 0.00 | 0.01 | 0.00 | 83 | 1009.7 |
| 20260507051429 | 48 | 252 | 4.3 | 8.7 | 0.00 | 0.01 | 0.00 | 83 | 1009.7 |
| 20260507051329 | 48 | 243 | 3.5 | 7.8 | 0.00 | 0.01 | 0.00 | 83 | 1009.6 |
| 20260507051129 | 48 | 267 | 3.5 | 7.8 | 0.00 | 0.01 | 0.00 | 83 | 1009.7 |
| 20260507051029 | 48 | 223 | 3.5 | 7.8 | 0.00 | 0.01 | 0.00 | 84 | 1009.7 |
| 20260507051003 | 48 | 256 | 3.5 | 7.8 | 0.00 | 0.01 | 0.00 | 84 | 1009.7 |
| 20260507050929 | 48 | 283 | 4.3 | 7.8 | 0.00 | 0.01 | 0.00 | 84 | 1009.6 |
| 20260507050829 | 48 | 219 | 4.3 | 7.8 | 0.00 | 0.01 | 0.00 | 84 | 1009.7 |
| 20260507050728 | 48 | 260 | 4.3 | 7.8 | 0.00 | 0.01 | 0.00 | 84 | 1009.6 |
| 20260507050629 | 48 | 246 | 4.3 | 7.8 | 0.00 | 0.01 | 0.00 | 83 | 1009.7 |
| 20260507050529 | 48 | 267 | 4.3 | 7.8 | 0.00 | 0.01 | 0.00 | 84 | 1009.6 |
| 20260507050501 | 48 | 240 | 4.3 | 7.8 | 0.00 | 0.01 | 0.00 | 84 | 1009.6 |
| 20260507050429 | 48 | 241 | 3.5 | 7.8 | 0.00 | 0.01 | 0.00 | 83 | 1009.6 |
| 20260507050328 | 48 | 248 | 4.3 | 7.8 | 0.00 | 0.01 | 0.00 | 84 | 1009.6 |
| 20260507050228 | 48 | 229 | 4.3 | 7.8 | 0.00 | 0.01 | 0.00 | 84 | 1009.6 |
| 20260507050129 | 48 | 259 | 4.3 | 7.8 | 0.00 | 0.01 | 0.00 | 84 | 1009.6 |
| 20260507050029 | 48 | 240 | 3.5 | 7.8 | 0.00 | 0.01 | 0.00 | 84 | 1009.6 |
| 20260507050000 | 47 | 250 | 3.5 | 7.8 | 0.00 | 0.01 | 0.00 | 84 | 1009.6 |
| 20260507045928 | 48 | 253 | 3.5 | 7.8 | 0.00 | 0.01 | 0.00 | 84 | 1009.6 |
| 20260507045828 | 47 | 254 | 3.5 | 7.8 | 0.00 | 0.01 | 0.00 | 84 | 1009.6 |
| 20260507045728 | 47 | 263 | 3.5 | 7.8 | 0.00 | 0.01 | 0.00 | 84 | 1009.6 |
| 20260507045628 | 47 | 219 | 3.5 | 7.8 | 0.00 | 0.01 | 0.00 | 84 | 1009.6 |
| 20260507045528 | 47 | 273 | 3.5 | 7.0 | 0.00 | 0.01 | 0.00 | 84 | 1009.5 |
| 20260507045503 | 47 | 254 | 3.5 | 7.0 | 0.00 | 0.01 | 0.00 | 84 | 1009.5 |
| 20260507045428 | 47 | 205 | 3.5 | 7.0 | 0.00 | 0.01 | 0.00 | 84 | 1009.5 |
| 20260507045328 | 47 | 265 | 3.5 | 7.0 | 0.00 | 0.01 | 0.00 | 84 | 1009.5 |
| 20260507045229 | 47 | 213 | 3.5 | 7.0 | 0.00 | 0.01 | 0.00 | 84 | 1009.5 |
| 20260507045128 | 47 | 213 | 3.5 | 7.0 | 0.00 | 0.01 | 0.00 | 84 | 1009.5 |
| 20260507045029 | 47 | 234 | 3.5 | 7.0 | 0.00 | 0.01 | 0.00 | 84 | 1009.5 |
| 20260507045001 | 47 | 238 | 3.5 | 7.0 | 0.00 | 0.01 | 0.00 | 84 | 1009.5 |
| 20260507044929 | 47 | 267 | 2.6 | 7.0 | 0.00 | 0.01 | 0.00 | 85 | 1009.5 |
| 20260507044829 | 47 | 261 | 2.6 | 6.1 | 0.00 | 0.01 | 0.00 | 85 | 1009.6 |
| 20260507044729 | 47 | 229 | 2.6 | 5.2 | 0.00 | 0.01 | 0.00 | 85 | 1009.5 |
| 20260507044629 | 47 | 234 | 2.6 | 5.2 | 0.00 | 0.01 | 0.00 | 85 | 1009.5 |
| 20260507044529 | 47 | 225 | 1.7 | 5.2 | 0.00 | 0.01 | 0.00 | 85 | 1009.5 |
| 20260507044501 | 47 | 215 | 1.7 | 5.2 | 0.00 | 0.01 | 0.00 | 85 | 1009.5 |
| 20260507044429 | 47 | 214 | 1.7 | 5.2 | 0.00 | 0.01 | 0.00 | 85 | 1009.5 |
| 20260507044328 | 47 | 232 | 1.7 | 5.2 | 0.00 | 0.01 | 0.00 | 84 | 1009.4 |
| 20260507044232 | 47 | 231 | 1.7 | 5.2 | 0.00 | 0.01 | 0.00 | 85 | 1009.4 |
| 20260507044228 | 47 | 217 | 1.7 | 6.1 | 0.00 | 0.01 | 0.00 | 85 | 1009.4 |
| 20260507044218 | 47 | 219 | 1.7 | 5.2 | 0.00 | 0.01 | 0.00 | 85 | 1009.4 |
| 20260507044214 | 47 | 217 | 1.7 | 4.3 | 0.00 | 0.01 | 0.00 | 85 | 1009.4 |
| 20260507043929 | 47 | 217 | 1.7 | 6.1 | 0.00 | 0.01 | 0.00 | 85 | 1009.4 |
| 20260507043829 | 47 | 217 | 1.7 | 6.1 | 0.00 | 0.01 | 0.00 | 85 | 1009.4 |
| 20260507043729 | 47 | 217 | 1.7 | 6.1 | 0.00 | 0.01 | 0.00 | 85 | 1009.3 |
| 20260507043628 | 47 | 217 | 1.7 | 6.1 | 0.00 | 0.01 | 0.00 | 85 | 1009.4 |
| 20260507043528 | 47 | 217 | 2.6 | 6.1 | 0.00 | 0.01 | 0.00 | 85 | 1009.4 |
| 20260507043501 | 47 | 217 | 2.6 | 6.1 | 0.00 | 0.01 | 0.00 | 85 | 1009.3 |
| 20260507043428 | 47 | 216 | 2.6 | 6.1 | 0.00 | 0.01 | 0.00 | 85 | 1009.3 |
| 20260507043329 | 47 | 216 | 2.6 | 6.1 | 0.00 | 0.01 | 0.00 | 85 | 1009.3 |
| 20260507043231 | 47 | 216 | 2.6 | 6.1 | 0.00 | 0.01 | 0.00 | 85 | 1009.3 |
| 20260507043227 | 47 | 218 | 2.6 | 5.2 | 0.00 | 0.01 | 0.00 | 85 | 1009.3 |
| 20260507043216 | 47 | 232 | 2.6 | 6.1 | 0.00 | 0.01 | 0.00 | 85 | 1009.3 |
| 20260507043212 | 47 | 221 | 2.6 | 6.1 | 0.00 | 0.01 | 0.00 | 85 | 1009.3 |
| 20260507042929 | 47 | 236 | 1.7 | 5.2 | 0.00 | 0.01 | 0.00 | 85 | 1009.3 |
| 20260507042828 | 47 | 246 | 2.6 | 4.3 | 0.00 | 0.01 | 0.00 | 85 | 1009.3 |
| 20260507042728 | 47 | 234 | 2.6 | 4.3 | 0.00 | 0.01 | 0.00 | 84 | 1009.3 |
| 20260507042632 | 47 | 234 | 2.6 | 4.3 | 0.00 | 0.01 | 0.00 | 84 | 1009.3 |
| 20260507042529 | 47 | 233 | 2.6 | 5.2 | 0.00 | 0.01 | 0.00 | 84 | 1009.3 |
| 20260507042500 | 47 | 215 | 2.6 | 5.2 | 0.00 | 0.01 | 0.00 | 84 | 1009.3 |
| 20260507042429 | 47 | 242 | 2.6 | 5.2 | 0.00 | 0.01 | 0.00 | 84 | 1009.2 |
| 20260507042329 | 47 | 221 | 2.6 | 5.2 | 0.00 | 0.01 | 0.00 | 84 | 1009.3 |
| 20260507042229 | 47 | 236 | 2.6 | 5.2 | 0.00 | 0.01 | 0.00 | 84 | 1009.2 |
| 20260507042130 | 47 | 236 | 2.6 | 5.2 | 0.00 | 0.01 | 0.00 | 84 | 1009.2 |
| 20260507042001 | 47 | 236 | 2.6 | 5.2 | 0.00 | 0.01 | 0.00 | 84 | 1009.2 |
| 20260507041929 | 47 | 235 | 2.6 | 5.2 | 0.00 | 0.01 | 0.00 | 84 | 1009.2 |
| 20260507041829 | 47 | 225 | 2.6 | 5.2 | 0.00 | 0.01 | 0.00 | 84 | 1009.1 |
| 20260507041729 | 47 | 232 | 2.6 | 5.2 | 0.00 | 0.01 | 0.00 | 84 | 1009.1 |
| 20260507041629 | 47 | 225 | 2.6 | 5.2 | 0.00 | 0.01 | 0.00 | 84 | 1009.1 |
| 20260507041529 | 47 | 244 | 2.6 | 5.2 | 0.00 | 0.01 | 0.00 | 84 | 1009.1 |
| 20260507041503 | 47 | 252 | 2.6 | 5.2 | 0.00 | 0.01 | 0.00 | 84 | 1009.1 |
| 20260507041429 | 47 | 252 | 2.6 | 5.2 | 0.00 | 0.01 | 0.00 | 84 | 1009.1 |
| 20260507041330 | 47 | 250 | 2.6 | 5.2 | 0.00 | 0.01 | 0.00 | 84 | 1009.1 |
| 20260507041228 | 47 | 225 | 2.6 | 5.2 | 0.00 | 0.01 | 0.00 | 84 | 1009.1 |
| 20260507041129 | 47 | 215 | 2.6 | 5.2 | 0.00 | 0.01 | 0.00 | 84 | 1009.0 |
| 20260507041029 | 47 | 266 | 2.6 | 5.2 | 0.00 | 0.01 | 0.00 | 84 | 1009.0 |
| 20260507041003 | 47 | 269 | 2.6 | 6.1 | 0.00 | 0.01 | 0.00 | 84 | 1009.0 |
| 20260507040929 | 47 | 269 | 2.6 | 6.1 | 0.00 | 0.01 | 0.00 | 84 | 1009.0 |
| 20260507040828 | 47 | 250 | 2.6 | 6.1 | 0.00 | 0.01 | 0.00 | 84 | 1009.0 |
| 20260507040728 | 47 | 263 | 2.6 | 6.1 | 0.00 | 0.01 | 0.00 | 84 | 1009.0 |
| 20260507040629 | 47 | 253 | 3.5 | 6.1 | 0.00 | 0.01 | 0.00 | 84 | 1009.0 |
| 20260507040529 | 47 | 221 | 3.5 | 7.8 | 0.00 | 0.01 | 0.00 | 84 | 1009.0 |
| 20260507040500 | 47 | 238 | 3.5 | 7.8 | 0.00 | 0.01 | 0.00 | 83 | 1009.0 |
| 20260507040429 | 47 | 238 | 3.5 | 7.8 | 0.00 | 0.01 | 0.00 | 83 | 1009.0 |
| 20260507040229 | 47 | 225 | 4.3 | 7.8 | 0.00 | 0.01 | 0.00 | 83 | 1009.0 |
| 20260507040128 | 47 | 240 | 4.3 | 8.7 | 0.00 | 0.01 | 0.00 | 83 | 1009.0 |
| 20260507040028 | 47 | 250 | 4.3 | 8.7 | 0.00 | 0.01 | 0.00 | 83 | 1009.0 |
| 20260507040001 | 47 | 258 | 4.3 | 8.7 | 0.00 | 0.01 | 0.00 | 83 | 1009.0 |
| 20260507035929 | 47 | 240 | 4.3 | 8.7 | 0.00 | 0.01 | 0.00 | 83 | 1009.0 |
| 20260507035829 | 47 | 238 | 4.3 | 8.7 | 0.00 | 0.01 | 0.00 | 83 | 1009.0 |
| 20260507035729 | 47 | 273 | 4.3 | 8.7 | 0.00 | 0.01 | 0.00 | 83 | 1009.0 |
| 20260507035629 | 47 | 252 | 4.3 | 8.7 | 0.00 | 0.01 | 0.00 | 83 | 1009.0 |
| 20260507035528 | 47 | 265 | 4.3 | 8.7 | 0.00 | 0.01 | 0.00 | 83 | 1009.0 |
| 20260507035501 | 47 | 254 | 4.3 | 8.7 | 0.00 | 0.01 | 0.00 | 83 | 1009.0 |
| 20260507035428 | 47 | 277 | 4.3 | 8.7 | 0.00 | 0.01 | 0.00 | 83 | 1008.9 |
| 20260507035329 | 47 | 250 | 4.3 | 8.7 | 0.00 | 0.01 | 0.00 | 83 | 1009.0 |
| 20260507035229 | 47 | 257 | 4.3 | 8.7 | 0.00 | 0.01 | 0.00 | 83 | 1009.1 |
| 20260507035129 | 47 | 268 | 4.3 | 8.7 | 0.00 | 0.01 | 0.00 | 83 | 1009.0 |
| 20260507035028 | 47 | 249 | 4.3 | 8.7 | 0.00 | 0.01 | 0.00 | 83 | 1009.0 |
| 20260507035001 | 47 | 273 | 4.3 | 8.7 | 0.00 | 0.01 | 0.00 | 83 | 1009.0 |
| 20260507034929 | 47 | 248 | 4.3 | 8.7 | 0.00 | 0.01 | 0.00 | 83 | 1008.9 |
| 20260507034829 | 47 | 248 | 4.3 | 8.7 | 0.00 | 0.01 | 0.00 | 83 | 1009.0 |
| 20260507034729 | 47 | 271 | 4.3 | 8.7 | 0.00 | 0.01 | 0.00 | 83 | 1009.0 |
| 20260507034629 | 47 | 269 | 4.3 | 8.7 | 0.00 | 0.01 | 0.00 | 83 | 1008.9 |
| 20260507034529 | 47 | 232 | 4.3 | 8.7 | 0.00 | 0.01 | 0.00 | 83 | 1008.9 |
| 20260507034501 | 47 | 253 | 4.3 | 8.7 | 0.00 | 0.01 | 0.00 | 83 | 1008.9 |
| 20260507034429 | 47 | 307 | 4.3 | 8.7 | 0.00 | 0.01 | 0.00 | 83 | 1008.9 |
| 20260507034329 | 47 | 254 | 4.3 | 8.7 | 0.00 | 0.01 | 0.00 | 83 | 1009.0 |
| 20260507034229 | 47 | 268 | 4.3 | 7.8 | 0.00 | 0.01 | 0.00 | 83 | 1008.9 |
| 20260507034129 | 47 | 225 | 4.3 | 7.8 | 0.00 | 0.01 | 0.00 | 83 | 1008.9 |
| 20260507034029 | 47 | 269 | 3.5 | 7.0 | 0.00 | 0.01 | 0.00 | 83 | 1008.9 |
| 20260507034001 | 47 | 275 | 3.5 | 7.8 | 0.00 | 0.01 | 0.00 | 83 | 1008.9 |
| 20260507033929 | 47 | 271 | 3.5 | 7.8 | 0.00 | 0.01 | 0.00 | 83 | 1008.8 |
| 20260507033829 | 47 | 254 | 3.5 | 7.8 | 0.00 | 0.01 | 0.00 | 83 | 1008.9 |
| 20260507033729 | 47 | 235 | 3.5 | 7.8 | 0.00 | 0.01 | 0.00 | 83 | 1008.8 |
| 20260507033629 | 47 | 248 | 3.5 | 7.8 | 0.00 | 0.01 | 0.00 | 83 | 1008.8 |
| 20260507033529 | 47 | 242 | 3.5 | 7.8 | 0.00 | 0.01 | 0.00 | 83 | 1008.8 |
| 20260507033500 | 47 | 254 | 3.5 | 7.8 | 0.00 | 0.01 | 0.00 | 83 | 1008.8 |
| 20260507033429 | 47 | 263 | 3.5 | 7.8 | 0.00 | 0.01 | 0.00 | 83 | 1008.8 |
| 20260507033329 | 47 | 261 | 3.5 | 7.8 | 0.00 | 0.01 | 0.00 | 83 | 1008.8 |
| 20260507033229 | 47 | 253 | 3.5 | 7.8 | 0.00 | 0.01 | 0.00 | 83 | 1008.8 |
| 20260507033128 | 47 | 276 | 3.5 | 7.8 | 0.00 | 0.01 | 0.00 | 83 | 1008.8 |
| 20260507033029 | 48 | 257 | 3.5 | 7.8 | 0.00 | 0.01 | 0.00 | 83 | 1008.8 |
| 20260507033000 | 48 | 246 | 3.5 | 7.8 | 0.00 | 0.01 | 0.00 | 83 | 1008.8 |
| 20260507032929 | 47 | 266 | 3.5 | 7.8 | 0.00 | 0.01 | 0.00 | 83 | 1008.8 |
| 20260507032829 | 48 | 238 | 3.5 | 8.7 | 0.00 | 0.01 | 0.00 | 83 | 1008.7 |
| 20260507032729 | 48 | 284 | 4.3 | 8.7 | 0.00 | 0.01 | 0.00 | 83 | 1008.7 |
| 20260507032629 | 47 | 238 | 4.3 | 8.7 | 0.00 | 0.01 | 0.00 | 83 | 1008.8 |
| 20260507032529 | 48 | 265 | 4.3 | 8.7 | 0.00 | 0.01 | 0.00 | 83 | 1008.8 |
| 20260507032500 | 48 | 247 | 4.3 | 8.7 | 0.00 | 0.01 | 0.00 | 83 | 1008.8 |
| 20260507032429 | 47 | 254 | 4.3 | 8.7 | 0.00 | 0.01 | 0.00 | 83 | 1008.8 |
| 20260507032329 | 48 | 259 | 3.5 | 8.7 | 0.00 | 0.01 | 0.00 | 83 | 1008.8 |
| 20260507032228 | 48 | 275 | 4.3 | 8.7 | 0.00 | 0.01 | 0.00 | 83 | 1008.8 |
| 20260507032223 | 48 | 235 | 4.3 | 8.7 | 0.00 | 0.01 | 0.00 | 83 | 1008.8 |
| 20260507032219 | 48 | 264 | 4.3 | 8.7 | 0.00 | 0.01 | 0.00 | 83 | 1008.7 |
| 20260507032211 | 48 | 231 | 4.3 | 8.7 | 0.00 | 0.01 | 0.00 | 83 | 1008.8 |
| 20260507031929 | 48 | 274 | 4.3 | 8.7 | 0.00 | 0.01 | 0.00 | 83 | 1008.8 |
| 20260507031829 | 48 | 244 | 4.3 | 7.8 | 0.00 | 0.01 | 0.00 | 83 | 1008.8 |
| 20260507031729 | 48 | 259 | 3.5 | 7.8 | 0.00 | 0.01 | 0.00 | 83 | 1008.8 |
| 20260507031629 | 47 | 240 | 3.5 | 7.0 | 0.00 | 0.01 | 0.00 | 83 | 1008.8 |
| 20260507031529 | 48 | 240 | 3.5 | 7.0 | 0.00 | 0.01 | 0.00 | 83 | 1008.8 |
| 20260507031501 | 47 | 260 | 3.5 | 7.0 | 0.00 | 0.01 | 0.00 | 83 | 1008.8 |
| 20260507031429 | 48 | 252 | 3.5 | 7.0 | 0.00 | 0.01 | 0.00 | 83 | 1008.8 |
| 20260507031329 | 47 | 257 | 3.5 | 7.0 | 0.00 | 0.01 | 0.00 | 83 | 1008.8 |
| 20260507031228 | 47 | 253 | 3.5 | 7.0 | 0.00 | 0.01 | 0.00 | 83 | 1008.8 |
| 20260507031128 | 47 | 219 | 3.5 | 7.8 | 0.00 | 0.01 | 0.00 | 83 | 1008.8 |
| 20260507031029 | 47 | 233 | 3.5 | 7.8 | 0.00 | 0.01 | 0.00 | 83 | 1008.8 |
| 20260507031001 | 47 | 250 | 3.5 | 7.8 | 0.00 | 0.01 | 0.00 | 83 | 1008.7 |
| 20260507030928 | 48 | 247 | 3.5 | 7.8 | 0.00 | 0.01 | 0.00 | 83 | 1008.7 |
| 20260507030828 | 48 | 233 | 3.5 | 7.8 | 0.00 | 0.01 | 0.00 | 83 | 1008.8 |
| 20260507030729 | 47 | 253 | 3.5 | 7.8 | 0.00 | 0.01 | 0.00 | 83 | 1008.7 |
| 20260507030629 | 47 | 228 | 3.5 | 7.8 | 0.00 | 0.01 | 0.00 | 83 | 1008.8 |
| 20260507030529 | 47 | 223 | 3.5 | 8.7 | 0.00 | 0.01 | 0.00 | 83 | 1008.8 |
| 20260507030440 | 47 | 232 | 3.5 | 8.7 | 0.00 | 0.01 | 0.00 | 83 | 1008.7 |
| 20260507030432 | 47 | 228 | 3.5 | 8.7 | 0.00 | 0.01 | 0.00 | 83 | 1008.8 |
| 20260507030428 | 47 | 267 | 3.5 | 8.7 | 0.00 | 0.01 | 0.00 | 83 | 1008.7 |
| 20260507030424 | 47 | 273 | 3.5 | 8.7 | 0.00 | 0.01 | 0.00 | 83 | 1008.8 |
| 20260507030209 | 47 | 221 | 3.5 | 8.7 | 0.00 | 0.01 | 0.00 | 83 | 1008.8 |
| 20260507030205 | 47 | 223 | 3.5 | 8.7 | 0.00 | 0.01 | 0.00 | 83 | 1008.7 |
| 20260507025929 | 47 | 246 | 3.5 | 8.7 | 0.00 | 0.01 | 0.00 | 83 | 1008.7 |
| 20260507025829 | 47 | 276 | 3.5 | 8.7 | 0.00 | 0.01 | 0.00 | 83 | 1008.7 |
| 20260507025729 | 47 | 243 | 3.5 | 8.7 | 0.00 | 0.01 | 0.00 | 83 | 1008.7 |
| 20260507025629 | 47 | 242 | 3.5 | 8.7 | 0.00 | 0.01 | 0.00 | 83 | 1008.8 |
| 20260507025531 | 47 | 211 | 3.5 | 8.7 | 0.00 | 0.01 | 0.00 | 83 | 1008.7 |
| 20260507025445 | 47 | 215 | 3.5 | 8.7 | 0.00 | 0.01 | 0.00 | 83 | 1008.7 |
| 20260507025429 | 47 | 243 | 3.5 | 8.7 | 0.00 | 0.01 | 0.00 | 83 | 1008.7 |
| 20260507025328 | 47 | 262 | 4.3 | 8.7 | 0.00 | 0.01 | 0.00 | 83 | 1008.7 |
| 20260507025228 | 47 | 270 | 4.3 | 8.7 | 0.00 | 0.01 | 0.00 | 83 | 1008.7 |
| 20260507025128 | 47 | 248 | 3.5 | 8.7 | 0.00 | 0.01 | 0.00 | 83 | 1008.8 |
| 20260507025029 | 47 | 237 | 3.5 | 8.7 | 0.00 | 0.01 | 0.00 | 83 | 1008.7 |
| 20260507024938 | 47 | 252 | 3.5 | 8.7 | 0.00 | 0.01 | 0.00 | 83 | 1008.7 |
| 20260507024929 | 47 | 215 | 3.5 | 8.7 | 0.00 | 0.01 | 0.00 | 83 | 1008.7 |
| 20260507024829 | 47 | 259 | 3.5 | 8.7 | 0.00 | 0.01 | 0.00 | 83 | 1008.7 |
| 20260507024729 | 47 | 300 | 3.5 | 7.8 | 0.00 | 0.01 | 0.00 | 83 | 1008.7 |
| 20260507024629 | 47 | 259 | 3.5 | 7.8 | 0.00 | 0.01 | 0.00 | 83 | 1008.7 |
| 20260507024529 | 47 | 246 | 3.5 | 7.8 | 0.00 | 0.01 | 0.00 | 83 | 1008.7 |
| 20260507024429 | 47 | 263 | 3.5 | 7.8 | 0.00 | 0.01 | 0.00 | 83 | 1008.8 |
| 20260507024423 | 47 | 267 | 4.3 | 8.7 | 0.00 | 0.01 | 0.00 | 83 | 1008.7 |
| 20260507024414 | 47 | 271 | 4.3 | 8.7 | 0.00 | 0.01 | 0.00 | 83 | 1008.8 |
| 20260507024410 | 47 | 231 | 4.3 | 8.7 | 0.00 | 0.01 | 0.00 | 83 | 1008.7 |
| 20260507024152 | 47 | 223 | 4.3 | 8.7 | 0.00 | 0.01 | 0.00 | 83 | 1008.7 |
| 20260507024148 | 47 | 217 | 4.3 | 8.7 | 0.00 | 0.01 | 0.00 | 83 | 1008.7 |
| 20260507023928 | 47 | 272 | 4.3 | 8.7 | 0.00 | 0.01 | 0.00 | 83 | 1008.7 |
| 20260507023828 | 47 | 273 | 4.3 | 8.7 | 0.00 | 0.01 | 0.00 | 83 | 1008.7 |
| 20260507023629 | 47 | 267 | 4.3 | 8.7 | 0.00 | 0.01 | 0.00 | 83 | 1008.7 |
| 20260507023529 | 47 | 254 | 4.3 | 8.7 | 0.00 | 0.01 | 0.00 | 83 | 1008.8 |
| 20260507023433 | 47 | 255 | 4.3 | 8.7 | 0.00 | 0.01 | 0.00 | 83 | 1008.8 |
| 20260507023429 | 47 | 269 | 4.3 | 8.7 | 0.00 | 0.01 | 0.00 | 83 | 1008.8 |
| 20260507023419 | 47 | 265 | 4.3 | 10.4 | 0.00 | 0.01 | 0.00 | 83 | 1008.7 |
| 20260507023410 | 47 | 249 | 4.3 | 10.4 | 0.00 | 0.01 | 0.00 | 83 | 1008.7 |
| 20260507023152 | 47 | 256 | 4.3 | 10.4 | 0.00 | 0.01 | 0.00 | 83 | 1008.7 |
| 20260507023148 | 47 | 263 | 4.3 | 10.4 | 0.00 | 0.01 | 0.00 | 83 | 1008.7 |
| 20260507022929 | 47 | 234 | 4.3 | 10.4 | 0.00 | 0.01 | 0.00 | 83 | 1008.7 |
| 20260507022829 | 47 | 263 | 4.3 | 10.4 | 0.00 | 0.01 | 0.00 | 83 | 1008.8 |
| 20260507022729 | 47 | 255 | 4.3 | 10.4 | 0.00 | 0.01 | 0.00 | 83 | 1008.7 |
| 20260507022628 | 47 | 265 | 4.3 | 10.4 | 0.00 | 0.01 | 0.00 | 84 | 1008.7 |
| 20260507022528 | 47 | 261 | 4.3 | 10.4 | 0.00 | 0.01 | 0.00 | 83 | 1008.7 |
| 20260507022432 | 47 | 261 | 4.3 | 10.4 | 0.00 | 0.01 | 0.00 | 83 | 1008.7 |
| 20260507022428 | 47 | 243 | 4.3 | 10.4 | 0.00 | 0.01 | 0.00 | 83 | 1008.7 |
| 20260507022329 | 47 | 248 | 4.3 | 10.4 | 0.00 | 0.01 | 0.00 | 84 | 1008.7 |
| 20260507022229 | 47 | 238 | 4.3 | 9.6 | 0.00 | 0.01 | 0.00 | 84 | 1008.7 |
| 20260507022129 | 47 | 241 | 4.3 | 9.6 | 0.00 | 0.01 | 0.00 | 84 | 1008.7 |
| 20260507022029 | 47 | 263 | 4.3 | 9.6 | 0.00 | 0.01 | 0.00 | 84 | 1008.8 |
| 20260507021933 | 47 | 241 | 4.3 | 9.6 | 0.00 | 0.01 | 0.00 | 84 | 1008.7 |
| 20260507021929 | 47 | 252 | 4.3 | 9.6 | 0.00 | 0.01 | 0.00 | 84 | 1008.7 |
| 20260507021829 | 47 | 236 | 4.3 | 8.7 | 0.00 | 0.01 | 0.00 | 85 | 1008.7 |
| 20260507021729 | 47 | 214 | 4.3 | 8.7 | 0.00 | 0.01 | 0.00 | 85 | 1008.7 |
| 20260507021629 | 47 | 275 | 4.3 | 8.7 | 0.00 | 0.01 | 0.00 | 85 | 1008.7 |
| 20260507021529 | 47 | 265 | 3.5 | 8.7 | 0.00 | 0.01 | 0.00 | 85 | 1008.7 |
| 20260507021433 | 47 | 241 | 3.5 | 8.7 | 0.00 | 0.01 | 0.00 | 85 | 1008.6 |
| 20260507021429 | 47 | 263 | 3.5 | 8.7 | 0.00 | 0.01 | 0.00 | 85 | 1008.6 |
| 20260507021329 | 47 | 266 | 3.5 | 8.7 | 0.00 | 0.01 | 0.00 | 85 | 1008.7 |
| 20260507021229 | 47 | 236 | 3.5 | 8.7 | 0.00 | 0.01 | 0.00 | 85 | 1008.7 |
| 20260507021128 | 47 | 267 | 3.5 | 8.7 | 0.00 | 0.01 | 0.00 | 85 | 1008.6 |
| 20260507021028 | 47 | 240 | 3.5 | 7.8 | 0.00 | 0.01 | 0.00 | 85 | 1008.6 |
| 20260507020929 | 47 | 269 | 3.5 | 7.8 | 0.00 | 0.01 | 0.00 | 85 | 1008.6 |
| 20260507020829 | 47 | 267 | 3.5 | 7.8 | 0.00 | 0.01 | 0.00 | 85 | 1008.4 |
| 20260507020729 | 47 | 258 | 3.5 | 7.8 | 0.00 | 0.01 | 0.00 | 85 | 1008.4 |
| 20260507020629 | 47 | 229 | 3.5 | 7.8 | 0.00 | 0.01 | 0.00 | 85 | 1008.4 |
| 20260507020529 | 47 | 248 | 3.5 | 7.8 | 0.00 | 0.01 | 0.00 | 85 | 1008.4 |
| 20260507020433 | 47 | 250 | 3.5 | 7.8 | 0.00 | 0.01 | 0.00 | 85 | 1008.4 |
| 20260507020429 | 47 | 243 | 3.5 | 7.8 | 0.00 | 0.01 | 0.00 | 85 | 1008.4 |
| 20260507020329 | 47 | 248 | 2.6 | 7.8 | 0.00 | 0.01 | 0.00 | 85 | 1008.4 |
| 20260507020229 | 47 | 231 | 2.6 | 7.0 | 0.00 | 0.01 | 0.00 | 85 | 1008.3 |
| 20260507020128 | 47 | 250 | 2.6 | 7.0 | 0.00 | 0.01 | 0.00 | 85 | 1008.3 |
| 20260507020028 | 47 | 263 | 2.6 | 7.0 | 0.00 | 0.01 | 0.00 | 85 | 1008.3 |
| 20260507015928 | 47 | 254 | 3.5 | 7.0 | 0.00 | 0.01 | 0.00 | 85 | 1008.3 |
| 20260507015828 | 47 | 221 | 3.5 | 7.0 | 0.00 | 0.01 | 0.00 | 85 | 1008.4 |
| 20260507015728 | 47 | 224 | 3.5 | 7.0 | 0.00 | 0.01 | 0.00 | 85 | 1008.4 |
| 20260507015628 | 47 | 276 | 3.5 | 7.0 | 0.00 | 0.01 | 0.00 | 85 | 1008.4 |
| 20260507015528 | 47 | 278 | 3.5 | 7.0 | 0.00 | 0.01 | 0.00 | 85 | 1008.4 |
| 20260507015429 | 47 | 262 | 3.5 | 7.0 | 0.00 | 0.01 | 0.00 | 85 | 1008.4 |
| 20260507015329 | 47 | 240 | 3.5 | 7.0 | 0.00 | 0.01 | 0.00 | 85 | 1008.4 |
| 20260507015228 | 47 | 241 | 3.5 | 7.0 | 0.00 | 0.01 | 0.00 | 85 | 1008.6 |
| 20260507015128 | 47 | 286 | 3.5 | 7.0 | 0.00 | 0.01 | 0.00 | 85 | 1008.4 |
| 20260507015028 | 47 | 271 | 3.5 | 7.0 | 0.00 | 0.01 | 0.00 | 85 | 1008.4 |
| 20260507014928 | 47 | 279 | 3.5 | 7.0 | 0.00 | 0.01 | 0.00 | 85 | 1008.4 |
| 20260507014828 | 47 | 277 | 3.5 | 7.0 | 0.00 | 0.01 | 0.00 | 85 | 1008.4 |
| 20260507014729 | 47 | 274 | 2.6 | 7.0 | 0.00 | 0.01 | 0.00 | 85 | 1008.4 |
| 20260507014629 | 47 | 259 | 2.6 | 7.0 | 0.00 | 0.01 | 0.00 | 85 | 1008.4 |
| 20260507014529 | 47 | 247 | 3.5 | 7.0 | 0.00 | 0.01 | 0.00 | 85 | 1008.4 |
| 20260507014428 | 47 | 267 | 2.6 | 7.0 | 0.00 | 0.01 | 0.00 | 85 | 1008.4 |
| 20260507014329 | 47 | 231 | 2.6 | 7.0 | 0.00 | 0.01 | 0.00 | 85 | 1008.6 |
| 20260507014229 | 47 | 244 | 2.6 | 7.0 | 0.00 | 0.01 | 0.00 | 85 | 1008.4 |
| 20260507014129 | 47 | 263 | 2.6 | 7.0 | 0.00 | 0.01 | 0.00 | 85 | 1008.4 |
| 20260507014025 | 47 | 272 | 2.6 | 7.0 | 0.00 | 0.01 | 0.00 | 85 | 1008.4 |
| 20260507013923 | 47 | 272 | 2.6 | 7.0 | 0.00 | 0.01 | 0.00 | 85 | 1008.4 |
| 20260507013820 | 47 | 248 | 2.6 | 7.0 | 0.00 | 0.01 | 0.00 | 85 | 1008.4 |
| 20260507013720 | 47 | 255 | 3.5 | 7.0 | 0.00 | 0.01 | 0.00 | 85 | 1008.4 |
| 20260507013620 | 47 | 246 | 3.5 | 7.0 | 0.00 | 0.01 | 0.00 | 85 | 1008.6 |
| 20260507013514 | 47 | 267 | 3.5 | 7.0 | 0.00 | 0.01 | 0.00 | 85 | 1008.4 |
| 20260507013430 | 47 | 249 | 3.5 | 7.0 | 0.00 | 0.01 | 0.00 | 85 | 1008.4 |
| 20260507013415 | 47 | 275 | 3.5 | 7.0 | 0.00 | 0.01 | 0.00 | 85 | 1008.4 |
| 20260507013315 | 47 | 275 | 3.5 | 7.0 | 0.00 | 0.01 | 0.00 | 85 | 1008.6 |
| 20260507013215 | 47 | 265 | 3.5 | 7.0 | 0.00 | 0.01 | 0.00 | 85 | 1008.6 |
| 20260507013115 | 47 | 247 | 3.5 | 7.0 | 0.00 | 0.01 | 0.00 | 85 | 1008.6 |
| 20260507013015 | 47 | 269 | 3.5 | 7.0 | 0.00 | 0.01 | 0.00 | 85 | 1008.4 |
| 20260507012931 | 47 | 279 | 3.5 | 7.0 | 0.00 | 0.01 | 0.00 | 85 | 1008.4 |
| 20260507012912 | 47 | 267 | 3.5 | 7.0 | 0.00 | 0.01 | 0.00 | 85 | 1008.4 |
| 20260507012812 | 47 | 279 | 2.6 | 7.0 | 0.00 | 0.01 | 0.00 | 85 | 1008.4 |
| 20260507012713 | 47 | 261 | 2.6 | 7.0 | 0.00 | 0.01 | 0.00 | 85 | 1008.4 |
| 20260507012613 | 47 | 247 | 2.6 | 7.0 | 0.00 | 0.01 | 0.00 | 85 | 1008.4 |
| 20260507012513 | 47 | 263 | 2.6 | 7.0 | 0.00 | 0.01 | 0.00 | 85 | 1008.4 |
| 20260507012412 | 47 | 254 | 2.6 | 7.0 | 0.00 | 0.01 | 0.00 | 85 | 1008.4 |
| 20260507012312 | 47 | 246 | 2.6 | 6.1 | 0.00 | 0.01 | 0.00 | 85 | 1008.4 |
| 20260507012213 | 47 | 244 | 2.6 | 6.1 | 0.00 | 0.01 | 0.00 | 85 | 1008.3 |
| 20260507012112 | 47 | 242 | 2.6 | 6.1 | 0.00 | 0.01 | 0.00 | 85 | 1008.3 |
| 20260507012012 | 47 | 275 | 2.6 | 6.1 | 0.00 | 0.01 | 0.00 | 85 | 1008.4 |
| 20260507011913 | 47 | 214 | 2.6 | 6.1 | 0.00 | 0.01 | 0.00 | 85 | 1008.3 |
| 20260507011807 | 47 | 279 | 2.6 | 6.1 | 0.00 | 0.01 | 0.00 | 85 | 1008.3 |
| 20260507011707 | 47 | 266 | 2.6 | 6.1 | 0.00 | 0.01 | 0.00 | 85 | 1008.3 |
| 20260507011606 | 47 | 255 | 2.6 | 6.1 | 0.00 | 0.01 | 0.00 | 85 | 1008.3 |
| 20260507011506 | 47 | 236 | 2.6 | 6.1 | 0.00 | 0.01 | 0.00 | 85 | 1008.3 |
| 20260507011433 | 47 | 242 | 2.6 | 6.1 | 0.00 | 0.01 | 0.00 | 85 | 1008.4 |
| 20260507011407 | 47 | 252 | 2.6 | 6.1 | 0.00 | 0.01 | 0.00 | 85 | 1008.4 |
| 20260507011307 | 47 | 257 | 2.6 | 5.2 | 0.00 | 0.01 | 0.00 | 85 | 1008.3 |
| 20260507011207 | 47 | 265 | 2.6 | 5.2 | 0.00 | 0.01 | 0.00 | 85 | 1008.3 |
| 20260507011107 | 47 | 252 | 2.6 | 5.2 | 0.00 | 0.01 | 0.00 | 85 | 1008.3 |
| 20260507011006 | 47 | 258 | 2.6 | 5.2 | 0.00 | 0.01 | 0.00 | 85 | 1008.3 |
| 20260507010931 | 47 | 261 | 2.6 | 5.2 | 0.00 | 0.01 | 0.00 | 85 | 1008.3 |
| 20260507010907 | 47 | 249 | 2.6 | 5.2 | 0.00 | 0.01 | 0.00 | 85 | 1008.3 |
| 20260507010806 | 47 | 225 | 2.6 | 5.2 | 0.00 | 0.01 | 0.00 | 85 | 1008.3 |
| 20260507010706 | 47 | 248 | 2.6 | 5.2 | 0.00 | 0.01 | 0.00 | 85 | 1008.3 |
| 20260507010651 | 47 | 208 | 2.6 | 6.1 | 0.00 | 0.01 | 0.00 | 85 | 1008.2 |
| 20260507010645 | 47 | 263 | 2.6 | 5.2 | 0.00 | 0.01 | 0.00 | 85 | 1008.3 |
| 20260507010641 | 47 | 217 | 2.6 | 6.1 | 0.00 | 0.01 | 0.00 | 85 | 1008.3 |
| 20260507010403 | 47 | 250 | 2.6 | 6.1 | 0.00 | 0.01 | 0.00 | 85 | 1008.2 |
| 20260507010303 | 47 | 241 | 2.6 | 6.1 | 0.00 | 0.01 | 0.00 | 85 | 1008.3 |
| 20260507010203 | 47 | 221 | 2.6 | 6.1 | 0.00 | 0.01 | 0.00 | 85 | 1008.3 |
| 20260507010002 | 47 | 252 | 2.6 | 6.1 | 0.00 | 0.01 | 0.00 | 85 | 1008.3 |
| 20260507005902 | 47 | 234 | 2.6 | 6.1 | 0.00 | 0.01 | 0.00 | 85 | 1008.3 |
| 20260507005803 | 47 | 241 | 2.6 | 6.1 | 0.00 | 0.01 | 0.00 | 85 | 1008.3 |
| 20260507005703 | 47 | 258 | 2.6 | 6.1 | 0.00 | 0.01 | 0.00 | 85 | 1008.3 |
| 20260507005603 | 47 | 240 | 2.6 | 6.1 | 0.00 | 0.01 | 0.00 | 85 | 1008.3 |
| 20260507005502 | 47 | 254 | 2.6 | 5.2 | 0.00 | 0.01 | 0.00 | 85 | 1008.3 |
| 20260507005429 | 47 | 228 | 2.6 | 5.2 | 0.00 | 0.01 | 0.00 | 84 | 1008.3 |
| 20260507005400 | 47 | 237 | 2.6 | 5.2 | 0.00 | 0.01 | 0.00 | 84 | 1008.3 |
| 20260507005301 | 47 | 280 | 2.6 | 5.2 | 0.00 | 0.01 | 0.00 | 84 | 1008.3 |
| 20260507005201 | 47 | 246 | 2.6 | 5.2 | 0.00 | 0.01 | 0.00 | 84 | 1008.3 |
| 20260507005101 | 47 | 235 | 2.6 | 5.2 | 0.00 | 0.01 | 0.00 | 84 | 1008.3 |
| 20260507005001 | 47 | 245 | 2.6 | 5.2 | 0.00 | 0.01 | 0.00 | 84 | 1008.3 |
| 20260507004928 | 47 | 214 | 2.6 | 5.2 | 0.00 | 0.01 | 0.00 | 84 | 1008.3 |
| 20260507004901 | 47 | 236 | 2.6 | 5.2 | 0.00 | 0.01 | 0.00 | 84 | 1008.3 |
| 20260507004801 | 47 | 236 | 2.6 | 5.2 | 0.00 | 0.01 | 0.00 | 84 | 1008.4 |
| 20260507004700 | 47 | 267 | 2.6 | 6.1 | 0.00 | 0.01 | 0.00 | 84 | 1008.4 |
| 20260507004600 | 47 | 247 | 2.6 | 6.1 | 0.00 | 0.01 | 0.00 | 84 | 1008.3 |
| 20260507004500 | 47 | 221 | 2.6 | 6.1 | 0.00 | 0.01 | 0.00 | 84 | 1008.3 |
| 20260507004430 | 47 | 220 | 2.6 | 6.1 | 0.00 | 0.01 | 0.00 | 84 | 1008.3 |
| 20260507004401 | 47 | 232 | 2.6 | 6.1 | 0.00 | 0.01 | 0.00 | 84 | 1008.3 |
| 20260507004301 | 47 | 233 | 2.6 | 6.1 | 0.00 | 0.01 | 0.00 | 84 | 1008.3 |
| 20260507004201 | 47 | 229 | 2.6 | 6.1 | 0.00 | 0.01 | 0.00 | 84 | 1008.2 |
| 20260507004100 | 47 | 242 | 2.6 | 7.0 | 0.00 | 0.01 | 0.00 | 84 | 1008.2 |
| 20260507004000 | 47 | 213 | 2.6 | 7.0 | 0.00 | 0.01 | 0.00 | 84 | 1008.3 |
| 20260507003929 | 47 | 232 | 3.5 | 7.0 | 0.00 | 0.01 | 0.00 | 84 | 1008.2 |
| 20260507003900 | 47 | 252 | 3.5 | 7.0 | 0.00 | 0.01 | 0.00 | 84 | 1008.2 |
| 20260507003801 | 47 | 269 | 3.5 | 7.0 | 0.00 | 0.01 | 0.00 | 84 | 1008.2 |
| 20260507003701 | 47 | 226 | 3.5 | 7.0 | 0.00 | 0.01 | 0.00 | 84 | 1008.2 |
| 20260507003601 | 47 | 234 | 3.5 | 7.8 | 0.00 | 0.01 | 0.00 | 84 | 1008.2 |
| 20260507003501 | 47 | 275 | 3.5 | 7.8 | 0.00 | 0.01 | 0.00 | 84 | 1008.2 |
| 20260507003428 | 47 | 274 | 3.5 | 7.8 | 0.00 | 0.01 | 0.00 | 84 | 1008.2 |
| 20260507003401 | 47 | 263 | 3.5 | 7.8 | 0.00 | 0.01 | 0.00 | 84 | 1008.2 |
| 20260507003300 | 47 | 271 | 3.5 | 7.8 | 0.00 | 0.01 | 0.00 | 84 | 1008.3 |
| 20260507003200 | 47 | 264 | 3.5 | 7.8 | 0.00 | 0.01 | 0.00 | 84 | 1008.3 |
| 20260507003100 | 47 | 261 | 3.5 | 7.8 | 0.00 | 0.01 | 0.00 | 84 | 1008.3 |
| 20260507003000 | 47 | 245 | 2.6 | 7.8 | 0.00 | 0.01 | 0.00 | 84 | 1008.3 |
| 20260507002929 | 47 | 261 | 2.6 | 7.8 | 0.00 | 0.01 | 0.00 | 83 | 1008.3 |
| 20260507002900 | 47 | 255 | 2.6 | 7.8 | 0.00 | 0.01 | 0.00 | 83 | 1008.3 |
| 20260507002800 | 48 | 251 | 2.6 | 7.8 | 0.00 | 0.01 | 0.00 | 83 | 1008.3 |
| 20260507002700 | 48 | 263 | 2.6 | 7.8 | 0.00 | 0.01 | 0.00 | 83 | 1008.4 |
| 20260507002601 | 48 | 273 | 2.6 | 6.1 | 0.00 | 0.01 | 0.00 | 83 | 1008.3 |
| 20260507002501 | 48 | 234 | 2.6 | 6.1 | 0.00 | 0.01 | 0.00 | 83 | 1008.3 |
| 20260507002406 | 48 | 265 | 2.6 | 6.1 | 0.00 | 0.01 | 0.00 | 83 | 1008.3 |
| 20260507002300 | 48 | 235 | 2.6 | 6.1 | 0.00 | 0.01 | 0.00 | 83 | 1008.3 |
| 20260507002201 | 48 | 247 | 2.6 | 6.1 | 0.00 | 0.01 | 0.00 | 83 | 1008.3 |
| 20260507002101 | 48 | 248 | 2.6 | 6.1 | 0.00 | 0.01 | 0.00 | 83 | 1008.3 |
| 20260507002001 | 48 | 244 | 3.5 | 6.1 | 0.00 | 0.01 | 0.00 | 83 | 1008.3 |
| 20260507001929 | 48 | 233 | 2.6 | 6.1 | 0.00 | 0.01 | 0.00 | 83 | 1008.2 |
| 20260507001902 | 48 | 263 | 2.6 | 6.1 | 0.00 | 0.01 | 0.00 | 83 | 1008.2 |
| 20260507001800 | 48 | 275 | 2.6 | 6.1 | 0.00 | 0.01 | 0.00 | 83 | 1008.3 |
| 20260507001700 | 48 | 265 | 2.6 | 6.1 | 0.00 | 0.01 | 0.00 | 83 | 1008.2 |
| 20260507001600 | 48 | 271 | 2.6 | 6.1 | 0.00 | 0.01 | 0.00 | 83 | 1008.3 |
| 20260507001501 | 48 | 247 | 2.6 | 6.1 | 0.00 | 0.01 | 0.00 | 83 | 1008.3 |
| 20260507001429 | 48 | 245 | 2.6 | 6.1 | 0.00 | 0.01 | 0.00 | 83 | 1008.3 |
| 20260507001401 | 48 | 249 | 2.6 | 6.1 | 0.00 | 0.01 | 0.00 | 83 | 1008.3 |
| 20260507001301 | 48 | 250 | 2.6 | 5.2 | 0.00 | 0.01 | 0.00 | 83 | 1008.3 |
| 20260507001201 | 48 | 219 | 2.6 | 5.2 | 0.00 | 0.01 | 0.00 | 83 | 1008.2 |
| 20260507001101 | 48 | 261 | 2.6 | 5.2 | 0.00 | 0.01 | 0.00 | 83 | 1008.3 |
| 20260507001000 | 48 | 265 | 2.6 | 5.2 | 0.00 | 0.01 | 0.00 | 83 | 1008.3 |
| 20260507000929 | 48 | 286 | 2.6 | 5.2 | 0.00 | 0.01 | 0.00 | 83 | 1008.3 |
| 20260507000901 | 48 | 281 | 2.6 | 5.2 | 0.00 | 0.01 | 0.00 | 83 | 1008.3 |
| 20260507000800 | 48 | 248 | 2.6 | 4.3 | 0.00 | 0.01 | 0.00 | 83 | 1008.3 |
| 20260507000700 | 48 | 245 | 1.7 | 4.3 | 0.00 | 0.01 | 0.00 | 83 | 1008.4 |
| 20260507000600 | 48 | 233 | 2.6 | 4.3 | 0.00 | 0.01 | 0.00 | 83 | 1008.4 |
| 20260507000500 | 48 | 264 | 2.6 | 4.3 | 0.00 | 0.01 | 0.00 | 83 | 1008.4 |
| 20260507000428 | 48 | 259 | 1.7 | 4.3 | 0.00 | 0.01 | 0.00 | 83 | 1008.3 |
| 20260507000401 | 48 | 265 | 1.7 | 4.3 | 0.00 | 0.01 | 0.00 | 83 | 1008.3 |
| 20260507000300 | 48 | 248 | 2.6 | 5.2 | 0.00 | 0.01 | 0.00 | 83 | 1008.3 |
| 20260507000201 | 48 | 248 | 2.6 | 5.2 | 0.00 | 0.01 | 0.00 | 83 | 1008.3 |
| 20260507000101 | 48 | 232 | 2.6 | 6.1 | 0.00 | 0.01 | 0.00 | 83 | 1008.3 |
| 20260507000001 | 48 | 224 | 2.6 | 6.1 | 0.00 | 0.01 | 0.00 | 83 | 1008.3 |
| 20260506235901 | 48 | 235 | 2.6 | 6.1 | 0.00 | 0.01 | 0.00 | 83 | 1008.4 |
| 20260506235800 | 48 | 229 | 2.6 | 6.1 | 0.00 | 0.01 | 0.00 | 83 | 1008.3 |
| 20260506235700 | 49 | 229 | 2.6 | 7.0 | 0.00 | 0.01 | 0.00 | 83 | 1008.3 |
| 20260506235600 | 49 | 258 | 2.6 | 7.0 | 0.00 | 0.01 | 0.00 | 83 | 1008.3 |
| 20260506235501 | 49 | 242 | 2.6 | 7.0 | 0.00 | 0.01 | 0.00 | 83 | 1008.3 |
| 20260506235428 | 49 | 242 | 3.5 | 7.0 | 0.00 | 0.01 | 0.00 | 83 | 1008.3 |
| 20260506235402 | 49 | 265 | 3.5 | 7.0 | 0.00 | 0.01 | 0.00 | 83 | 1008.3 |
| 20260506235300 | 49 | 265 | 3.5 | 7.0 | 0.00 | 0.01 | 0.00 | 83 | 1008.4 |
| 20260506235200 | 49 | 265 | 3.5 | 7.0 | 0.00 | 0.01 | 0.00 | 83 | 1008.4 |
| 20260506235100 | 49 | 296 | 3.5 | 7.0 | 0.00 | 0.01 | 0.00 | 83 | 1008.4 |
| 20260506235000 | 49 | 275 | 3.5 | 7.8 | 0.00 | 0.01 | 0.00 | 83 | 1008.4 |
| 20260506234929 | 49 | 277 | 3.5 | 7.8 | 0.00 | 0.01 | 0.00 | 83 | 1008.4 |
| 20260506234801 | 49 | 239 | 3.5 | 7.8 | 0.00 | 0.01 | 0.00 | 83 | 1008.4 |
| 20260506234700 | 49 | 256 | 3.5 | 8.7 | 0.00 | 0.01 | 0.00 | 83 | 1008.4 |
| 20260506234654 | 49 | 273 | 3.5 | 8.7 | 0.00 | 0.01 | 0.00 | 83 | 1008.4 |
| 20260506234644 | 49 | 263 | 3.5 | 8.7 | 0.00 | 0.01 | 0.00 | 83 | 1008.4 |
| 20260506234640 | 49 | 265 | 3.5 | 8.7 | 0.00 | 0.01 | 0.00 | 83 | 1008.4 |
| 20260506234401 | 49 | 253 | 3.5 | 8.7 | 0.00 | 0.01 | 0.00 | 83 | 1008.4 |
| 20260506234300 | 49 | 245 | 3.5 | 8.7 | 0.00 | 0.01 | 0.00 | 83 | 1008.4 |
| 20260506234200 | 49 | 225 | 3.5 | 8.7 | 0.00 | 0.01 | 0.00 | 83 | 1008.4 |
| 20260506234100 | 49 | 266 | 3.5 | 8.7 | 0.00 | 0.01 | 0.00 | 83 | 1008.4 |
| 20260506234000 | 49 | 277 | 3.5 | 8.7 | 0.00 | 0.01 | 0.00 | 83 | 1008.4 |
| 20260506233929 | 49 | 241 | 3.5 | 8.7 | 0.00 | 0.01 | 0.00 | 83 | 1008.4 |
| 20260506233901 | 49 | 281 | 3.5 | 8.7 | 0.00 | 0.01 | 0.00 | 83 | 1008.4 |
| 20260506233801 | 49 | 269 | 3.5 | 8.7 | 0.00 | 0.01 | 0.00 | 83 | 1008.4 |
| 20260506233701 | 49 | 300 | 3.5 | 7.8 | 0.00 | 0.01 | 0.00 | 83 | 1008.3 |
| 20260506233655 | 49 | 269 | 3.5 | 7.8 | 0.00 | 0.01 | 0.00 | 83 | 1008.3 |
| 20260506233644 | 49 | 235 | 3.5 | 7.8 | 0.00 | 0.01 | 0.00 | 83 | 1008.3 |
| 20260506233640 | 49 | 268 | 3.5 | 7.8 | 0.00 | 0.01 | 0.00 | 83 | 1008.3 |
| 20260506233401 | 49 | 261 | 3.5 | 7.8 | 0.00 | 0.01 | 0.00 | 83 | 1008.3 |
| 20260506233300 | 49 | 277 | 3.5 | 7.8 | 0.00 | 0.01 | 0.00 | 83 | 1008.3 |
| 20260506233200 | 49 | 284 | 3.5 | 7.8 | 0.00 | 0.01 | 0.00 | 83 | 1008.4 |
| 20260506233100 | 49 | 271 | 3.5 | 7.8 | 0.00 | 0.01 | 0.00 | 83 | 1008.4 |
| 20260506233001 | 49 | 252 | 4.3 | 7.8 | 0.00 | 0.01 | 0.00 | 83 | 1008.4 |
| 20260506232928 | 49 | 262 | 4.3 | 7.8 | 0.00 | 0.01 | 0.00 | 83 | 1008.4 |
| 20260506232901 | 49 | 273 | 4.3 | 7.8 | 0.00 | 0.01 | 0.00 | 83 | 1008.4 |
| 20260506232801 | 49 | 267 | 4.3 | 7.8 | 0.00 | 0.01 | 0.00 | 83 | 1008.4 |
| 20260506232700 | 49 | 213 | 4.3 | 7.8 | 0.00 | 0.01 | 0.00 | 83 | 1008.4 |
| 20260506232653 | 49 | 272 | 4.3 | 7.8 | 0.00 | 0.01 | 0.00 | 83 | 1008.3 |
| 20260506232644 | 49 | 223 | 4.3 | 7.8 | 0.00 | 0.01 | 0.00 | 83 | 1008.3 |
| 20260506232640 | 49 | 275 | 4.3 | 7.8 | 0.00 | 0.01 | 0.00 | 83 | 1008.4 |
| 20260506232401 | 49 | 275 | 4.3 | 7.8 | 0.00 | 0.01 | 0.00 | 83 | 1008.3 |
| 20260506232301 | 49 | 252 | 4.3 | 7.8 | 0.00 | 0.01 | 0.00 | 83 | 1008.4 |
| 20260506232201 | 49 | 269 | 4.3 | 7.8 | 0.00 | 0.01 | 0.00 | 83 | 1008.4 |
| 20260506232101 | 49 | 246 | 4.3 | 7.8 | 0.00 | 0.01 | 0.00 | 83 | 1008.4 |
| 20260506232001 | 49 | 257 | 4.3 | 7.8 | 0.00 | 0.01 | 0.00 | 83 | 1008.3 |
| 20260506231929 | 49 | 236 | 4.3 | 7.8 | 0.00 | 0.01 | 0.00 | 83 | 1008.3 |
| 20260506231901 | 49 | 247 | 4.3 | 7.8 | 0.00 | 0.01 | 0.00 | 83 | 1008.3 |
| 20260506231801 | 49 | 220 | 4.3 | 7.8 | 0.00 | 0.01 | 0.00 | 83 | 1008.3 |
| 20260506231701 | 49 | 275 | 4.3 | 7.8 | 0.00 | 0.01 | 0.00 | 83 | 1008.2 |
| 20260506231601 | 49 | 229 | 4.3 | 7.8 | 0.00 | 0.01 | 0.00 | 83 | 1008.3 |
| 20260506231501 | 49 | 251 | 4.3 | 7.8 | 0.00 | 0.01 | 0.00 | 83 | 1008.3 |
| 20260506231429 | 49 | 241 | 4.3 | 7.8 | 0.00 | 0.01 | 0.00 | 83 | 1008.3 |
| 20260506231401 | 49 | 253 | 4.3 | 7.8 | 0.00 | 0.01 | 0.00 | 83 | 1008.3 |
| 20260506231301 | 49 | 254 | 4.3 | 7.8 | 0.00 | 0.01 | 0.00 | 82 | 1008.3 |
| 20260506231201 | 49 | 295 | 3.5 | 7.8 | 0.00 | 0.01 | 0.00 | 82 | 1008.2 |
| 20260506231101 | 49 | 261 | 4.3 | 7.8 | 0.00 | 0.01 | 0.00 | 82 | 1008.2 |
| 20260506231001 | 49 | 214 | 4.3 | 7.8 | 0.00 | 0.01 | 0.00 | 82 | 1008.1 |
| 20260506230901 | 49 | 213 | 4.3 | 7.8 | 0.00 | 0.01 | 0.00 | 82 | 1008.2 |
| 20260506230801 | 49 | 229 | 4.3 | 7.8 | 0.00 | 0.01 | 0.00 | 82 | 1008.2 |
| 20260506230701 | 49 | 242 | 4.3 | 7.8 | 0.00 | 0.01 | 0.00 | 82 | 1008.1 |
| 20260506230600 | 49 | 212 | 4.3 | 7.8 | 0.00 | 0.01 | 0.00 | 82 | 1008.2 |
| 20260506230500 | 49 | 242 | 4.3 | 7.8 | 0.00 | 0.01 | 0.00 | 82 | 1008.2 |
| 20260506230429 | 49 | 219 | 4.3 | 7.8 | 0.00 | 0.01 | 0.00 | 82 | 1008.2 |
| 20260506230400 | 49 | 261 | 4.3 | 7.8 | 0.00 | 0.01 | 0.00 | 82 | 1008.2 |
| 20260506230300 | 49 | 252 | 4.3 | 8.7 | 0.00 | 0.01 | 0.00 | 82 | 1008.1 |
| 20260506230156 | 49 | 252 | 4.3 | 8.7 | 0.00 | 0.01 | 0.00 | 82 | 1008.1 |
| 20260506230057 | 49 | 240 | 4.3 | 8.7 | 0.00 | 0.01 | 0.00 | 82 | 1008.1 |
| 20260506225954 | 49 | 229 | 4.3 | 8.7 | 0.00 | 0.01 | 0.00 | 82 | 1008.1 |
| 20260506225929 | 49 | 241 | 4.3 | 8.7 | 0.00 | 0.01 | 0.00 | 82 | 1008.1 |
| 20260506225854 | 49 | 259 | 4.3 | 8.7 | 0.00 | 0.01 | 0.00 | 82 | 1008.1 |
| 20260506225754 | 49 | 265 | 4.3 | 8.7 | 0.00 | 0.01 | 0.00 | 82 | 1008.1 |
| 20260506225649 | 49 | 274 | 4.3 | 8.7 | 0.00 | 0.01 | 0.00 | 82 | 1008.1 |
| 20260506225549 | 49 | 284 | 4.3 | 8.7 | 0.00 | 0.01 | 0.00 | 82 | 1008.1 |
| 20260506225448 | 49 | 228 | 4.3 | 8.7 | 0.00 | 0.01 | 0.00 | 82 | 1008.1 |
| 20260506225429 | 49 | 257 | 4.3 | 8.7 | 0.00 | 0.01 | 0.00 | 82 | 1008.1 |
| 20260506225348 | 49 | 250 | 4.3 | 8.7 | 0.00 | 0.01 | 0.00 | 82 | 1008.1 |
| 20260506225248 | 49 | 281 | 4.3 | 8.7 | 0.00 | 0.01 | 0.00 | 82 | 1008.1 |
| 20260506225142 | 49 | 227 | 3.5 | 8.7 | 0.00 | 0.01 | 0.00 | 82 | 1008.1 |
| 20260506225042 | 49 | 263 | 3.5 | 8.7 | 0.00 | 0.01 | 0.00 | 82 | 1008.1 |
| 20260506224943 | 49 | 269 | 3.5 | 8.7 | 0.00 | 0.01 | 0.00 | 82 | 1008.1 |
| 20260506224929 | 49 | 255 | 3.5 | 8.7 | 0.00 | 0.01 | 0.00 | 82 | 1008.1 |
| 20260506224842 | 49 | 246 | 4.3 | 8.7 | 0.00 | 0.01 | 0.00 | 82 | 1008.1 |
| 20260506224741 | 49 | 236 | 3.5 | 9.6 | 0.00 | 0.01 | 0.00 | 82 | 1008.2 |
| 20260506224636 | 49 | 275 | 3.5 | 9.6 | 0.00 | 0.01 | 0.00 | 82 | 1008.1 |
| 20260506224536 | 49 | 260 | 3.5 | 9.6 | 0.00 | 0.01 | 0.00 | 82 | 1008.1 |
| 20260506224436 | 49 | 263 | 3.5 | 9.6 | 0.00 | 0.01 | 0.00 | 81 | 1008.1 |
| 20260506224429 | 49 | 271 | 3.5 | 9.6 | 0.00 | 0.01 | 0.00 | 81 | 1008.1 |
| 20260506224336 | 49 | 238 | 3.5 | 9.6 | 0.00 | 0.01 | 0.00 | 81 | 1008.1 |
| 20260506224236 | 49 | 255 | 3.5 | 9.6 | 0.00 | 0.01 | 0.00 | 81 | 1008.1 |
| 20260506224134 | 49 | 231 | 4.3 | 9.6 | 0.00 | 0.01 | 0.00 | 81 | 1008.0 |
| 20260506224034 | 49 | 271 | 4.3 | 10.4 | 0.00 | 0.01 | 0.00 | 81 | 1008.1 |
| 20260506223934 | 49 | 246 | 4.3 | 10.4 | 0.00 | 0.01 | 0.00 | 81 | 1008.1 |
| 20260506223929 | 49 | 232 | 4.3 | 10.4 | 0.00 | 0.01 | 0.00 | 81 | 1008.1 |
| 20260506223834 | 49 | 242 | 4.3 | 10.4 | 0.00 | 0.01 | 0.00 | 81 | 1008.1 |
| 20260506223733 | 49 | 262 | 4.3 | 10.4 | 0.00 | 0.01 | 0.00 | 81 | 1008.1 |
| 20260506223633 | 49 | 273 | 4.3 | 10.4 | 0.00 | 0.01 | 0.00 | 81 | 1008.1 |
| 20260506223532 | 49 | 263 | 4.3 | 10.4 | 0.00 | 0.01 | 0.00 | 81 | 1008.1 |
| 20260506223432 | 49 | 259 | 4.3 | 10.4 | 0.00 | 0.01 | 0.00 | 81 | 1008.0 |
| 20260506223428 | 49 | 258 | 4.3 | 10.4 | 0.00 | 0.01 | 0.00 | 81 | 1008.0 |
| 20260506223332 | 49 | 242 | 4.3 | 12.2 | 0.00 | 0.01 | 0.00 | 81 | 1008.0 |
| 20260506223232 | 49 | 269 | 5.2 | 12.2 | 0.00 | 0.01 | 0.00 | 81 | 1008.1 |
| 20260506223130 | 49 | 219 | 5.2 | 12.2 | 0.00 | 0.01 | 0.00 | 81 | 1008.1 |
| 20260506223030 | 49 | 236 | 5.2 | 12.2 | 0.00 | 0.01 | 0.00 | 81 | 1008.1 |
| 20260506222933 | 49 | 263 | 5.2 | 12.2 | 0.00 | 0.01 | 0.00 | 81 | 1008.1 |
| 20260506222929 | 49 | 247 | 5.2 | 12.2 | 0.00 | 0.01 | 0.00 | 81 | 1008.1 |
| 20260506222830 | 49 | 279 | 5.2 | 12.2 | 0.00 | 0.01 | 0.00 | 81 | 1008.0 |
| 20260506222730 | 49 | 241 | 5.2 | 12.2 | 0.00 | 0.01 | 0.00 | 81 | 1008.1 |
| 20260506222648 | 49 | 274 | 5.2 | 12.2 | 0.00 | 0.01 | 0.00 | 81 | 1008.0 |
| 20260506222644 | 49 | 265 | 6.1 | 12.2 | 0.00 | 0.01 | 0.00 | 81 | 1008.1 |
| 20260506222640 | 49 | 221 | 5.2 | 12.2 | 0.00 | 0.01 | 0.00 | 81 | 1008.2 |
| 20260506222330 | 49 | 238 | 5.2 | 11.3 | 0.00 | 0.01 | 0.00 | 81 | 1008.1 |
| 20260506222230 | 49 | 235 | 5.2 | 10.4 | 0.00 | 0.01 | 0.00 | 81 | 1008.1 |
| 20260506222130 | 49 | 246 | 5.2 | 10.4 | 0.00 | 0.01 | 0.00 | 81 | 1008.2 |
| 20260506222029 | 49 | 232 | 5.2 | 10.4 | 0.00 | 0.01 | 0.00 | 81 | 1008.1 |
| 20260506221928 | 49 | 268 | 5.2 | 10.4 | 0.00 | 0.01 | 0.00 | 81 | 1008.1 |
| 20260506221829 | 49 | 273 | 5.2 | 10.4 | 0.00 | 0.01 | 0.00 | 81 | 1008.1 |
| 20260506221729 | 49 | 236 | 5.2 | 10.4 | 0.00 | 0.01 | 0.00 | 81 | 1008.1 |
| 20260506221629 | 49 | 223 | 5.2 | 10.4 | 0.00 | 0.01 | 0.00 | 81 | 1008.1 |
| 20260506221529 | 49 | 252 | 5.2 | 11.3 | 0.00 | 0.01 | 0.00 | 81 | 1008.1 |
| 20260506221430 | 49 | 259 | 5.2 | 13.9 | 0.00 | 0.01 | 0.00 | 81 | 1008.0 |
| 20260506221329 | 49 | 278 | 6.1 | 13.9 | 0.00 | 0.01 | 0.00 | 81 | 1008.0 |
| 20260506221228 | 49 | 215 | 6.1 | 13.9 | 0.00 | 0.01 | 0.00 | 81 | 1008.0 |
| 20260506221129 | 49 | 219 | 5.2 | 13.9 | 0.00 | 0.01 | 0.00 | 81 | 1008.0 |
| 20260506221029 | 49 | 226 | 5.2 | 13.9 | 0.00 | 0.01 | 0.00 | 81 | 1008.0 |
| 20260506220929 | 49 | 259 | 5.2 | 13.9 | 0.00 | 0.01 | 0.00 | 81 | 1008.0 |
| 20260506220829 | 49 | 246 | 5.2 | 13.9 | 0.00 | 0.01 | 0.00 | 81 | 1008.0 |
| 20260506220728 | 49 | 261 | 5.2 | 13.9 | 0.00 | 0.01 | 0.00 | 81 | 1008.0 |
| 20260506220628 | 49 | 248 | 5.2 | 13.9 | 0.00 | 0.01 | 0.00 | 81 | 1008.1 |
| 20260506220528 | 49 | 259 | 4.3 | 13.9 | 0.00 | 0.01 | 0.00 | 81 | 1008.1 |
| 20260506220428 | 49 | 260 | 4.3 | 9.6 | 0.00 | 0.01 | 0.00 | 81 | 1007.9 |
| 20260506220329 | 49 | 222 | 4.3 | 9.6 | 0.00 | 0.01 | 0.00 | 81 | 1007.9 |
| 20260506220228 | 49 | 262 | 4.3 | 9.6 | 0.00 | 0.01 | 0.00 | 81 | 1007.9 |
| 20260506220128 | 49 | 252 | 5.2 | 9.6 | 0.00 | 0.01 | 0.00 | 82 | 1007.9 |
| 20260506220028 | 49 | 254 | 5.2 | 9.6 | 0.00 | 0.01 | 0.00 | 81 | 1007.9 |
| 20260506215929 | 49 | 219 | 5.2 | 9.6 | 0.00 | 0.01 | 0.01 | 82 | 1007.9 |
| 20260506215829 | 49 | 238 | 5.2 | 9.6 | 0.00 | 0.01 | 0.01 | 82 | 1007.9 |
| 20260506215729 | 49 | 250 | 5.2 | 9.6 | 0.00 | 0.01 | 0.01 | 81 | 1007.9 |
| 20260506215629 | 49 | 217 | 4.3 | 9.6 | 0.00 | 0.01 | 0.01 | 82 | 1007.9 |
| 20260506215529 | 49 | 280 | 4.3 | 9.6 | 0.00 | 0.01 | 0.01 | 82 | 1007.8 |
| 20260506215429 | 49 | 255 | 4.3 | 9.6 | 0.00 | 0.01 | 0.01 | 82 | 1007.8 |
| 20260506215329 | 49 | 242 | 4.3 | 8.7 | 0.00 | 0.01 | 0.01 | 82 | 1007.8 |
| 20260506215229 | 49 | 196 | 4.3 | 8.7 | 0.00 | 0.01 | 0.01 | 82 | 1007.8 |
| 20260506215148 | 49 | 292 | 4.3 | 7.8 | 0.00 | 0.01 | 0.01 | 82 | 1007.9 |
| 20260506215144 | 49 | 264 | 4.3 | 7.8 | 0.00 | 0.01 | 0.01 | 82 | 1007.8 |
| 20260506215140 | 49 | 269 | 4.3 | 8.7 | 0.00 | 0.01 | 0.01 | 82 | 1007.8 |
| 20260506214829 | 49 | 250 | 4.3 | 8.7 | 0.00 | 0.01 | 0.01 | 82 | 1007.8 |
| 20260506214729 | 49 | 258 | 4.3 | 8.7 | 0.00 | 0.01 | 0.01 | 82 | 1007.8 |
| 20260506214628 | 49 | 212 | 4.3 | 8.7 | 0.00 | 0.01 | 0.01 | 82 | 1007.8 |
| 20260506214528 | 49 | 266 | 4.3 | 9.6 | 0.00 | 0.01 | 0.01 | 82 | 1007.8 |
| 20260506214429 | 49 | 244 | 4.3 | 9.6 | 0.00 | 0.01 | 0.01 | 82 | 1007.8 |
| 20260506214329 | 49 | 274 | 4.3 | 9.6 | 0.00 | 0.01 | 0.01 | 82 | 1007.8 |
| 20260506214229 | 49 | 225 | 4.3 | 9.6 | 0.00 | 0.01 | 0.01 | 82 | 1007.8 |
| 20260506214129 | 49 | 228 | 5.2 | 9.6 | 0.00 | 0.01 | 0.01 | 82 | 1007.8 |
| 20260506214029 | 49 | 240 | 5.2 | 9.6 | 0.00 | 0.01 | 0.01 | 82 | 1007.7 |
| 20260506213929 | 49 | 257 | 5.2 | 9.6 | 0.00 | 0.01 | 0.01 | 82 | 1007.8 |
| 20260506213829 | 49 | 261 | 5.2 | 9.6 | 0.00 | 0.01 | 0.01 | 82 | 1007.7 |
| 20260506213728 | 49 | 288 | 5.2 | 9.6 | 0.00 | 0.01 | 0.01 | 82 | 1007.7 |
| 20260506213628 | 49 | 230 | 5.2 | 10.4 | 0.00 | 0.01 | 0.01 | 82 | 1007.8 |
| 20260506213528 | 49 | 221 | 5.2 | 10.4 | 0.00 | 0.01 | 0.01 | 82 | 1007.8 |
| 20260506213428 | 49 | 234 | 5.2 | 10.4 | 0.00 | 0.01 | 0.01 | 82 | 1007.7 |
| 20260506213330 | 49 | 226 | 5.2 | 10.4 | 0.00 | 0.01 | 0.01 | 82 | 1007.7 |
| 20260506213229 | 49 | 279 | 5.2 | 10.4 | 0.00 | 0.01 | 0.01 | 82 | 1007.7 |
| 20260506213129 | 49 | 240 | 5.2 | 10.4 | 0.00 | 0.01 | 0.01 | 82 | 1007.8 |
| 20260506213029 | 49 | 226 | 5.2 | 10.4 | 0.00 | 0.01 | 0.01 | 82 | 1007.7 |
| 20260506212928 | 49 | 259 | 5.2 | 10.4 | 0.00 | 0.01 | 0.01 | 82 | 1007.7 |
| 20260506212829 | 49 | 233 | 5.2 | 11.3 | 0.00 | 0.01 | 0.01 | 82 | 1007.7 |
| 20260506212729 | 49 | 267 | 4.3 | 11.3 | 0.00 | 0.01 | 0.01 | 82 | 1007.7 |
| 20260506212629 | 49 | 243 | 4.3 | 11.3 | 0.00 | 0.01 | 0.01 | 82 | 1007.7 |
| 20260506212529 | 49 | 220 | 4.3 | 11.3 | 0.00 | 0.01 | 0.01 | 82 | 1007.7 |
| 20260506212429 | 49 | 259 | 4.3 | 11.3 | 0.00 | 0.01 | 0.01 | 82 | 1007.7 |
| 20260506212329 | 49 | 248 | 4.3 | 11.3 | 0.00 | 0.01 | 0.01 | 82 | 1007.7 |
| 20260506212229 | 49 | 218 | 4.3 | 11.3 | 0.00 | 0.01 | 0.01 | 82 | 1007.6 |
| 20260506212129 | 49 | 240 | 4.3 | 11.3 | 0.00 | 0.01 | 0.01 | 82 | 1007.6 |
| 20260506212029 | 49 | 265 | 4.3 | 11.3 | 0.00 | 0.01 | 0.01 | 82 | 1007.7 |
| 20260506211930 | 49 | 270 | 4.3 | 11.3 | 0.00 | 0.01 | 0.01 | 82 | 1007.8 |
| 20260506211829 | 49 | 264 | 4.3 | 9.6 | 0.00 | 0.01 | 0.01 | 82 | 1007.7 |
| 20260506211733 | 49 | 268 | 4.3 | 9.6 | 0.00 | 0.01 | 0.01 | 82 | 1007.8 |
| 20260506211629 | 49 | 267 | 4.3 | 9.6 | 0.00 | 0.01 | 0.01 | 82 | 1007.7 |
| 20260506211529 | 49 | 224 | 4.3 | 9.6 | 0.00 | 0.01 | 0.01 | 82 | 1007.7 |
| 20260506211429 | 49 | 256 | 4.3 | 9.6 | 0.00 | 0.01 | 0.01 | 82 | 1007.7 |
| 20260506211329 | 49 | 254 | 4.3 | 9.6 | 0.00 | 0.01 | 0.01 | 82 | 1007.7 |
| 20260506211230 | 49 | 257 | 4.3 | 9.6 | 0.00 | 0.01 | 0.01 | 82 | 1007.7 |
| 20260506211029 | 49 | 232 | 4.3 | 8.7 | 0.00 | 0.01 | 0.01 | 82 | 1007.7 |
| 20260506210929 | 49 | 235 | 3.5 | 8.7 | 0.00 | 0.01 | 0.01 | 82 | 1007.8 |
| 20260506210829 | 49 | 254 | 4.3 | 8.7 | 0.00 | 0.01 | 0.01 | 82 | 1007.8 |
| 20260506210729 | 49 | 254 | 4.3 | 8.7 | 0.00 | 0.01 | 0.01 | 82 | 1007.7 |
| 20260506210629 | 49 | 238 | 4.3 | 8.7 | 0.00 | 0.01 | 0.01 | 82 | 1007.7 |
| 20260506210529 | 49 | 250 | 4.3 | 8.7 | 0.00 | 0.01 | 0.01 | 82 | 1007.9 |
| 20260506210428 | 49 | 250 | 4.3 | 8.7 | 0.00 | 0.01 | 0.01 | 82 | 1007.8 |
| 20260506210328 | 49 | 274 | 4.3 | 12.2 | 0.00 | 0.01 | 0.01 | 82 | 1007.8 |
| 20260506210228 | 49 | 262 | 5.2 | 12.2 | 0.00 | 0.01 | 0.01 | 82 | 1007.8 |
| 20260506210128 | 49 | 227 | 5.2 | 12.2 | 0.00 | 0.01 | 0.01 | 82 | 1007.8 |
| 20260506210028 | 49 | 243 | 5.2 | 12.2 | 0.00 | 0.01 | 0.01 | 82 | 1007.7 |
| 20260506205928 | 49 | 223 | 5.2 | 12.2 | 0.00 | 0.01 | 0.01 | 82 | 1007.7 |
| 20260506205829 | 49 | 236 | 5.2 | 12.2 | 0.00 | 0.01 | 0.01 | 82 | 1007.7 |
| 20260506205729 | 49 | 280 | 5.2 | 12.2 | 0.00 | 0.01 | 0.01 | 82 | 1007.7 |
| 20260506205629 | 49 | 277 | 6.1 | 12.2 | 0.00 | 0.01 | 0.01 | 82 | 1007.7 |
| 20260506205528 | 49 | 262 | 6.1 | 12.2 | 0.00 | 0.01 | 0.01 | 82 | 1007.7 |
| 20260506205429 | 49 | 273 | 6.1 | 12.2 | 0.00 | 0.01 | 0.01 | 82 | 1007.7 |
| 20260506205329 | 49 | 246 | 6.1 | 12.2 | 0.00 | 0.01 | 0.01 | 82 | 1007.7 |
| 20260506205229 | 49 | 235 | 6.1 | 12.2 | 0.00 | 0.01 | 0.01 | 82 | 1007.7 |
| 20260506205129 | 49 | 225 | 5.2 | 12.2 | 0.00 | 0.01 | 0.01 | 82 | 1007.7 |
| 20260506205029 | 49 | 273 | 5.2 | 10.4 | 0.00 | 0.01 | 0.01 | 82 | 1007.6 |
| 20260506204929 | 49 | 230 | 5.2 | 10.4 | 0.00 | 0.01 | 0.01 | 82 | 1007.7 |
| 20260506204828 | 49 | 232 | 5.2 | 10.4 | 0.00 | 0.01 | 0.01 | 82 | 1007.7 |
| 20260506204729 | 49 | 248 | 5.2 | 10.4 | 0.00 | 0.01 | 0.01 | 82 | 1007.7 |
| 20260506204629 | 49 | 247 | 5.2 | 10.4 | 0.00 | 0.01 | 0.01 | 82 | 1007.7 |
| 20260506204530 | 49 | 220 | 5.2 | 10.4 | 0.00 | 0.01 | 0.01 | 82 | 1007.8 |
| 20260506204429 | 49 | 257 | 5.2 | 13.0 | 0.00 | 0.01 | 0.01 | 82 | 1007.7 |
| 20260506204329 | 49 | 244 | 5.2 | 13.0 | 0.00 | 0.01 | 0.01 | 82 | 1007.6 |
| 20260506204229 | 49 | 248 | 5.2 | 13.0 | 0.00 | 0.01 | 0.01 | 82 | 1007.6 |
| 20260506204129 | 49 | 271 | 5.2 | 13.0 | 0.00 | 0.01 | 0.01 | 82 | 1007.5 |
| 20260506204029 | 49 | 257 | 5.2 | 13.0 | 0.00 | 0.01 | 0.01 | 82 | 1007.6 |
| 20260506203928 | 49 | 279 | 5.2 | 13.0 | 0.00 | 0.01 | 0.01 | 82 | 1007.5 |
| 20260506203828 | 49 | 242 | 5.2 | 13.0 | 0.00 | 0.01 | 0.01 | 82 | 1007.5 |
| 20260506203728 | 49 | 263 | 5.2 | 13.0 | 0.00 | 0.01 | 0.01 | 82 | 1007.5 |
| 20260506203649 | 49 | 217 | 5.2 | 13.0 | 0.00 | 0.01 | 0.01 | 82 | 1007.5 |
| 20260506203645 | 49 | 215 | 5.2 | 13.0 | 0.00 | 0.01 | 0.01 | 82 | 1007.5 |
| 20260506203641 | 49 | 229 | 5.2 | 11.3 | 0.00 | 0.01 | 0.01 | 82 | 1007.5 |
| 20260506203329 | 49 | 276 | 5.2 | 11.3 | 0.00 | 0.01 | 0.01 | 82 | 1007.5 |
| 20260506203228 | 49 | 252 | 5.2 | 11.3 | 0.00 | 0.01 | 0.01 | 81 | 1007.4 |
| 20260506203128 | 49 | 236 | 5.2 | 11.3 | 0.00 | 0.01 | 0.01 | 81 | 1007.5 |
| 20260506203028 | 49 | 221 | 5.2 | 9.6 | 0.00 | 0.01 | 0.01 | 81 | 1007.4 |
| 20260506202929 | 49 | 236 | 5.2 | 9.6 | 0.00 | 0.01 | 0.01 | 81 | 1007.5 |
| 20260506202829 | 49 | 240 | 5.2 | 9.6 | 0.00 | 0.01 | 0.01 | 81 | 1007.4 |
| 20260506202729 | 49 | 284 | 5.2 | 9.6 | 0.00 | 0.01 | 0.01 | 81 | 1007.5 |
| 20260506202629 | 49 | 290 | 5.2 | 9.6 | 0.00 | 0.01 | 0.01 | 81 | 1007.4 |
| 20260506202529 | 49 | 253 | 6.1 | 9.6 | 0.00 | 0.01 | 0.01 | 81 | 1007.5 |
| 20260506202429 | 49 | 266 | 6.1 | 9.6 | 0.00 | 0.01 | 0.01 | 81 | 1007.5 |
| 20260506202329 | 49 | 247 | 5.2 | 9.6 | 0.00 | 0.01 | 0.01 | 82 | 1007.5 |
| 20260506202228 | 49 | 217 | 5.2 | 9.6 | 0.00 | 0.01 | 0.01 | 82 | 1007.4 |
| 20260506202129 | 49 | 271 | 5.2 | 9.6 | 0.00 | 0.01 | 0.01 | 82 | 1007.4 |
| 20260506202029 | 49 | 260 | 5.2 | 9.6 | 0.00 | 0.01 | 0.01 | 82 | 1007.4 |
| 20260506201929 | 49 | 256 | 5.2 | 9.6 | 0.00 | 0.01 | 0.01 | 82 | 1007.4 |
| 20260506201829 | 49 | 241 | 5.2 | 9.6 | 0.00 | 0.01 | 0.01 | 82 | 1007.4 |
| 20260506201729 | 49 | 275 | 5.2 | 9.6 | 0.00 | 0.01 | 0.01 | 82 | 1007.4 |
| 20260506201649 | 49 | 234 | 4.3 | 9.6 | 0.00 | 0.01 | 0.01 | 82 | 1007.4 |
| 20260506201645 | 49 | 241 | 4.3 | 9.6 | 0.00 | 0.01 | 0.01 | 81 | 1007.4 |
| 20260506201641 | 49 | 265 | 4.3 | 9.6 | 0.00 | 0.01 | 0.01 | 81 | 1007.4 |
| 20260506201329 | 49 | 279 | 4.3 | 9.6 | 0.00 | 0.01 | 0.01 | 82 | 1007.3 |
| 20260506201229 | 49 | 239 | 4.3 | 9.6 | 0.00 | 0.01 | 0.01 | 81 | 1007.3 |
| 20260506201129 | 49 | 225 | 4.3 | 9.6 | 0.00 | 0.01 | 0.01 | 81 | 1007.3 |
| 20260506201029 | 49 | 244 | 4.3 | 7.8 | 0.00 | 0.01 | 0.01 | 81 | 1007.4 |
| 20260506200928 | 49 | 261 | 4.3 | 7.8 | 0.00 | 0.01 | 0.01 | 82 | 1007.3 |
| 20260506200829 | 49 | 286 | 4.3 | 7.8 | 0.00 | 0.01 | 0.01 | 82 | 1007.3 |
| 20260506200728 | 49 | 272 | 4.3 | 7.8 | 0.00 | 0.01 | 0.01 | 81 | 1007.3 |
| 20260506200628 | 49 | 232 | 4.3 | 7.8 | 0.00 | 0.01 | 0.01 | 81 | 1007.3 |
| 20260506200528 | 49 | 249 | 4.3 | 7.8 | 0.00 | 0.01 | 0.01 | 81 | 1007.3 |
| 20260506200430 | 49 | 249 | 4.3 | 8.7 | 0.00 | 0.01 | 0.01 | 81 | 1007.3 |
| 20260506200426 | 49 | 248 | 4.3 | 8.7 | 0.00 | 0.01 | 0.01 | 81 | 1007.3 |
| 20260506200329 | 49 | 244 | 4.3 | 8.7 | 0.00 | 0.01 | 0.01 | 81 | 1007.2 |
| 20260506200229 | 49 | 210 | 4.3 | 8.7 | 0.00 | 0.01 | 0.01 | 81 | 1007.2 |
| 20260506200128 | 49 | 277 | 4.3 | 8.7 | 0.00 | 0.01 | 0.01 | 81 | 1007.3 |
| 20260506200029 | 49 | 236 | 4.3 | 8.7 | 0.00 | 0.01 | 0.01 | 81 | 1007.2 |
| 20260506195921 | 49 | 252 | 5.2 | 8.7 | 0.00 | 0.01 | 0.01 | 81 | 1007.2 |
| 20260506195829 | 49 | 271 | 5.2 | 8.7 | 0.00 | 0.01 | 0.01 | 81 | 1007.1 |
| 20260506195729 | 49 | 302 | 5.2 | 8.7 | 0.00 | 0.01 | 0.01 | 81 | 1007.1 |
| 20260506195630 | 49 | 232 | 5.2 | 8.7 | 0.00 | 0.01 | 0.01 | 81 | 1007.2 |
| 20260506195529 | 49 | 246 | 5.2 | 9.6 | 0.00 | 0.01 | 0.01 | 81 | 1007.3 |
| 20260506195429 | 49 | 276 | 5.2 | 9.6 | 0.00 | 0.01 | 0.01 | 81 | 1007.2 |
| 20260506195415 | 49 | 290 | 5.2 | 9.6 | 0.00 | 0.01 | 0.01 | 81 | 1007.2 |
| 20260506195329 | 49 | 267 | 5.2 | 9.6 | 0.00 | 0.01 | 0.01 | 81 | 1007.3 |
| 20260506195229 | 49 | 271 | 5.2 | 9.6 | 0.00 | 0.01 | 0.01 | 81 | 1007.3 |
| 20260506195127 | 49 | 242 | 5.2 | 9.6 | 0.00 | 0.01 | 0.01 | 81 | 1007.2 |
| 20260506195027 | 49 | 286 | 5.2 | 9.6 | 0.00 | 0.01 | 0.01 | 81 | 1007.3 |
| 20260506194927 | 50 | 252 | 5.2 | 9.6 | 0.00 | 0.01 | 0.01 | 81 | 1007.3 |
| 20260506194908 | 49 | 296 | 5.2 | 9.6 | 0.00 | 0.01 | 0.01 | 81 | 1007.3 |
| 20260506194826 | 50 | 267 | 5.2 | 9.6 | 0.00 | 0.01 | 0.01 | 81 | 1007.3 |
| 20260506194726 | 50 | 266 | 5.2 | 9.6 | 0.00 | 0.01 | 0.01 | 81 | 1007.2 |
| 20260506194621 | 50 | 229 | 4.3 | 9.6 | 0.00 | 0.01 | 0.01 | 81 | 1007.3 |
| 20260506194521 | 50 | 283 | 4.3 | 8.7 | 0.00 | 0.01 | 0.01 | 81 | 1007.2 |
| 20260506194421 | 50 | 281 | 4.3 | 8.7 | 0.00 | 0.01 | 0.01 | 81 | 1007.2 |
| 20260506194402 | 50 | 247 | 4.3 | 8.7 | 0.00 | 0.01 | 0.01 | 81 | 1007.2 |
| 20260506194320 | 50 | 265 | 4.3 | 8.7 | 0.00 | 0.01 | 0.01 | 81 | 1007.2 |
| 20260506194220 | 50 | 261 | 4.3 | 7.8 | 0.00 | 0.01 | 0.01 | 81 | 1007.2 |
| 20260506194128 | 50 | 253 | 4.3 | 7.8 | 0.00 | 0.01 | 0.01 | 81 | 1007.2 |
| 20260506194123 | 50 | 275 | 4.3 | 7.8 | 0.00 | 0.01 | 0.01 | 81 | 1007.2 |
| 20260506194119 | 50 | 228 | 4.3 | 7.8 | 0.00 | 0.01 | 0.01 | 81 | 1007.2 |
| 20260506194115 | 50 | 272 | 4.3 | 7.8 | 0.00 | 0.01 | 0.01 | 81 | 1007.2 |
| 20260506193817 | 50 | 234 | 5.2 | 8.7 | 0.00 | 0.01 | 0.01 | 81 | 1007.2 |
| 20260506193715 | 50 | 247 | 5.2 | 8.7 | 0.00 | 0.01 | 0.01 | 81 | 1007.2 |
| 20260506193608 | 50 | 269 | 5.2 | 9.6 | 0.00 | 0.01 | 0.01 | 80 | 1007.1 |
| 20260506193508 | 50 | 271 | 5.2 | 9.6 | 0.00 | 0.01 | 0.01 | 80 | 1007.1 |
| 20260506193409 | 50 | 285 | 5.2 | 9.6 | 0.00 | 0.01 | 0.01 | 80 | 1007.1 |
| 20260506193403 | 50 | 249 | 5.2 | 9.6 | 0.00 | 0.01 | 0.01 | 80 | 1007.1 |
| 20260506193309 | 50 | 246 | 5.2 | 9.6 | 0.00 | 0.01 | 0.01 | 80 | 1007.1 |
| 20260506193209 | 50 | 280 | 5.2 | 9.6 | 0.00 | 0.01 | 0.01 | 80 | 1007.0 |
| 20260506193103 | 50 | 239 | 5.2 | 10.4 | 0.00 | 0.01 | 0.01 | 80 | 1007.0 |
| 20260506193003 | 50 | 304 | 5.2 | 10.4 | 0.00 | 0.01 | 0.01 | 80 | 1007.0 |
| 20260506192901 | 50 | 282 | 5.2 | 10.4 | 0.00 | 0.01 | 0.01 | 80 | 1007.0 |
| 20260506192801 | 50 | 288 | 5.2 | 10.4 | 0.00 | 0.01 | 0.01 | 80 | 1007.0 |
| 20260506192701 | 50 | 246 | 5.2 | 10.4 | 0.00 | 0.01 | 0.01 | 80 | 1007.1 |
| 20260506192601 | 50 | 273 | 5.2 | 10.4 | 0.00 | 0.01 | 0.01 | 80 | 1007.1 |
| 20260506192501 | 50 | 262 | 5.2 | 10.4 | 0.00 | 0.01 | 0.01 | 80 | 1007.0 |
| 20260506192401 | 50 | 270 | 5.2 | 10.4 | 0.00 | 0.01 | 0.01 | 80 | 1007.1 |
| 20260506192301 | 50 | 275 | 5.2 | 10.4 | 0.00 | 0.01 | 0.01 | 80 | 1007.0 |
| 20260506192202 | 50 | 248 | 5.2 | 10.4 | 0.00 | 0.01 | 0.01 | 80 | 1007.0 |
| 20260506192100 | 50 | 265 | 5.2 | 10.4 | 0.00 | 0.01 | 0.01 | 80 | 1007.0 |
| 20260506192001 | 50 | 242 | 5.2 | 10.4 | 0.00 | 0.01 | 0.01 | 80 | 1007.0 |
| 20260506191901 | 50 | 233 | 4.3 | 9.6 | 0.00 | 0.01 | 0.01 | 80 | 1007.1 |
| 20260506191801 | 50 | 263 | 4.3 | 8.7 | 0.00 | 0.01 | 0.01 | 80 | 1007.0 |
| 20260506191701 | 50 | 276 | 4.3 | 8.7 | 0.00 | 0.01 | 0.01 | 80 | 1007.0 |
| 20260506191601 | 50 | 248 | 4.3 | 8.7 | 0.00 | 0.01 | 0.01 | 80 | 1007.0 |
| 20260506191500 | 50 | 227 | 5.2 | 8.7 | 0.00 | 0.01 | 0.01 | 80 | 1007.0 |
| 20260506191400 | 50 | 230 | 5.2 | 8.7 | 0.00 | 0.01 | 0.01 | 80 | 1007.0 |
| 20260506191301 | 50 | 244 | 5.2 | 8.7 | 0.00 | 0.01 | 0.01 | 80 | 1007.0 |
| 20260506191101 | 50 | 262 | 5.2 | 10.4 | 0.00 | 0.01 | 0.01 | 80 | 1007.1 |
| 20260506191001 | 50 | 274 | 5.2 | 10.4 | 0.00 | 0.01 | 0.01 | 79 | 1007.0 |
| 20260506190901 | 50 | 269 | 5.2 | 10.4 | 0.00 | 0.01 | 0.01 | 79 | 1007.0 |
| 20260506190801 | 50 | 277 | 5.2 | 10.4 | 0.00 | 0.01 | 0.01 | 79 | 1007.0 |
| 20260506190700 | 51 | 265 | 5.2 | 10.4 | 0.00 | 0.01 | 0.01 | 79 | 1007.0 |
| 20260506190600 | 51 | 218 | 5.2 | 10.4 | 0.00 | 0.01 | 0.01 | 79 | 1007.0 |
| 20260506190500 | 50 | 201 | 5.2 | 10.4 | 0.00 | 0.01 | 0.01 | 79 | 1007.0 |
| 20260506190400 | 51 | 254 | 5.2 | 10.4 | 0.00 | 0.01 | 0.01 | 79 | 1007.1 |
| 20260506190301 | 51 | 217 | 5.2 | 10.4 | 0.00 | 0.01 | 0.01 | 79 | 1007.0 |
| 20260506190201 | 51 | 236 | 5.2 | 10.4 | 0.00 | 0.01 | 0.01 | 79 | 1007.0 |
| 20260506190100 | 51 | 211 | 5.2 | 9.6 | 0.00 | 0.01 | 0.01 | 79 | 1006.9 |
| 20260506190001 | 51 | 223 | 5.2 | 9.6 | 0.00 | 0.01 | 0.01 | 80 | 1006.9 |
| 20260506185901 | 51 | 238 | 5.2 | 9.6 | 0.00 | 0.01 | 0.01 | 80 | 1006.8 |
| 20260506185801 | 51 | 226 | 5.2 | 9.6 | 0.00 | 0.01 | 0.01 | 80 | 1006.9 |
| 20260506185701 | 51 | 249 | 5.2 | 9.6 | 0.00 | 0.01 | 0.01 | 79 | 1006.8 |
| 20260506185601 | 51 | 277 | 4.3 | 8.7 | 0.00 | 0.01 | 0.01 | 79 | 1006.8 |
| 20260506185501 | 51 | 240 | 4.3 | 8.7 | 0.00 | 0.01 | 0.01 | 79 | 1006.8 |
| 20260506185400 | 51 | 222 | 4.3 | 7.8 | 0.00 | 0.01 | 0.01 | 80 | 1006.8 |
| 20260506185301 | 51 | 280 | 4.3 | 7.0 | 0.00 | 0.01 | 0.01 | 79 | 1006.8 |
| 20260506185200 | 51 | 221 | 4.3 | 7.0 | 0.00 | 0.01 | 0.01 | 80 | 1006.8 |
| 20260506185100 | 51 | 238 | 4.3 | 7.0 | 0.00 | 0.01 | 0.01 | 79 | 1006.8 |
| 20260506185001 | 51 | 244 | 4.3 | 7.8 | 0.00 | 0.01 | 0.01 | 79 | 1006.8 |
| 20260506184901 | 51 | 245 | 4.3 | 7.8 | 0.00 | 0.01 | 0.01 | 79 | 1006.8 |
| 20260506184801 | 51 | 253 | 4.3 | 7.8 | 0.00 | 0.01 | 0.01 | 79 | 1006.9 |
| 20260506184701 | 51 | 296 | 4.3 | 9.6 | 0.00 | 0.01 | 0.01 | 79 | 1006.8 |
| 20260506184601 | 51 | 250 | 4.3 | 9.6 | 0.00 | 0.01 | 0.01 | 79 | 1006.8 |
| 20260506184501 | 51 | 285 | 4.3 | 9.6 | 0.00 | 0.01 | 0.01 | 79 | 1006.8 |
| 20260506184400 | 51 | 209 | 4.3 | 9.6 | 0.00 | 0.01 | 0.01 | 79 | 1006.9 |
| 20260506184300 | 51 | 260 | 5.2 | 9.6 | 0.00 | 0.01 | 0.01 | 79 | 1006.9 |
| 20260506184201 | 51 | 223 | 5.2 | 9.6 | 0.00 | 0.01 | 0.01 | 79 | 1006.8 |
| 20260506184101 | 51 | 257 | 5.2 | 9.6 | 0.00 | 0.01 | 0.01 | 79 | 1006.9 |
| 20260506184000 | 51 | 227 | 5.2 | 9.6 | 0.00 | 0.01 | 0.01 | 79 | 1006.9 |
| 20260506183900 | 51 | 284 | 5.2 | 9.6 | 0.00 | 0.01 | 0.01 | 79 | 1006.8 |
| 20260506183800 | 51 | 246 | 5.2 | 9.6 | 0.00 | 0.01 | 0.01 | 79 | 1006.9 |
| 20260506183700 | 51 | 248 | 5.2 | 9.6 | 0.00 | 0.01 | 0.01 | 78 | 1006.7 |
| 20260506183601 | 51 | 236 | 5.2 | 9.6 | 0.00 | 0.01 | 0.01 | 78 | 1006.9 |
| 20260506183501 | 51 | 273 | 5.2 | 9.6 | 0.00 | 0.01 | 0.01 | 79 | 1006.9 |
| 20260506183401 | 51 | 277 | 5.2 | 9.6 | 0.00 | 0.01 | 0.01 | 78 | 1006.8 |
| 20260506183301 | 51 | 239 | 5.2 | 10.4 | 0.00 | 0.01 | 0.01 | 78 | 1006.8 |
| 20260506183201 | 51 | 256 | 5.2 | 10.4 | 0.00 | 0.01 | 0.01 | 79 | 1006.8 |
| 20260506183101 | 51 | 271 | 5.2 | 10.4 | 0.00 | 0.01 | 0.01 | 79 | 1006.8 |
| 20260506183000 | 51 | 271 | 5.2 | 10.4 | 0.00 | 0.01 | 0.01 | 79 | 1006.8 |
| 20260506182900 | 51 | 260 | 5.2 | 10.4 | 0.00 | 0.01 | 0.01 | 78 | 1006.8 |
| 20260506182800 | 51 | 264 | 5.2 | 10.4 | 0.00 | 0.01 | 0.01 | 78 | 1006.7 |
| 20260506182700 | 51 | 254 | 5.2 | 10.4 | 0.00 | 0.01 | 0.01 | 78 | 1006.7 |
| 20260506182601 | 51 | 229 | 5.2 | 10.4 | 0.00 | 0.01 | 0.01 | 78 | 1006.8 |
| 20260506182501 | 51 | 262 | 6.1 | 11.3 | 0.00 | 0.01 | 0.01 | 78 | 1006.7 |
| 20260506182401 | 51 | 270 | 6.1 | 11.3 | 0.00 | 0.01 | 0.01 | 78 | 1006.7 |
| 20260506182301 | 51 | 266 | 6.1 | 11.3 | 0.00 | 0.01 | 0.01 | 78 | 1006.7 |
| 20260506182200 | 51 | 238 | 6.1 | 11.3 | 0.00 | 0.01 | 0.01 | 78 | 1006.7 |
| 20260506182101 | 51 | 263 | 6.1 | 11.3 | 0.00 | 0.01 | 0.01 | 78 | 1006.7 |
| 20260506182001 | 51 | 274 | 6.1 | 11.3 | 0.00 | 0.01 | 0.01 | 79 | 1006.5 |
| 20260506181900 | 51 | 255 | 6.1 | 11.3 | 0.00 | 0.01 | 0.01 | 78 | 1006.7 |
| 20260506181800 | 51 | 226 | 6.1 | 11.3 | 0.00 | 0.01 | 0.01 | 78 | 1006.7 |
| 20260506181700 | 51 | 275 | 6.1 | 11.3 | 0.00 | 0.01 | 0.01 | 78 | 1006.5 |
| 20260506181600 | 51 | 223 | 6.1 | 11.3 | 0.00 | 0.01 | 0.01 | 78 | 1006.4 |
| 20260506181501 | 51 | 227 | 5.2 | 11.3 | 0.00 | 0.01 | 0.01 | 78 | 1006.4 |
| 20260506181401 | 51 | 253 | 5.2 | 11.3 | 0.00 | 0.01 | 0.01 | 78 | 1006.4 |
| 20260506181301 | 51 | 236 | 5.2 | 10.4 | 0.00 | 0.01 | 0.01 | 78 | 1006.4 |
| 20260506181201 | 51 | 274 | 5.2 | 10.4 | 0.00 | 0.01 | 0.01 | 78 | 1006.4 |
| 20260506181107 | 52 | 229 | 5.2 | 10.4 | 0.00 | 0.01 | 0.01 | 78 | 1006.3 |
| 20260506181000 | 52 | 281 | 4.3 | 10.4 | 0.00 | 0.01 | 0.01 | 78 | 1006.3 |
| 20260506180901 | 52 | 271 | 4.3 | 10.4 | 0.00 | 0.01 | 0.01 | 78 | 1006.3 |
| 20260506180801 | 52 | 250 | 4.3 | 10.4 | 0.00 | 0.01 | 0.01 | 78 | 1006.4 |
| 20260506180701 | 52 | 273 | 4.3 | 9.6 | 0.00 | 0.01 | 0.01 | 78 | 1006.3 |
| 20260506180603 | 52 | 242 | 4.3 | 9.6 | 0.00 | 0.01 | 0.01 | 78 | 1006.3 |
| 20260506180500 | 52 | 252 | 4.3 | 9.6 | 0.00 | 0.01 | 0.01 | 78 | 1006.3 |
| 20260506180400 | 52 | 277 | 4.3 | 9.6 | 0.00 | 0.01 | 0.01 | 78 | 1006.3 |
| 20260506180300 | 52 | 243 | 4.3 | 9.6 | 0.00 | 0.01 | 0.01 | 78 | 1006.3 |
| 20260506180200 | 52 | 240 | 4.3 | 9.6 | 0.00 | 0.01 | 0.01 | 78 | 1006.2 |
| 20260506180124 | 52 | 243 | 4.3 | 9.6 | 0.00 | 0.01 | 0.01 | 78 | 1006.3 |
| 20260506180116 | 52 | 248 | 4.3 | 9.6 | 0.00 | 0.01 | 0.01 | 78 | 1006.3 |
| 20260506180112 | 52 | 270 | 4.3 | 9.6 | 0.00 | 0.01 | 0.01 | 78 | 1006.2 |
| 20260506175800 | 52 | 272 | 4.3 | 8.7 | 0.00 | 0.01 | 0.01 | 78 | 1006.2 |
| 20260506175701 | 52 | 248 | 4.3 | 8.7 | 0.00 | 0.01 | 0.01 | 78 | 1006.2 |
| 20260506175624 | 52 | 244 | 5.2 | 9.6 | 0.00 | 0.01 | 0.01 | 78 | 1006.2 |
| 20260506175615 | 52 | 243 | 5.2 | 11.3 | 0.00 | 0.01 | 0.01 | 78 | 1006.2 |
| 20260506175611 | 52 | 256 | 6.1 | 11.3 | 0.00 | 0.01 | 0.01 | 78 | 1006.2 |
| 20260506175300 | 52 | 238 | 6.1 | 11.3 | 0.00 | 0.01 | 0.01 | 78 | 1006.2 |
| 20260506175200 | 52 | 242 | 6.1 | 11.3 | 0.00 | 0.01 | 0.01 | 78 | 1006.1 |
| 20260506175101 | 52 | 273 | 6.1 | 11.3 | 0.00 | 0.01 | 0.01 | 78 | 1006.1 |
| 20260506175001 | 52 | 258 | 6.1 | 11.3 | 0.00 | 0.01 | 0.01 | 78 | 1006.0 |
| 20260506174900 | 52 | 216 | 6.1 | 11.3 | 0.00 | 0.01 | 0.01 | 78 | 1006.0 |
| 20260506174800 | 52 | 255 | 6.1 | 11.3 | 0.00 | 0.01 | 0.01 | 78 | 1006.1 |
| 20260506174700 | 52 | 263 | 6.1 | 11.3 | 0.00 | 0.01 | 0.01 | 78 | 1006.1 |
| 20260506174623 | 52 | 272 | 6.1 | 11.3 | 0.00 | 0.01 | 0.01 | 78 | 1006.1 |
| 20260506174615 | 52 | 288 | 5.2 | 9.6 | 0.00 | 0.01 | 0.01 | 78 | 1006.0 |
| 20260506174611 | 52 | 232 | 5.2 | 9.6 | 0.00 | 0.01 | 0.01 | 78 | 1006.1 |
| 20260506174300 | 52 | 218 | 5.2 | 8.7 | 0.00 | 0.01 | 0.01 | 79 | 1006.0 |
| 20260506174200 | 52 | 267 | 5.2 | 8.7 | 0.00 | 0.01 | 0.01 | 79 | 1005.9 |
| 20260506174100 | 52 | 272 | 5.2 | 8.7 | 0.00 | 0.01 | 0.01 | 78 | 1005.9 |
| 20260506174001 | 52 | 214 | 5.2 | 8.7 | 0.00 | 0.01 | 0.01 | 78 | 1005.9 |
| 20260506173901 | 52 | 267 | 5.2 | 9.6 | 0.00 | 0.01 | 0.01 | 79 | 1005.8 |
| 20260506173801 | 52 | 241 | 5.2 | 9.6 | 0.00 | 0.01 | 0.01 | 78 | 1005.8 |
| 20260506173700 | 52 | 273 | 5.2 | 9.6 | 0.00 | 0.01 | 0.01 | 78 | 1005.7 |
| 20260506173600 | 52 | 244 | 5.2 | 9.6 | 0.00 | 0.01 | 0.01 | 78 | 1005.5 |
| 20260506173500 | 52 | 280 | 5.2 | 10.4 | 0.00 | 0.01 | 0.01 | 78 | 1005.5 |
| 20260506173400 | 52 | 255 | 5.2 | 10.4 | 0.00 | 0.01 | 0.01 | 78 | 1005.5 |
| 20260506173300 | 52 | 278 | 5.2 | 10.4 | 0.00 | 0.01 | 0.01 | 78 | 1005.5 |
| 20260506173200 | 52 | 259 | 6.1 | 11.3 | 0.00 | 0.01 | 0.01 | 78 | 1005.4 |
| 20260506173101 | 51 | 258 | 6.1 | 12.2 | 0.00 | 0.01 | 0.01 | 78 | 1005.5 |
| 20260506173000 | 52 | 246 | 7.0 | 12.2 | 0.00 | 0.01 | 0.01 | 78 | 1005.5 |
| 20260506172901 | 52 | 240 | 7.0 | 12.2 | 0.00 | 0.01 | 0.01 | 78 | 1005.4 |
| 20260506172801 | 52 | 230 | 7.8 | 13.0 | 0.00 | 0.01 | 0.01 | 78 | 1005.5 |
| 20260506172701 | 52 | 250 | 7.8 | 13.0 | 0.00 | 0.01 | 0.01 | 78 | 1005.4 |
| 20260506172601 | 52 | 272 | 7.8 | 13.0 | 0.00 | 0.01 | 0.01 | 78 | 1005.4 |
| 20260506172501 | 52 | 251 | 8.7 | 13.9 | 0.00 | 0.01 | 0.01 | 77 | 1005.4 |
| 20260506172400 | 52 | 263 | 8.7 | 14.8 | 0.00 | 0.01 | 0.01 | 78 | 1005.4 |
| 20260506172300 | 52 | 242 | 9.6 | 14.8 | 0.00 | 0.01 | 0.01 | 78 | 1005.4 |
| 20260506172200 | 52 | 267 | 9.6 | 14.8 | 0.00 | 0.01 | 0.01 | 78 | 1005.5 |
| 20260506172100 | 52 | 285 | 9.6 | 14.8 | 0.00 | 0.01 | 0.01 | 77 | 1005.6 |
| 20260506172000 | 52 | 261 | 9.6 | 14.8 | 0.00 | 0.01 | 0.01 | 78 | 1005.3 |
| 20260506171901 | 52 | 273 | 9.6 | 14.8 | 0.00 | 0.01 | 0.01 | 78 | 1005.3 |
| 20260506171800 | 52 | 269 | 9.6 | 14.8 | 0.00 | 0.01 | 0.01 | 78 | 1005.3 |
| 20260506171700 | 52 | 253 | 8.7 | 14.8 | 0.00 | 0.01 | 0.01 | 78 | 1005.4 |
| 20260506171600 | 52 | 230 | 8.7 | 14.8 | 0.00 | 0.01 | 0.01 | 77 | 1005.4 |
| 20260506171500 | 52 | 286 | 9.6 | 16.5 | 0.00 | 0.01 | 0.01 | 78 | 1005.4 |
| 20260506171400 | 52 | 268 | 9.6 | 16.5 | 0.00 | 0.01 | 0.01 | 78 | 1005.3 |
| 20260506171300 | 52 | 250 | 9.6 | 16.5 | 0.00 | 0.01 | 0.01 | 77 | 1005.4 |
| 20260506171200 | 52 | 292 | 9.6 | 16.5 | 0.00 | 0.01 | 0.01 | 77 | 1005.3 |
| 20260506171100 | 52 | 233 | 9.6 | 16.5 | 0.00 | 0.01 | 0.01 | 78 | 1005.3 |
| 20260506171001 | 52 | 248 | 9.6 | 16.5 | 0.00 | 0.01 | 0.01 | 78 | 1005.5 |
| 20260506170901 | 52 | 277 | 9.6 | 16.5 | 0.00 | 0.01 | 0.01 | 78 | 1005.3 |
| 20260506170800 | 52 | 253 | 10.4 | 16.5 | 0.00 | 0.01 | 0.01 | 78 | 1005.3 |
| 20260506170700 | 52 | 252 | 10.4 | 16.5 | 0.00 | 0.01 | 0.01 | 77 | 1005.3 |
| 20260506170600 | 52 | 254 | 10.4 | 16.5 | 0.00 | 0.01 | 0.01 | 77 | 1005.4 |
| 20260506170501 | 52 | 263 | 10.4 | 16.5 | 0.00 | 0.01 | 0.01 | 77 | 1005.4 |
| 20260506170401 | 52 | 282 | 10.4 | 16.5 | 0.00 | 0.02 | 0.01 | 78 | 1005.4 |
| 20260506170300 | 52 | 256 | 10.4 | 16.5 | 0.00 | 0.02 | 0.01 | 78 | 1005.6 |
| 20260506170200 | 52 | 220 | 10.4 | 16.5 | 0.00 | 0.02 | 0.01 | 78 | 1005.5 |
| 20260506170100 | 52 | 268 | 10.4 | 17.4 | 0.00 | 0.02 | 0.01 | 78 | 1005.3 |
| 20260506170001 | 52 | 210 | 10.4 | 17.4 | 0.00 | 0.02 | 0.01 | 77 | 1005.3 |
| 20260506165901 | 52 | 240 | 10.4 | 17.4 | 0.00 | 0.02 | 0.01 | 77 | 1005.5 |
| 20260506165800 | 52 | 266 | 10.4 | 17.4 | 0.00 | 0.02 | 0.01 | 77 | 1005.3 |
| 20260506165700 | 52 | 269 | 10.4 | 17.4 | 0.00 | 0.02 | 0.01 | 77 | 1005.2 |
| 20260506165600 | 53 | 256 | 10.4 | 17.4 | 0.00 | 0.02 | 0.01 | 78 | 1005.2 |
| 20260506165500 | 53 | 277 | 10.4 | 17.4 | 0.00 | 0.02 | 0.01 | 77 | 1005.6 |
| 20260506165400 | 53 | 255 | 11.3 | 18.2 | 0.00 | 0.02 | 0.01 | 78 | 1005.2 |
| 20260506165300 | 53 | 254 | 11.3 | 18.2 | 0.00 | 0.02 | 0.01 | 77 | 1005.4 |
| 20260506165202 | 53 | 237 | 11.3 | 18.2 | 0.00 | 0.02 | 0.01 | 78 | 1005.4 |
| 20260506165101 | 53 | 269 | 11.3 | 18.2 | 0.00 | 0.02 | 0.01 | 78 | 1005.2 |
| 20260506165001 | 53 | 302 | 12.2 | 18.2 | 0.00 | 0.02 | 0.01 | 77 | 1005.3 |
| 20260506164901 | 53 | 258 | 13.0 | 21.7 | 0.00 | 0.02 | 0.01 | 77 | 1005.3 |
| 20260506164801 | 53 | 256 | 13.0 | 21.7 | 0.00 | 0.02 | 0.01 | 77 | 1005.3 |
| 20260506164700 | 53 | 245 | 13.0 | 21.7 | 0.00 | 0.02 | 0.01 | 76 | 1005.5 |
| 20260506164600 | 53 | 282 | 13.0 | 21.7 | 0.00 | 0.02 | 0.01 | 76 | 1005.8 |
| 20260506164500 | 53 | 244 | 13.0 | 21.7 | 0.00 | 0.02 | 0.01 | 76 | 1005.8 |